[[{"header":{"parameterUnit":"m.s-1","parameterCategory":1,"la1":31.0,"la2":29.5877,"lo1":-88.7671,"lo2":-86.6584,"dy":0.0162,"dx":0.0185,"nx":115,"ny":88,"refTime":"2024-07-24T06:00:00:Z","depth":0,"parameterNumber":2,"parameterNumberName":"U-component_of_WINDS"},"data":[0.0,0.0,0.0,0.0,0.0,0.0,0.0,0.0,0.0,0.0,0.0,0.0,0.0,0.0,0.0,0.0,0.0,0.0,0.0,0.0,0.0,0.0,0.0,0.0,0.0,0.0,0.0,0.0,0.0,0.0,0.0,0.0,0.0,0.0,0.0,0.0,0.0,0.0,0.0,0.0,0.0,0.0,0.0,0.0,0.0,0.0,0.0,0.0,0.0,0.0,0.0,0.0,0.0,0.0,0.0,0.0,0.0,0.0,0.0,0.0,0.0,0.0,0.0,0.0,0.0,0.0,0.0,0.0,0.0,0.0,0.0,0.0,0.0,0.0,0.0,0.0,0.0,0.0,0.0,0.0,0.0,0.0,0.0,0.0,0.0,0.0,0.0,0.0,0.0,0.0,0.0,0.0,0.0,0.0,0.0,0.0,0.0,0.0,0.0,0.0,0.0,0.0,0.0,0.0,0.0,0.0,0.0,0.0,0.0,0.0,0.0,0.0,0.0,0.0,0.0,0.0,0.0,0.0,0.0,0.0,0.0,0.0,0.0,0.0,0.0,0.0,0.0,0.0,0.0,0.0,0.0,0.0,0.0,0.0,0.0,0.0,0.0,0.0,0.0,0.0,0.0,0.0,0.0,0.0,0.0,0.0,0.0,0.0,0.0,0.0,0.0,0.0,0.0,0.0,0.0,0.0,0.0,0.0,0.0,0.0,0.0,0.0,0.0,0.0,0.0,0.0,0.0,0.0,0.0,0.0,0.0,0.0,0.0,0.0,0.0,0.0,0.0,0.0,0.0,0.0,0.0,0.0,0.0,0.0,0.0,0.0,0.0,0.0,0.0,0.0,0.0,0.0,0.0,0.0,0.0,0.0,0.0,0.0,0.0,0.0,0.0,0.0,0.0,0.0,0.0,0.0,0.0,0.0,0.0,0.0,0.0,0.0,0.0,0.0,0.0,0.0,0.0,0.0,0.0,0.0,0.0,0.0,0.0,0.0,0.0,0.0,0.0,0.0,0.0,0.0,0.0,0.0,0.0,0.0,0.0,0.0,0.0,0.0,0.0,0.0,0.0,0.0,0.0,0.0,0.0,0.0,0.0,0.0,0.0,0.0,0.0,0.0,0.0,0.0,0.0,0.0,0.0,0.0,0.0,0.0,0.0,0.0,0.0,0.0,0.0,0.0,0.0,0.0,0.0,0.0,0.0,0.0,0.0,0.0,0.0,0.0,0.0,0.0,0.0,0.0,0.0,0.0,0.0,0.0,0.0,0.0,0.0,0.0,0.0,0.0,0.0,0.0,0.0,0.0,0.0,0.0,0.0,0.0,0.0,0.0,0.0,0.0,0.0,0.0,0.0,0.0,0.0,0.0,0.0,0.0,0.0,0.0,0.0,0.0,0.0,0.0,0.0,0.0,0.0,0.0,0.0,0.0,0.0,0.0,0.0,0.0,0.0,0.0,0.0,0.0,0.0,0.0,0.0,0.0,0.0,0.0,0.0,0.0,0.0,0.0,0.0,0.0,0.0,0.0,0.0,0.0,0.0,0.0,0.0,0.0,0.0,0.0,0.0,0.0,0.0,0.0,0.0,0.0,0.0,0.0,0.0,0.0,0.0,0.0,0.0,0.0,0.0,0.0,0.0,0.0,0.0,0.0,0.0,0.0,0.0,0.0,0.0,0.0,0.0,0.0,0.0,0.0,0.0,0.0,0.0,0.0,0.0,0.0,0.0,0.0,0.0,0.0,0.0,0.0,0.0,0.0,0.0,0.0,0.0,0.0,0.0,0.0,0.0,0.0,0.0,0.0,0.0,0.0,0.0,0.0,0.0,0.0,0.0,0.0,0.0,0.0,0.0,0.0,0.0,0.0,0.0,0.0,0.0,0.0,0.0,0.0,0.0,0.0,0.0,0.0,0.0,0.0,0.0,0.0,0.0,0.0,0.0,0.0,0.0,0.0,0.0,0.0,0.0,0.0,0.0,0.0,0.0,0.0,0.0,0.0,0.0,0.0,0.0,0.0,0.0,0.0,0.0,0.0,0.0,0.0,0.0,0.0,0.0,0.0,0.0,0.0,0.0,0.0,0.0,0.0,0.0,0.0,0.0,0.0,0.0,0.0,0.0,0.0,0.0,0.0,0.0,0.0,0.0,0.0,0.0,0.0,0.0,0.0,0.0,0.0,0.0,0.0,0.0,0.0,0.0,0.0,0.0,0.0,0.0,0.0,0.0,0.0,0.0,0.0,0.0,0.0,0.0,0.0,0.0,0.0,0.0,0.0,0.0,0.0,0.0,0.0,0.0,0.0,0.0,0.0,0.0,0.0,0.0,0.0,0.0,0.0,0.0,0.0,0.0,0.0,0.0,0.0,0.0,0.0,0.0,0.0,0.0,0.0,0.0,0.0,0.0,0.0,0.0,0.0,0.0,0.0,0.0,0.0,0.0,0.0,0.0,0.0,0.0,0.0,0.0,0.0,0.0,0.0,0.0,0.0,0.0,0.0,0.0,0.0,0.0,0.0,0.0,0.0,0.0,0.0,0.0,0.0,0.0,0.0,0.0,0.0,0.0,0.0,0.0,0.0,0.0,0.0,0.0,0.0,0.0,0.0,0.0,0.0,0.0,0.0,0.0,0.0,0.0,0.0,0.0,0.0,0.0,0.0,0.0,0.0,0.0,0.0,0.0,0.0,0.0,0.0,0.0,0.0,0.0,0.0,0.0,0.0,0.0,0.0,0.0,0.0,0.0,0.0,0.0,0.0,0.0,0.0,0.0,0.0,0.0,0.0,0.0,0.0,0.0,0.0,0.0,0.0,0.0,0.0,0.0,0.0,0.0,0.0,0.0,0.0,0.0,0.0,0.0,0.0,0.0,0.0,0.0,0.0,0.0,0.0,0.0,0.0,0.0,0.0,0.0,0.0,0.0,0.0,0.0,0.0,0.0,0.0,0.0,0.0,0.0,0.0,0.0,0.0,0.0,0.0,0.0,0.0,0.0,0.0,0.0,0.0,0.0,0.0,0.0,0.0,0.0,0.0,0.0,0.0,0.0,0.0,0.0,0.0,0.0,0.0,0.0,0.0,0.0,0.0,0.0,0.0,0.0,0.0,0.0,0.0,0.0,0.0,0.0,0.0,0.0,0.0,0.0,0.0,0.0,0.0,0.0,0.0,0.0,0.0,0.0,0.0,0.0,0.0,0.0,0.0,0.0,0.0,0.0,0.0,0.0,0.0,0.0,0.0,0.0,0.0,0.0,0.0,0.0,0.0,0.0,0.0,0.0,0.0,0.0,0.0,0.0,0.0,0.0,0.0,0.0,0.0,0.0,0.0,0.0,0.0,0.0,0.0,0.0,0.0,0.0,0.0,0.0,0.0,0.0,0.0,0.0,0.0,0.0,0.0,0.0,0.0,0.0,0.0,0.0,0.0,0.0,0.0,0.0,0.0,0.0,0.0,0.0,0.0,0.0,0.0,0.0,0.0,0.0,0.0,0.0,0.0,0.0,0.0,0.0,0.0,0.0,0.0,0.0,0.0,0.0,0.0,0.0,0.0,0.0,0.0,0.0,0.0,0.0,0.0,0.0,0.0,0.0,0.0,0.0,0.0,0.0,0.0,0.0,0.0,0.0,0.0,0.0,0.0,0.0,0.0,0.0,0.0,0.0,0.0,0.0,0.0,0.0,0.0,0.0,0.0,0.0,0.0,0.0,0.0,0.0,0.0,0.0,0.0,0.0,0.0,0.0,0.0,0.0,0.0,0.0,0.0,0.0,0.0,0.0,0.0,0.0,0.0,0.0,0.0,0.0,0.0,0.0,0.0,0.0,0.0,0.0,0.0,0.0,0.0,0.0,0.0,0.0,0.0,0.0,0.0,0.0,0.0,0.0,0.0,0.0,0.0,0.0,0.0,0.0,0.0,0.0,0.0,0.0,0.0,0.0,0.0,0.0,0.0,0.0,0.0,0.0,0.0,0.0,0.0,0.0,0.0,0.0,0.0,0.0,0.0,0.0,0.0,0.0,0.0,0.0,0.0,0.0,0.0,0.0,0.0,0.0,0.0,0.0,0.0,0.0,0.0,0.0,0.0,0.0,0.0,0.0,0.0,0.0,0.0,0.0,0.0,0.0,0.0,0.0,0.0,0.0,0.0,0.0,0.0,0.0,0.0,0.0,0.0,0.0,0.0,0.0,0.0,0.0,0.0,0.0,0.0,0.0,0.0,0.0,0.0,0.0,0.0,0.0,0.0,0.0,0.0,0.0,0.0,0.0,0.0,0.0,0.0,0.0,0.0,0.0,0.0,1.6896,0.0,0.0,0.0,0.0,0.0,0.0,0.0,0.0,0.0,0.0,0.0,0.0,0.0,0.0,0.0,0.0,0.0,0.0,0.0,0.0,0.0,0.0,0.0,0.0,0.0,0.0,0.0,0.0,0.0,0.0,0.0,0.0,0.0,0.0,0.0,0.0,0.0,0.0,0.0,0.0,0.0,0.0,0.0,0.0,0.0,0.0,0.0,0.0,0.0,0.0,0.0,0.0,0.0,0.0,0.0,0.0,0.0,0.0,0.0,0.0,0.0,0.0,0.0,0.0,0.0,0.0,0.0,0.0,0.0,0.0,0.0,0.0,0.0,0.0,0.0,0.0,0.0,0.0,0.0,0.0,0.0,0.0,0.0,0.0,0.0,0.0,0.0,0.0,0.0,0.0,0.0,0.0,0.0,0.0,0.0,0.0,0.0,0.0,0.0,0.0,0.0,0.0,0.0,0.0,0.0,0.0,0.0,0.0,0.0,0.0,1.9069,1.8878,1.8612,1.7942,1.6904,0.0,0.0,0.0,0.0,0.0,0.0,0.0,0.0,0.0,0.0,0.0,0.0,0.0,0.0,0.0,0.0,0.0,0.0,0.0,0.0,0.0,0.0,0.0,0.0,0.0,0.0,0.0,0.0,0.0,0.0,0.0,0.0,0.0,0.0,0.0,0.0,0.0,0.0,0.0,0.0,0.0,0.0,0.0,0.0,0.0,0.0,0.0,0.0,0.0,0.0,0.0,0.0,0.0,0.0,0.0,0.0,0.0,0.0,0.0,0.0,0.0,0.0,0.0,0.0,0.0,0.0,0.0,0.0,0.0,0.0,0.0,0.0,0.0,0.0,0.0,0.0,0.0,0.0,0.0,0.0,0.0,0.0,0.0,0.0,0.0,0.0,0.0,0.0,0.0,0.0,0.0,0.0,0.0,0.0,0.0,0.0,0.0,0.0,0.0,0.0,0.0,0.0,0.0,0.0,0.0,0.0,0.0,0.0,0.0,0.0,0.0,0.0,1.8496,1.7723,1.6441,0.0,0.0,0.0,0.0,0.0,0.0,0.0,0.0,0.0,0.0,0.0,0.0,0.0,0.0,0.0,0.0,0.0,0.0,0.0,0.0,0.0,0.0,0.0,0.0,0.0,0.0,0.0,0.0,0.0,0.0,0.0,0.0,0.0,0.0,0.0,0.0,0.0,0.0,0.0,0.0,0.0,0.0,0.0,0.0,0.0,0.0,0.0,0.0,0.0,0.0,0.0,0.0,0.0,0.0,0.0,0.0,0.0,0.0,0.0,0.0,0.0,0.0,0.0,0.0,0.0,0.0,0.0,0.0,0.0,0.0,0.0,0.0,0.0,0.0,0.0,0.0,0.0,0.0,0.0,0.0,0.0,0.0,0.0,0.0,0.0,0.0,0.0,0.0,0.0,0.0,0.0,0.0,0.0,0.0,0.0,0.0,0.0,0.0,0.0,0.0,0.0,0.0,0.0,0.0,0.0,0.0,0.0,0.0,0.0,0.0,1.878,1.8706,1.8328,0.0,1.5377,0.0,0.0,0.0,0.0,0.0,0.0,0.0,0.0,0.0,0.0,0.0,0.0,0.0,0.0,0.0,0.0,0.0,0.0,0.0,0.0,0.0,0.0,0.0,0.0,0.0,0.0,0.0,0.0,0.0,0.0,0.0,0.0,0.0,0.0,0.0,0.0,0.0,0.0,0.0,0.0,0.0,0.0,0.0,0.0,0.0,0.0,0.0,0.0,0.0,0.0,0.0,0.0,0.0,0.0,0.0,0.0,0.0,0.0,0.0,0.0,0.0,0.0,0.0,0.0,0.0,0.0,0.0,0.0,0.0,0.0,0.0,0.0,0.0,0.0,0.0,0.0,0.0,0.0,0.0,0.0,0.0,0.0,0.0,0.0,0.0,0.0,0.0,0.0,0.0,0.0,0.0,0.0,0.0,0.0,0.0,0.0,0.0,0.0,0.0,0.0,0.0,0.0,0.0,0.0,0.0,0.0,0.0,0.0,0.0,0.0,0.0,1.8535,1.7984,1.682,0.0,0.0,0.0,0.0,0.0,0.0,0.0,0.0,0.0,0.0,0.0,0.0,0.0,0.0,0.0,0.0,0.0,0.0,0.0,0.0,0.0,0.0,0.0,0.0,0.0,0.0,0.0,0.0,0.0,0.0,0.0,0.0,0.0,0.0,0.0,0.0,0.0,0.0,0.0,0.0,0.0,0.0,0.0,0.0,0.0,0.0,0.0,0.0,0.0,0.0,0.0,0.0,0.0,0.0,0.0,0.0,0.0,0.0,0.0,0.0,0.0,0.0,0.0,0.0,0.0,0.0,0.0,0.0,0.0,0.0,0.0,0.0,0.0,0.0,0.0,0.0,0.0,0.0,0.0,0.0,0.0,0.0,0.0,0.0,0.0,0.0,0.0,0.0,0.0,0.0,0.0,0.0,0.0,0.0,0.0,0.0,0.0,0.0,0.0,0.0,0.0,0.0,0.0,0.0,0.0,0.0,0.0,0.0,0.0,0.0,1.8715,0.0,1.8154,1.7641,1.6601,1.5026,0.0,0.0,0.0,0.0,0.0,0.0,0.0,0.0,0.0,0.0,0.0,0.0,0.0,0.0,0.0,0.0,0.0,0.0,0.0,0.0,0.0,0.0,0.0,0.0,0.0,0.0,0.0,0.0,0.0,0.0,0.0,0.0,0.0,0.0,0.0,0.0,0.0,0.0,0.0,0.0,0.0,0.0,0.0,0.0,0.0,0.0,0.0,0.0,0.0,0.0,0.0,0.0,0.0,0.0,0.0,0.0,0.0,0.0,0.0,0.0,0.0,0.0,0.0,0.0,0.0,0.0,0.0,0.0,0.0,0.0,0.0,0.0,0.0,0.0,0.0,0.0,0.0,0.0,0.0,0.0,0.0,0.0,0.0,0.0,0.0,0.0,0.0,0.0,0.0,0.0,0.0,0.0,0.0,0.0,0.0,0.0,0.0,0.0,0.0,0.0,0.0,0.0,0.0,0.0,0.0,0.0,0.0,0.0,0.0,1.8544,1.8133,1.7587,1.7328,1.6629,0.0,0.0,0.0,0.0,0.0,0.0,0.0,0.0,0.0,0.0,0.0,0.0,0.0,0.0,0.0,0.0,0.0,0.0,0.0,0.0,0.0,0.0,0.0,0.0,0.0,0.0,0.0,0.0,0.0,0.0,0.0,0.0,0.0,0.0,0.0,0.0,0.0,0.0,0.0,0.0,0.0,0.0,0.0,0.0,0.0,0.0,0.0,0.0,0.0,0.0,0.0,0.0,0.0,0.0,0.0,0.0,0.0,0.0,0.0,0.0,0.0,0.0,0.0,0.0,0.0,0.0,0.0,0.0,0.0,0.0,0.0,0.0,0.0,0.0,0.0,0.0,0.0,0.0,0.0,0.0,0.0,0.0,0.0,0.0,0.0,0.0,0.0,0.0,0.0,0.0,0.0,0.0,0.0,0.0,0.0,0.0,0.0,0.0,0.0,0.0,0.0,0.0,0.0,0.0,0.0,0.0,0.0,0.0,0.0,1.8548,1.8205,1.7808,1.7383,1.6733,1.6031,0.0,0.0,0.0,0.0,0.0,0.0,0.0,0.0,0.0,0.0,0.0,0.0,0.0,0.0,0.0,0.0,0.0,0.0,0.0,0.0,0.0,0.0,0.0,0.0,0.0,0.0,0.0,0.0,0.0,0.0,0.0,0.0,0.0,0.0,0.0,0.0,0.0,0.0,0.0,0.0,0.0,0.0,0.0,0.0,0.0,0.0,0.0,0.0,0.0,0.0,0.0,0.0,0.0,0.0,0.0,0.0,0.0,0.0,0.0,0.0,0.0,0.0,0.0,0.0,0.0,0.0,0.0,0.0,0.0,0.0,0.0,0.0,0.0,0.0,0.0,0.0,0.0,0.0,0.0,0.0,0.0,0.0,0.0,0.0,0.0,0.0,0.0,0.0,0.0,0.0,0.0,0.0,0.0,0.0,0.0,0.0,0.0,0.0,0.0,0.0,0.0,0.0,0.0,0.0,0.0,0.0,0.0,0.0,0.0,1.8261,0.0,1.7549,0.0,1.6532,1.5799,0.0,0.0,0.0,0.0,0.0,0.0,0.0,0.0,0.0,0.0,0.0,0.0,0.0,0.0,0.0,0.0,0.0,0.0,0.0,0.0,0.0,0.0,0.0,0.0,0.0,0.0,0.0,0.0,0.0,0.0,0.0,0.0,0.0,0.0,0.0,0.0,0.0,0.0,0.0,0.0,0.0,0.0,0.0,0.0,0.0,0.0,0.0,0.0,0.0,0.0,0.0,0.0,0.0,0.0,0.0,0.0,0.0,0.0,0.0,0.0,0.0,0.0,0.0,0.0,0.0,0.0,0.0,0.0,0.0,0.0,0.0,0.0,0.0,0.0,0.0,0.0,0.0,0.0,0.0,0.0,0.0,0.0,0.0,0.0,0.0,0.0,0.0,0.0,0.0,0.0,0.0,0.0,0.0,0.0,0.0,0.0,0.0,0.0,0.0,0.0,0.0,0.0,0.0,0.0,0.0,0.0,0.0,0.0,1.7566,1.788,1.7633,1.7328,1.7018,1.6751,1.594,0.0,0.0,0.0,0.0,0.0,0.0,0.0,0.0,0.0,0.0,0.0,0.0,0.0,0.0,0.0,0.0,0.0,0.0,0.0,0.0,0.0,0.0,0.0,0.0,0.0,0.0,0.0,0.0,0.0,0.0,0.0,0.0,0.0,0.0,0.0,0.0,0.0,0.0,0.0,0.0,0.0,0.0,0.0,0.0,0.0,0.0,0.0,0.0,0.0,0.0,0.0,0.0,0.0,0.0,0.0,0.0,0.0,0.0,0.0,0.0,0.0,0.0,0.0,0.0,0.0,0.0,0.0,0.0,0.0,0.0,0.0,0.0,0.0,0.0,0.0,0.0,0.0,0.0,0.0,0.0,0.0,0.0,0.0,0.0,0.0,0.0,0.0,0.0,0.0,0.0,0.0,0.0,0.0,0.0,0.0,0.0,0.0,0.0,0.0,0.0,0.0,0.0,0.0,0.0,0.0,0.0,0.0,0.0,0.0,1.7616,1.7368,1.7093,1.685,1.6166,1.5493,0.0,0.0,0.0,0.0,0.0,0.0,0.0,0.0,0.0,0.0,0.0,0.0,0.0,0.0,0.0,0.0,0.0,0.0,0.0,0.0,0.0,0.0,0.0,0.0,0.0,0.0,0.0,0.0,0.0,0.0,0.0,0.0,0.0,0.0,0.0,0.0,0.0,0.0,0.0,0.0,0.0,0.0,0.0,0.0,0.0,0.0,0.0,0.0,0.0,0.0,0.0,0.0,0.0,0.0,0.0,0.0,0.0,0.0,0.0,0.0,0.0,0.0,0.0,0.0,0.0,0.0,0.0,0.0,0.0,0.0,0.0,0.0,0.0,0.0,0.0,0.0,0.0,0.0,0.0,0.0,0.0,0.0,0.0,0.0,0.0,0.0,0.0,0.0,0.0,0.0,0.0,0.0,0.0,0.0,0.0,0.0,0.0,0.0,0.0,0.0,0.0,0.0,0.0,0.0,0.0,0.0,0.0,0.0,0.0,1.7345,1.7167,1.696,1.6738,1.6085,1.5438,1.479,0.0,0.0,0.0,0.0,0.0,0.0,0.0,0.0,0.0,0.0,0.0,0.0,0.0,0.0,0.0,0.0,0.0,0.0,0.0,0.0,0.0,0.0,0.0,0.0,0.0,0.0,0.0,0.0,0.0,0.0,0.0,0.0,0.0,0.0,0.0,0.0,0.0,0.0,0.0,0.0,0.0,0.0,0.0,0.0,0.0,0.0,0.0,0.0,0.0,0.0,0.0,0.0,0.0,0.0,0.0,0.0,0.0,0.0,0.0,0.0,0.0,0.0,0.0,0.0,0.0,0.0,0.0,0.0,0.0,0.0,0.0,0.0,0.0,0.0,0.0,0.0,0.0,0.0,0.0,0.0,0.0,0.0,0.0,0.0,0.0,0.0,0.0,0.0,0.0,0.0,0.0,0.0,0.0,0.0,0.0,0.0,0.0,0.0,0.0,0.0,0.0,0.0,0.0,0.0,0.0,0.0,0.0,0.0,1.7083,1.7042,1.6858,1.6623,1.6394,1.5748,0.0,0.0,0.0,0.0,0.0,0.0,0.0,0.0,0.0,0.0,0.0,0.0,0.0,0.0,0.0,0.0,0.0,0.0,0.0,0.0,0.0,0.0,0.0,0.0,0.0,0.0,0.0,0.0,0.0,0.0,0.0,0.0,0.0,0.0,0.0,0.0,0.0,0.0,0.0,0.0,0.0,0.0,0.0,0.0,0.0,0.0,0.0,0.0,0.0,0.0,0.0,0.0,0.0,0.0,0.0,0.0,0.0,0.0,0.0,0.0,0.0,0.0,0.0,0.0,0.0,0.0,0.0,0.0,0.0,0.0,0.0,0.0,0.0,0.0,0.0,0.0,0.0,0.0,0.0,0.0,0.0,0.0,0.0,0.0,0.0,0.0,0.0,0.0,0.0,0.0,0.0,0.0,0.0,0.0,0.0,0.0,0.0,0.0,0.0,0.0,0.0,0.0,0.0,0.0,0.0,0.0,0.0,0.0,0.0,1.7031,1.6956,1.6787,1.6535,1.6336,1.5587,0.0,0.0,0.0,0.0,0.0,0.0,0.0,0.0,0.0,0.0,0.0,0.0,0.0,0.0,0.0,0.0,0.0,0.0,0.0,0.0,0.0,0.0,0.0,0.0,0.0,0.0,0.0,0.0,0.0,0.0,0.0,0.0,0.0,0.0,0.0,0.0,0.0,0.0,0.0,0.0,0.0,0.0,0.0,0.0,0.0,0.0,0.0,0.0,0.0,0.0,0.0,0.0,0.0,0.0,0.0,0.0,0.0,0.0,0.0,0.0,0.0,0.0,0.0,0.0,0.0,0.0,0.0,0.0,0.0,0.0,0.0,0.0,0.0,0.0,0.0,0.0,0.0,0.0,0.0,0.0,0.0,0.0,0.0,0.0,0.0,0.0,0.0,0.0,0.0,0.0,0.0,0.0,0.0,0.0,0.0,0.0,0.0,0.0,0.0,0.0,0.0,0.0,0.0,0.0,0.0,0.0,0.0,0.0,1.7048,1.6954,1.6887,1.6751,1.6554,1.6348,1.5541,0.0,0.0,0.0,0.0,0.0,0.0,0.0,0.0,0.0,0.0,0.0,0.0,0.0,0.0,0.0,0.0,0.0,0.0,0.0,0.0,0.0,0.0,0.0,0.0,0.0,0.0,0.0,0.0,0.0,0.0,0.0,0.0,0.0,0.0,0.0,0.0,0.0,0.0,0.0,0.0,0.0,0.0,0.0,0.0,0.0,0.0,0.0,0.0,0.0,0.0,0.0,0.0,0.0,0.0,0.0,0.0,0.0,0.0,0.0,0.0,0.0,0.0,0.0,0.0,0.0,0.0,0.0,0.0,0.0,0.0,0.0,0.0,0.0,0.0,0.0,0.0,0.0,0.0,0.0,0.0,0.0,0.0,0.0,0.0,0.0,0.0,0.0,0.0,0.0,0.0,0.0,0.0,0.0,0.0,0.0,0.0,0.0,0.0,0.0,0.0,0.0,0.0,0.0,0.0,0.0,0.0,0.0,0.0,1.6972,1.6905,1.6845,1.6751,1.6615,1.6429,1.5587,0.0,0.0,0.0,0.0,0.0,0.0,0.0,0.0,0.0,0.0,0.0,0.0,0.0,0.0,0.0,0.0,0.0,0.0,0.0,0.0,0.0,0.0,0.0,0.0,0.0,0.0,0.0,0.0,0.0,0.0,0.0,0.0,0.0,0.0,0.0,0.0,0.0,0.0,0.0,0.0,0.0,0.0,0.0,0.0,0.0,0.0,0.0,0.0,0.0,0.0,0.0,0.0,0.0,0.0,0.0,0.0,0.0,0.0,0.0,0.0,0.0,0.0,0.0,0.0,0.0,0.0,0.0,0.0,0.0,0.0,0.0,0.0,0.0,0.0,0.0,0.0,0.0,0.0,0.0,0.0,0.0,0.0,0.0,0.0,0.0,0.0,0.0,0.0,0.0,0.0,0.0,0.0,0.0,0.0,0.0,0.0,0.0,0.0,0.0,0.0,0.0,0.0,0.0,0.0,0.0,0.0,0.0,0.0,1.6988,1.6972,1.6988,1.6905,1.6755,1.6517,1.5658,0.0,0.0,0.0,0.0,0.0,0.0,0.0,0.0,0.0,0.0,0.0,0.0,0.0,0.0,0.0,0.0,0.0,0.0,0.0,0.0,0.0,0.0,0.0,0.0,0.0,0.0,0.0,0.0,0.0,0.0,0.0,0.0,0.0,0.0,0.0,0.0,0.0,0.0,0.0,0.0,0.0,0.0,0.0,0.0,0.0,0.0,0.0,0.0,0.5936,0.0,0.0,0.0,0.0,0.0,0.0,0.0,0.0,0.0,0.0,0.0,0.0,0.0,0.0,0.0,0.0,0.0,0.0,0.0,0.0,0.0,0.0,0.0,0.0,0.0,0.0,0.0,0.0,0.0,0.0,0.0,0.0,0.0,0.0,0.0,0.0,0.0,0.0,0.0,0.0,0.0,0.0,0.0,0.0,0.0,0.0,0.0,0.0,0.0,0.0,0.0,0.0,0.0,0.0,0.0,0.0,0.0,0.0,0.0,1.6954,1.7006,1.7006,1.6972,1.6889,1.6753,1.5908,0.0,0.0,0.0,0.0,0.0,0.0,0.0,0.0,0.0,0.0,0.0,0.0,0.0,0.0,0.0,0.0,0.0,0.0,0.0,0.0,0.0,0.0,0.0,0.0,0.0,0.0,0.0,0.0,0.0,0.0,0.0,0.0,0.0,0.0,0.0,0.0,0.0,0.0,0.0,0.0,0.0,0.0,0.0,0.0,0.0,0.0,0.0,0.0,0.0,0.0,0.0,0.0,0.0,0.0,0.0,0.0,0.0,0.0,0.0,0.0,0.0,0.0,0.0,0.0,0.0,0.0,0.0,0.0,0.0,0.0,0.0,0.0,0.0,0.0,0.0,0.0,0.0,0.0,0.0,0.0,0.0,0.0,0.0,0.0,0.0,0.0,0.0,0.0,0.0,0.0,0.0,0.0,0.0,0.0,0.0,0.0,0.0,0.0,0.0,0.0,0.0,0.0,0.0,0.0,0.0,0.0,0.0,1.6303,1.6751,1.7015,1.7031,1.7048,1.7048,1.705,1.6208,1.4491,0.0,0.0,0.0,0.0,0.0,0.0,0.0,0.0,0.0,0.0,0.0,0.0,0.0,0.0,0.0,0.0,0.0,0.0,0.0,0.0,0.0,0.0,0.0,0.0,0.0,0.0,0.0,0.0,0.0,0.0,0.0,0.0,0.0,0.0,0.0,0.0,0.0,0.0,1.0615,1.0516,0.0,0.0,0.0,0.0,0.0,0.0,0.0,0.0,0.631,0.0,0.0,0.0,0.0,0.0,0.0,0.0,0.0,0.0,0.0,0.0,0.0,0.0,0.0,0.0,0.0,0.0,0.0,0.0,0.0,0.0,0.0,0.0,0.0,0.0,0.0,0.0,0.0,0.0,0.0,0.0,0.0,0.0,0.0,0.0,0.0,0.0,0.0,0.0,0.0,0.0,0.0,0.0,0.0,0.0,0.0,0.0,0.0,0.0,0.0,0.0,0.0,0.0,0.0,0.0,0.0,1.5617,1.5799,1.6261,1.7068,1.7183,1.7257,1.7257,1.7208,1.6433,1.4964,0.0,0.0,0.0,0.0,0.0,0.0,0.0,0.0,0.0,0.0,0.0,0.0,0.0,0.0,0.0,0.0,0.0,0.0,0.0,0.0,0.0,0.0,0.0,0.0,0.0,0.0,0.0,0.0,0.0,0.0,0.0,0.0,0.0,0.0,0.0,0.0,0.0,0.0,0.0,1.0958,1.108,0.0,0.0,0.0,0.0,0.0,0.0,0.0,0.0,0.5192,0.0,0.0,0.0,0.0,0.0,0.0,0.0,0.0,0.0,0.0,0.0,0.0,0.0,0.0,0.0,0.0,0.0,0.0,0.0,0.0,0.0,0.0,0.0,0.0,0.0,0.0,0.0,0.0,0.0,0.0,0.0,0.0,0.0,0.0,0.0,0.0,0.0,0.0,0.0,0.0,0.0,0.0,0.0,0.0,0.0,0.0,0.0,0.0,0.0,0.0,0.0,0.0,0.0,0.0,0.0,1.5025,1.5472,1.6186,1.7158,1.7337,1.7401,1.74,1.7115,1.637,0.0,0.0,0.0,0.0,0.0,0.0,0.0,0.0,0.0,0.0,0.0,0.0,0.0,0.0,0.0,0.0,0.0,0.0,0.0,0.0,0.0,0.0,0.0,0.0,0.0,0.0,0.0,0.0,0.0,0.0,0.0,0.0,0.0,0.0,0.0,0.0,0.0,0.0,0.0,0.0,1.1818,1.1965,1.19,0.0,0.0,0.0,0.0,0.0,0.0,0.6517,0.5324,0.0,0.0,0.0,0.0,0.0,0.0,0.0,0.0,0.0,0.0,0.0,0.0,0.0,0.0,0.0,0.0,0.0,0.0,0.0,0.0,0.0,0.0,0.0,0.0,0.0,0.0,0.0,0.0,0.0,0.0,0.0,0.0,0.0,0.0,0.0,0.0,0.0,0.0,0.0,0.0,0.0,0.0,0.0,0.0,0.0,0.0,0.0,0.0,0.0,0.0,0.0,0.0,0.0,0.0,0.0,1.4493,1.5126,1.6076,1.7281,1.7479,1.7572,1.757,1.701,1.6298,0.0,0.0,0.0,0.0,0.0,0.0,0.0,0.0,0.0,0.0,0.0,0.0,0.0,0.0,0.0,0.0,0.0,0.0,0.0,0.0,0.0,0.0,0.0,0.0,0.0,0.0,0.0,0.0,0.0,0.0,0.0,0.0,0.0,0.0,0.0,0.0,0.0,0.0,0.0,0.0,0.0,1.2827,1.2505,1.2116,0.0,0.0,0.0,0.0,0.8016,0.6784,0.0,0.0,0.0,0.0,0.0,0.0,0.0,0.0,0.0,0.0,0.0,0.0,0.0,0.0,0.0,0.0,0.0,0.0,0.0,0.0,0.0,0.0,0.0,0.0,0.0,0.0,0.0,0.0,0.0,0.0,0.0,0.0,0.0,0.0,0.0,0.0,0.0,0.0,0.0,0.0,0.0,0.0,0.0,0.0,0.0,0.0,0.0,0.0,0.0,0.0,0.0,0.0,0.0,0.0,0.0,0.0,1.4423,1.4592,1.5568,1.7359,1.7689,1.778,1.7852,1.7152,1.6424,0.0,0.0,0.0,0.0,0.0,0.0,0.0,0.0,0.0,0.0,0.0,0.0,0.0,0.0,0.0,0.0,0.0,0.0,0.0,0.0,0.0,0.0,0.0,0.0,0.0,0.0,0.0,0.0,0.0,0.0,0.0,0.0,0.0,0.0,0.0,0.0,0.0,0.0,0.0,0.0,0.0,1.3415,1.3122,1.2647,1.2112,0.0,0.0,0.9544,0.8383,0.6996,0.0,0.0,0.0,0.0,0.0,0.0,0.0,0.0,0.0,0.0,0.0,0.0,0.0,0.0,0.0,0.0,0.0,0.0,0.0,0.0,0.0,0.0,0.0,0.0,0.0,0.0,0.0,0.0,0.0,0.0,0.0,0.0,0.0,0.0,0.0,0.0,0.0,0.0,0.0,0.0,0.0,0.0,0.0,0.0,0.0,0.0,0.0,0.0,0.0,0.0,0.0,0.0,0.0,0.0,0.0,1.2492,1.436,1.4485,1.5533,1.7593,1.7858,1.7988,1.8052,1.6986,1.6248,0.0,0.0,0.0,0.0,0.0,0.0,0.0,0.0,0.0,0.0,0.0,0.0,0.0,0.0,0.0,0.0,0.0,0.0,0.0,0.0,0.0,0.0,0.0,0.0,0.0,0.0,0.0,0.0,0.0,0.0,0.0,0.0,0.0,0.0,0.0,0.0,0.0,0.0,0.0,0.0,0.0,0.0,1.3936,1.3415,0.0,0.0,0.0,0.9898,0.8761,0.0,0.0,0.0,0.0,0.0,0.0,0.0,0.0,0.0,0.0,0.0,0.0,0.0,0.0,0.0,0.0,0.0,0.0,0.0,0.0,0.0,0.0,0.0,0.0,0.0,0.0,0.0,0.0,0.0,0.0,0.0,0.0,0.0,0.0,0.0,0.0,0.0,0.0,0.0,0.0,0.0,0.0,0.0,0.0,0.0,0.0,0.0,0.0,0.0,0.0,0.0,0.0,0.0,0.0,0.0,0.0,0.0,1.4338,1.4447,1.5582,1.7783,1.8091,1.8104,1.7934,1.677,0.0,0.0,0.0,0.0,0.0,0.0,0.0,0.0,0.0,0.0,0.0,0.0,0.0,0.0,0.0,0.0,0.0,0.0,0.0,0.0,0.0,0.0,0.0,0.0,0.0,0.0,0.0,1.0487,0.0,0.0,0.0,0.0,0.0,0.0,0.0,0.0,0.0,0.0,0.0,0.0,0.0,0.0,1.5181,1.4737,1.4228,1.3636,0.0,0.0,1.0518,0.924,0.7606,0.5892,0.0,0.0,0.0,0.0,0.0,0.0,0.0,0.0,0.0,0.0,0.0,0.0,0.0,0.0,0.0,0.0,0.0,0.0,0.0,0.0,0.0,0.0,0.0,0.0,0.0,0.0,0.0,0.0,0.0,0.0,0.0,0.0,0.0,0.0,0.0,0.0,0.0,0.0,0.0,0.0,0.0,0.0,0.0,0.0,0.0,0.0,0.0,0.0,0.0,0.0,0.0,0.0,0.0,0.0,0.0,1.4304,1.4412,1.5587,1.7971,1.8284,1.8017,1.7282,1.6624,1.5885,0.0,0.0,0.0,0.0,0.0,0.0,0.0,0.0,0.0,0.0,0.0,0.0,0.0,0.0,0.0,0.0,0.0,0.0,0.0,0.0,0.0,0.0,0.0,0.0,0.0,0.0,0.0,0.0,0.0,0.0,0.0,0.0,0.0,0.0,0.0,0.0,0.0,0.0,0.0,0.0,0.0,1.5864,1.5513,1.4949,1.4441,0.0,0.0,1.1375,1.002,0.8335,0.6529,0.4502,0.0,0.0,0.0,0.0,0.0,0.0,0.0,0.0,0.0,0.0,0.0,0.0,0.0,0.0,0.0,0.0,0.0,0.0,0.0,0.0,0.0,0.0,0.0,0.0,0.0,0.0,0.0,0.0,0.0,0.0,0.0,0.0,0.0,0.0,0.0,0.0,0.0,0.0,0.0,0.0,0.0,0.0,0.0,0.0,0.0,0.0,0.0,0.0,0.0,0.0,0.0,0.0,0.0,1.1619,1.4231,1.4231,1.5525,1.81,1.8437,1.8395,1.8123,1.7028,1.6228,0.0,0.0,0.0,0.0,0.0,0.0,0.0,0.0,0.0,0.0,0.0,0.0,0.0,0.0,0.0,0.0,0.0,0.0,0.0,0.0,0.0,0.0,0.0,0.0,0.0,0.0,0.0,0.0,1.2813,1.3259,1.4169,0.0,0.0,0.0,0.0,0.0,0.0,0.0,0.0,0.0,0.0,1.6612,1.6064,1.5478,0.0,0.0,1.2931,1.1576,1.0204,0.8449,0.6501,0.4647,0.3255,0.0,0.0,0.0,0.0,0.0,0.0,0.0,0.0,0.0,0.0,0.0,0.0,0.0,0.0,0.0,0.0,0.0,0.0,0.0,0.0,0.0,0.0,0.0,0.0,0.0,0.0,0.0,0.0,0.0,0.0,0.0,0.0,0.0,0.0,0.0,0.0,0.0,0.0,0.0,0.0,0.0,0.0,0.0,0.0,0.0,0.0,0.0,0.0,0.0,0.0,0.0,0.0,1.1815,1.4148,1.46,1.5977,1.8332,1.8565,1.8554,1.836,1.7172,1.6353,0.0,0.0,0.0,0.0,0.0,0.0,0.0,0.0,0.0,0.0,0.0,0.0,0.0,0.0,0.0,0.0,0.0,0.0,0.0,0.0,0.0,0.0,0.0,0.0,0.0,0.0,0.0,0.0,1.3745,1.4424,1.5269,0.0,0.0,0.0,0.0,0.0,0.0,0.0,0.0,0.0,0.0,1.7186,1.6527,1.5826,1.5153,1.4526,1.3157,1.1776,1.0468,0.8612,0.6737,0.4833,0.0,0.0,0.0,0.0,0.0,0.0,0.0,0.0,0.0,0.0,0.0,0.0,0.0,0.0,0.0,0.0,0.0,0.0,0.0,0.0,0.0,0.0,0.0,0.0,0.0,0.0,0.0,1.5812,0.0,0.0,1.5334,0.0,0.0,0.0,0.0,0.0,0.0,0.0,0.0,0.0,0.0,0.0,0.0,0.0,0.0,0.0,0.0,0.0,0.0,0.0,0.0,0.0,0.0,1.2665,1.4118,1.5622,1.7121,1.854,1.8723,1.844,1.769,1.6894,1.611,1.5236,0.0,0.0,0.0,0.0,0.0,0.0,0.0,0.0,0.0,0.0,0.0,0.0,0.0,0.0,0.0,0.0,0.0,0.0,0.0,0.0,0.0,0.0,0.0,0.0,0.0,0.0,1.3997,1.4735,1.5639,0.0,0.0,0.0,0.0,0.0,0.0,0.0,0.0,0.0,0.0,1.8055,1.7631,1.6886,1.6077,1.5378,1.4908,1.349,1.204,1.0832,0.911,0.7207,0.0,0.0,0.0,0.0,0.0,0.0,0.0,0.0,0.0,0.0,0.0,0.0,0.0,0.0,0.0,0.0,0.0,0.0,0.0,0.0,0.0,0.0,0.0,0.0,0.0,0.0,0.0,1.742,1.7374,0.0,0.0,0.0,0.0,0.0,0.0,0.0,0.0,0.0,0.0,0.0,1.6198,1.5158,0.0,0.0,0.0,0.0,0.0,0.0,0.0,0.0,0.0,0.0,0.0,0.0,1.2924,1.5506,1.6076,1.7074,1.8599,1.8742,1.869,1.8458,1.7196,1.5773,1.4265,0.0,0.0,0.0,0.0,0.0,0.0,0.0,0.0,0.0,0.0,0.0,0.0,0.0,0.0,0.0,0.0,0.0,0.0,0.0,0.0,0.0,0.0,0.0,0.0,0.0,1.396,0.0,0.0,0.0,0.0,0.0,0.0,0.0,0.0,0.0,0.0,0.0,1.9117,1.8853,1.8319,1.7659,1.6889,1.5934,1.4963,0.0,0.0,0.0,0.0,0.0,0.0,0.0,0.0,0.0,0.0,0.0,0.0,0.0,0.0,-0.7236,-0.8245,-0.9423,-1.0471,-1.1225,0.0,0.0,0.0,0.0,0.0,0.0,0.0,0.0,0.0,0.0,0.0,0.0,0.0,0.0,1.8225,0.0,1.8061,0.0,0.0,0.0,0.0,0.0,0.0,0.0,0.0,1.5362,1.4692,1.4842,1.3697,1.322,0.0,1.2686,1.2888,0.0,0.0,0.0,0.0,0.0,0.0,0.0,0.0,1.4193,1.6317,1.6852,1.7606,1.8681,1.8779,1.8833,1.8825,1.7247,1.5628,1.4069,1.3506,1.3114,0.0,0.0,0.0,0.0,0.0,0.0,0.0,0.0,0.0,0.0,0.0,0.0,0.0,0.0,0.0,0.0,0.0,0.0,0.0,0.0,0.0,0.0,0.0,1.465,0.0,0.0,0.0,0.0,0.0,0.0,0.0,0.0,0.0,2.0042,1.9775,1.942,1.9079,1.8383,1.7679,1.7054,0.0,0.0,0.0,0.0,0.0,0.0,0.0,0.6155,0.4605,0.3327,0.188,-0.0,-0.1813,-0.3356,-0.4417,0.0,0.0,-0.8353,-0.9697,-1.0847,-1.1756,-1.2856,-1.3924,-1.4805,-1.5543,-1.6358,0.0,0.0,0.0,0.0,0.0,0.0,0.0,0.0,1.8394,1.8347,0.0,1.8327,0.0,0.0,0.0,0.0,0.0,1.634,0.0,0.0,1.3961,1.3354,1.3692,1.3226,1.3211,1.3415,1.1491,1.0609,1.0709,1.0847,0.0,0.0,0.0,0.0,0.0,0.0,1.6353,1.6542,1.7918,1.8716,1.8788,1.8797,1.877,1.8689,1.7047,1.5671,1.4623,1.3663,1.2977,1.2602,1.2324,0.0,0.0,0.0,0.0,0.0,0.0,0.0,0.0,0.0,0.0,0.0,0.0,0.0,0.0,0.0,0.0,0.0,0.0,0.0,0.0,1.4443,0.0,0.0,0.0,0.0,0.0,0.0,0.0,0.0,0.0,0.0,2.041,1.9995,1.9486,1.8975,0.0,0.0,0.0,0.0,1.3942,1.2369,1.1223,1.006,0.8759,0.7267,0.5727,0.4286,0.0,0.0,-0.0939,-0.2081,-0.3021,-0.4087,-0.5214,-0.6597,-0.8166,-0.9643,-1.1045,-1.2035,-1.3187,-1.4227,-1.5153,-1.5877,-1.6645,1.2455,0.0,0.0,0.0,0.0,1.6081,1.6824,1.8064,1.795,1.8661,1.9899,1.9803,0.0,0.0,0.0,0.0,0.0,0.0,1.6112,1.4708,1.2959,1.2174,1.2248,1.0863,1.0236,1.0305,0.9848,0.9609,0.9645,0.9677,1.0158,1.1024,0.0,0.0,0.0,0.0,1.6728,1.7978,1.8413,1.8629,1.865,1.8666,1.8334,1.7694,1.7072,1.6009,1.4503,1.3993,1.3352,1.2507,1.2164,0.0,0.0,0.0,0.0,0.0,0.0,0.0,0.0,0.0,0.0,0.0,0.0,0.0,0.0,0.0,0.0,0.0,0.0,0.0,1.4196,1.5066,1.5816,0.0,0.0,0.0,0.0,0.0,0.0,0.0,0.0,0.0,2.0239,1.9818,1.9369,0.0,0.0,1.6921,1.6057,1.4549,1.2991,1.1462,1.0147,0.0,0.7502,0.6113,0.4895,0.3727,0.2235,0.0783,-0.0391,-0.1393,-0.2353,-0.3356,-0.4616,-0.5935,-0.7309,-0.8991,-1.0577,-1.1834,-1.2952,-1.3886,-1.4735,-1.5345,-1.5972,1.0581,1.2605,1.3454,1.4374,1.5213,1.5123,1.5722,1.678,1.6755,1.7397,1.8439,1.831,1.7958,1.7508,1.7986,0.0,0.0,0.0,1.4625,1.3354,1.1564,1.076,1.0789,0.9586,0.9112,0.923,0.9198,0.9179,0.9252,1.0109,1.1251,1.2569,0.0,0.0,1.6984,1.7469,1.8148,1.9079,1.9078,1.8889,1.8619,1.8533,1.8147,1.7512,1.7058,1.6258,1.5048,1.4508,1.3738,1.2654,1.2327,1.1866,0.0,0.0,0.0,0.0,0.0,0.0,0.0,0.0,0.0,0.0,0.0,1.2071,0.0,0.0,0.0,0.0,1.3613,1.4033,1.4652,1.5391,0.0,0.0,0.0,0.0,0.0,0.0,0.0,2.0753,2.0561,2.0285,1.9816,1.9295,1.8824,1.8447,1.7422,1.6268,1.4999,0.0,1.2118,1.0167,0.9126,0.8032,0.6498,0.5353,0.4231,0.2882,0.1626,0.0507,-0.019,-0.1029,-0.1884,-0.2921,-0.4014,-0.5291,-0.6504,-0.8072,-0.9726,-1.1297,-1.2377,-1.3207,-1.4053,-1.4775,-1.5388,0.958,0.9964,1.1683,1.3615,1.5434,1.5068,1.4977,1.5066,1.5193,1.5292,1.5379,1.5237,1.5147,1.5078,1.489,0.0,1.4461,1.3016,1.2177,1.1739,1.0049,0.9466,0.9706,0.9305,0.9284,0.9638,0.9379,0.9268,0.9514,1.1543,1.3512,1.5238,1.3642,1.4747,1.8468,1.9746,2.0153,1.9891,1.9794,1.9386,1.8654,1.8383,1.8137,1.7875,1.7069,1.6403,1.591,1.5073,1.4163,1.3091,1.2772,1.2168,1.1203,0.0,0.0,0.0,0.0,0.0,0.0,0.0,0.0,0.0,0.0,0.0,0.0,0.0,0.0,0.0,1.3679,0.0,1.5094,1.555,0.0,0.0,0.0,1.9186,2.0078,2.0334,2.0441,2.043,0.0,0.0,1.9272,1.8513,1.794,1.7653,1.6802,1.5622,1.4109,1.286,1.1239,0.8916,0.8217,0.7379,0.5725,0.4687,0.3589,0.2058,0.1166,0.0492,-0.0123,-0.0803,-0.1602,-0.2532,-0.3502,-0.4541,-0.5691,-0.7019,-0.8401,-1.0373,-1.1472,-1.2393,-1.3272,-1.4164,-1.493,0.9677,1.023,1.109,1.1751,1.2241,1.2325,1.3271,1.4663,1.4703,1.5542,1.6934,1.687,1.6802,1.6697,1.6001,1.5077,1.4019,1.4207,1.3062,1.0877,1.0368,1.0175,1.0132,0.9899,0.9907,1.0132,1.0163,1.027,1.0475,1.233,1.4387,1.6494,1.6863,1.8155,2.0298,2.0915,2.0952,2.0482,2.0366,1.9894,1.8986,1.8335,1.7866,1.7587,1.7234,1.6645,1.5774,1.5364,1.4802,1.4069,1.3421,1.2837,1.2319,1.1986,0.0,0.0,0.0,0.0,0.0,0.0,0.0,0.0,0.0,1.264,1.2826,0.0,1.3163,0.0,1.3868,1.4493,1.4934,1.6061,0.0,0.0,1.8528,1.9243,1.9767,1.9854,1.9861,1.9762,1.9427,1.8975,1.8457,1.774,1.6954,1.6071,1.5484,1.4682,1.338,1.2038,1.0531,0.8808,0.7732,0.6627,0.5105,0.3531,0.2444,0.1893,0.1232,0.0715,0.0298,-0.0425,-0.1234,-0.1971,-0.2888,-0.3922,-0.5127,-0.6162,-0.7292,-0.8723,-1.0324,-1.1738,-1.2485,-1.3365,-1.4043,0.9832,1.0419,1.0926,1.1226,1.1368,1.1673,1.2437,1.3486,1.3506,1.4156,1.5174,1.5014,1.4891,1.479,1.4302,1.3588,1.2741,1.3162,1.2394,1.0702,1.0683,1.0636,1.0474,1.0518,1.0514,1.0569,1.0773,1.1299,1.2205,1.4145,1.6138,1.8166,1.9673,2.0861,2.1674,2.1925,2.1697,2.0999,2.051,1.998,1.9377,1.8548,1.801,1.7707,1.7172,1.6604,1.5991,1.5618,1.5216,1.4696,1.3902,1.3207,1.26,1.2253,1.2095,0.0,0.0,0.0,0.0,0.0,0.0,0.0,0.0,0.0,0.0,0.0,1.3124,1.3442,1.3928,1.4556,1.5336,1.6213,1.6989,1.7615,1.8289,1.8793,1.9117,1.9199,1.9102,1.8885,1.8612,1.8178,1.749,1.6773,1.5909,1.4914,1.413,1.3333,1.2473,1.1208,0.9843,0.837,0.7272,0.5982,0.4286,0.2791,0.1849,0.1573,0.1083,0.0634,0.0404,-0.0117,-0.077,-0.1479,-0.2303,-0.324,-0.4347,-0.5321,-0.6318,-0.7613,-0.908,-1.0539,-1.1601,-1.2526,-1.3342,0.9984,1.0573,1.0968,1.1368,1.1773,1.2071,1.2175,1.2175,1.2283,1.2323,1.2332,1.2076,1.1877,1.1778,1.1778,1.1628,1.1368,1.1318,1.1221,1.0972,1.0981,1.0926,1.082,1.1078,1.112,1.1023,1.1276,1.2208,1.3735,1.6019,1.7883,1.9357,2.1585,2.2694,2.2552,2.2582,2.2237,2.1473,2.0542,1.9971,1.9768,1.8933,1.8329,1.8034,1.7078,1.6491,1.6275,1.5815,1.5374,1.5008,1.4251,1.3498,1.2642,1.2308,1.225,0.0,1.2335,0.0,0.0,0.0,0.0,0.0,0.0,0.0,0.0,1.2828,1.3173,1.3902,1.4051,1.4581,1.5788,1.6129,1.6651,1.747,1.7801,1.804,1.8298,1.8369,1.8252,1.794,1.77,1.7244,1.6495,1.5702,1.488,1.4002,1.2908,1.1953,1.1312,1.036,0.9183,0.78,0.663,0.5167,0.3514,0.2404,0.1736,0.1346,0.0899,0.0449,0.0337,0.0112,-0.0281,-0.1012,-0.1802,-0.2581,-0.352,-0.4517,-0.5611,-0.6771,-0.8062,-0.9382,-1.0714,-1.1864,-1.2812,1.0186,1.0871,1.1276,1.1669,1.2081,1.2426,1.2529,1.2426,1.248,1.248,1.2426,1.2283,1.2224,1.2175,1.2076,1.1868,1.1619,1.1501,1.1355,1.1221,1.1508,1.1554,1.1372,1.1523,1.1623,1.1728,1.1882,1.2122,1.2508,1.5741,1.7444,1.7748,2.0816,2.2349,2.2268,0.0,0.0,0.0,2.0943,2.0409,2.0172,1.9341,1.8714,1.8326,1.7465,0.0,1.6071,1.5539,1.5015,1.4495,1.4339,0.0,0.0,0.0,0.0,0.0,0.0,0.0,0.0,0.0,0.0,0.0,1.2833,1.291,1.2597,1.2974,1.3528,1.4231,1.4697,1.5102,1.5422,1.5944,1.6462,1.6824,1.6993,1.714,1.7327,1.734,1.7188,1.6925,1.6459,1.6021,1.5487,1.4675,1.3794,1.2981,1.2007,1.1007,0.9965,0.9395,0.856,0.734,0.566,0.4125,0.3126,0.2406,0.1792,0.129,0.1009,0.0673,0.0449,0.0168,-0.0224,-0.0841,-0.1344,-0.2014,-0.3018,-0.4016,-0.5007,-0.6152,-0.7385,-0.8754,-1.0364,-1.162,-1.2711,1.0348,1.1023,1.1423,1.1873,0.0,1.2676,1.2866,1.2953,1.2808,1.272,1.2686,1.2632,1.2583,1.2578,1.2431,1.2278,1.2071,1.1963,1.1864,1.1823,1.2045,1.2099,1.1972,1.226,1.2309,1.2328,1.251,1.3021,1.3874,1.6256,1.7818,1.8612,2.0901,2.2028,2.1961,2.173,2.1623,2.1645,2.1105,2.0697,2.0423,1.9609,1.9053,1.8691,1.7757,0.0,0.0,0.0,0.0,0.0,0.0,0.0,0.0,0.0,0.0,1.3176,1.2984,1.2983,1.3101,1.2937,1.2939,1.3243,1.3394,1.3384,1.3197,1.3448,1.386,1.4475,1.4732,1.5012,1.5354,1.5656,1.5901,1.6107,1.6139,1.617,1.6311,1.6287,1.6077,1.5808,1.5416,1.496,1.4446,1.3648,1.2851,1.2178,1.122,1.0265,0.9399,0.8768,0.7919,0.6369,0.4944,0.3681,0.2909,0.2354,0.185,0.1347,0.1066,0.0841,0.0673,0.0561,0.0168,-0.0561,-0.1065,-0.168,-0.2683,-0.3572,-0.4512,-0.5771,-0.6956,-0.828,-0.9795,-1.1162,-1.2414,1.0565,1.1217,1.1573,1.2076,1.2573,1.2871,1.3147,1.3467,0.0,0.0,0.0,1.3022,1.3022,1.3017,1.2866,1.272,1.2618,1.252,1.2471,1.2417,1.2618,1.2666,1.272,1.2982,1.303,1.2963,1.3175,1.3962,1.5256,1.6602,1.8045,1.9577,2.082,2.1477,2.1576,2.1302,2.1199,2.1222,2.1087,2.0885,2.0556,1.9882,1.9387,1.911,1.8063,1.7272,1.6697,1.6543,1.6186,1.5523,1.5169,1.4684,1.4087,1.3841,1.3626,1.3457,1.3309,1.3344,1.3715,1.3403,1.3517,1.4093,1.4,1.3912,1.3982,1.3994,1.4205,1.4695,1.4618,1.4754,1.5281,1.5204,1.5204,1.5418,1.5311,1.5248,1.5326,1.5192,1.4977,1.4663,1.4324,1.393,1.3426,1.2652,1.1972,1.1392,1.0529,0.9551,0.8813,0.8078,0.7114,0.5447,0.4345,0.3566,0.2854,0.2355,0.1852,0.1347,0.1122,0.0953,0.0897,0.0897,0.0505,-0.028,-0.0841,-0.1513,-0.2403,-0.3182,-0.4177,-0.5441,-0.6637,-0.7862,-0.928,-1.0712,-1.207,1.1043,1.1477,1.1873,1.2283,1.2676,1.304,1.3467,1.3873,1.3626,1.3525,1.3483,1.352,1.3472,1.3478,1.3372,1.3228,1.3127,1.3069,1.3021,1.2924,1.3122,1.3319,1.3425,1.352,1.3605,1.3789,1.3763,1.3886,1.433,1.5631,1.6885,1.8067,1.9344,2.0423,2.1105,2.1015,2.0852,2.0662,2.0711,2.0644,2.0429,2.0147,1.9846,1.9491,1.8604,1.8129,1.8158,1.7041,1.6342,1.6152,1.5841,1.5484,1.5048,1.4953,1.4784,1.4434,1.4389,1.4303,1.4208,1.3943,1.3965,1.4303,1.4324,1.4313,1.4247,1.4284,1.447,1.4812,1.4722,1.4682,1.4783,1.4651,1.4616,1.4708,1.461,1.4501,1.4387,1.4154,1.3909,1.3542,1.3006,1.2652,1.2384,1.1751,1.1099,1.0478,0.981,0.8984,0.7714,0.6858,0.6043,0.4958,0.4241,0.3519,0.2856,0.241,0.1962,0.1403,0.1291,0.1178,0.0953,0.0897,0.0673,0.0056,-0.0561,-0.1233,-0.2127,-0.2847,-0.3897,-0.5167,-0.6418,-0.7756,-0.9176,-1.0606,-1.1909,1.1651,1.2123,1.2489,1.2857,1.3253,1.3618,1.3941,1.4192,1.4244,1.4109,1.3815,1.3957,1.3994,1.3941,1.3842,1.3752,1.361,1.3647,1.36,1.3568,1.3752,1.3941,1.4145,1.4186,1.4274,1.4392,1.4455,1.4449,1.4536,1.5797,1.695,1.7879,1.9576,2.0635,2.0919,2.0827,2.0677,2.0392,2.0433,2.0373,2.0185,2.001,1.9726,1.945,1.8899,1.8597,1.8508,1.7682,1.704,1.6592,1.6291,1.5858,1.5235,1.5114,1.4954,1.4656,1.4617,1.4667,1.478,1.4701,1.4653,1.4663,1.4653,1.4575,1.4468,1.4601,1.4725,1.4806,1.4645,1.4547,1.4512,1.4244,1.4046,1.4051,1.3795,1.3595,1.3452,1.3165,1.288,1.2603,1.2197,1.1796,1.151,1.0897,1.0336,0.981,0.9089,0.7981,0.6807,0.6159,0.5614,0.4851,0.4135,0.3469,0.2802,0.241,0.2017,0.1515,0.1459,0.1347,0.1066,0.1009,0.0785,0.028,-0.0336,-0.0953,-0.1735,-0.2684,-0.3737,-0.4942,-0.6251,-0.7638,-0.911,-1.0948,-1.2648,1.2174,1.269,1.3097,1.3539,1.3967,1.421,1.4443,1.4636,1.4734,1.4586,1.4244,1.443,1.4425,1.4321,1.4321,1.4233,1.4156,1.4176,1.4176,1.4203,1.4368,1.4605,1.48,1.484,1.492,1.4943,1.5096,1.5085,1.506,1.5978,1.6939,1.798,1.9778,2.0692,2.0695,2.0644,2.0475,2.025,2.0185,2.0103,1.9919,1.9762,1.9552,1.9258,1.9085,1.8781,1.8464,1.8175,1.7704,1.6995,1.6731,1.6297,1.5672,1.5457,1.5293,1.5061,1.4987,1.5037,1.5223,1.5289,1.521,1.4909,1.4846,1.4771,1.4575,1.4686,1.4731,1.4667,1.44,1.4203,1.4098,1.3821,1.3578,1.3377,1.3074,1.2827,1.2579,1.226,1.1981,1.1782,1.1423,1.1011,1.0545,1.0127,0.9607,0.904,0.8143,0.7128,0.632,0.578,0.5236,0.4632,0.397,0.3416,0.2802,0.241,0.2073,0.1684,0.1515,0.1403,0.1178,0.1122,0.0897,0.028,-0.0336,-0.1009,-0.1623,-0.2627,-0.3793,-0.4944,-0.6251,-0.7747,-0.9625,-1.1602,-1.3389,1.2527,1.2848,1.3389,1.4125,1.4811,1.4695,1.4855,1.5141,1.4937,1.4805,1.4851,1.4754,1.4776,1.473,1.4667,1.4616,1.4575,1.4731,1.4731,1.4702,1.5034,1.5255,1.5424,1.5418,1.5507,1.5653,1.5558,1.5564,1.5591,1.5575,1.63,1.7764,1.8988,1.9873,2.0275,2.0346,2.0243,2.0033,1.9919,1.9805,1.9718,1.9647,1.945,1.9139,1.8898,1.8662,1.8351,1.8214,1.7955,1.7484,1.7327,1.7114,1.6757,1.6596,1.6377,1.6071,1.6034,1.5903,1.5525,1.5355,1.5159,1.4954,1.4869,1.4737,1.4471,1.4321,1.4274,1.4186,1.39,1.3662,1.3472,1.3238,1.3007,1.2818,1.2515,1.2278,1.1968,1.1519,1.1124,1.0871,1.0458,1.0047,0.9769,0.9406,0.8939,0.8137,0.7393,0.6647,0.5998,0.5397,0.4791,0.4242,0.3748,0.336,0.2802,0.241,0.2073,0.1683,0.1459,0.1347,0.1234,0.1009,0.0729,-0.0,-0.0729,-0.1457,-0.2127,-0.2961,-0.3958,-0.5164,-0.6571,-0.8171,-1.0535,-1.236,-1.3595,1.2966,1.3389,1.3839,1.4424,1.4982,1.516,1.543,1.567,1.5415,1.5432,1.5562,1.5263,1.5085,1.5091,1.5074,1.5034,1.5034,1.5249,1.5295,1.5198,1.5558,1.578,1.5925,1.5938,1.6076,1.6219,1.6132,1.6132,1.6216,1.6507,1.7148,1.804,1.899,1.9724,2.0252,2.0304,2.02,1.9998,1.9955,1.9856,1.964,1.9531,1.9384,1.9101,1.8898,1.8721,1.8535,1.8314,1.8029,1.7747,1.7528,1.7267,1.6918,1.6712,1.6448,1.62,1.6025,1.5703,1.5295,1.5153,1.4977,1.4743,1.4599,1.4403,1.428,1.4041,1.3795,1.3705,1.3536,1.3344,1.3271,1.2944,1.2622,1.2377,1.1977,1.1573,1.1226,1.0765,1.0352,1.0091,0.9729,0.9417,0.8991,0.8521,0.7937,0.7289,0.6696,0.6157,0.5563,0.5013,0.4463,0.3859,0.3469,0.3021,0.2633,0.2297,0.1961,0.1683,0.1628,0.1572,0.1178,0.0841,0.0393,-0.0393,-0.1233,-0.2017,-0.2749,-0.352,-0.4457,-0.571,-0.7676,-0.9629,-1.1408,-1.2764,-1.3726,1.3159,1.3781,1.4278,1.4841,1.5242,1.5484,1.5803,1.6043,1.5858,1.589,1.6182,1.5834,1.5643,1.5589,1.5506,1.5447,1.5441,1.5748,1.583,1.5736,1.6088,1.63,1.6399,1.6509,1.6588,1.668,1.6686,1.668,1.6693,1.7071,1.7592,1.8118,1.8783,1.9412,1.9935,2.0072,2.0061,1.9919,1.9919,1.9784,1.9574,1.9501,1.9339,1.9101,1.8905,1.876,1.8641,1.84,1.8156,1.7922,1.759,1.7267,1.6967,1.6644,1.6386,1.61,1.5754,1.5435,1.5114,1.4926,1.4737,1.4575,1.4291,1.4087,1.3994,1.3658,1.3372,1.3185,1.2987,1.2832,1.2939,1.2559,1.2229,1.1877,1.1372,1.0913,1.0506,1.0043,0.9618,0.928,0.8974,0.8672,0.8203,0.7616,0.7031,0.6596,0.6211,0.5716,0.5067,0.4574,0.4076,0.3524,0.302,0.2684,0.2464,0.2185,0.185,0.1683,0.1572,0.1403,0.1009,0.0505,-0.0112,-0.0953,-0.1793,-0.2517,-0.3076,-0.3904,-0.5218,-0.6566,-0.8472,-1.0513,-1.1765,-1.3016,-1.3956,1.3099,1.3631,1.4711,1.5352,1.583,1.5704,1.5949,1.64,1.6006,1.6092,1.6539,1.6526,1.6456,1.6326,1.5996,1.5766,1.5754,1.6138,1.6275,1.6194,1.6626,1.6827,1.6876,1.708,1.715,1.7157,1.715,1.7102,1.698,1.6846,1.71,1.7817,1.8134,1.8562,1.9228,1.9594,1.9702,1.9732,1.9726,1.9625,1.945,1.9538,1.942,1.9139,1.8912,1.8721,1.8549,1.8372,1.8168,1.7922,1.7659,1.7352,1.6996,1.6644,1.6306,1.583,1.5531,1.5261,1.5074,1.48,1.4569,1.4384,1.4156,1.3921,1.371,1.3319,1.2982,1.2779,1.2318,1.217,1.2274,1.2071,1.1678,1.1217,1.071,1.0293,0.9865,0.9364,0.8918,0.8518,0.8112,0.7709,0.7241,0.6761,0.6329,0.6,0.5611,0.5115,0.4624,0.4127,0.3572,0.3073,0.2572,0.2239,0.2184,0.1961,0.1739,0.1515,0.1291,0.1009,0.0393,-0.0224,-0.0841,-0.1514,-0.241,-0.3022,-0.3403,-0.444,-0.5966,-0.7469,-0.9051,-1.0767,-1.2115,-1.3193,-1.4138,1.2915,1.3765,1.4542,1.5123,1.5449,1.5698,1.6099,1.6504,1.6219,1.6442,1.6843,1.6722,1.6724,1.6877,1.6925,1.656,1.5955,1.63,1.6442,1.6436,1.6863,1.7086,1.7128,1.7378,1.7508,1.7543,1.7645,1.7625,1.7503,1.738,1.7558,1.7982,1.8119,1.8504,1.9091,1.9312,1.9448,1.9602,1.964,1.9603,1.9494,1.9457,1.9384,1.931,1.904,1.8858,1.869,1.8436,1.8201,1.7955,1.7686,1.7352,1.6996,1.6571,1.61,1.5653,1.5402,1.5125,1.48,1.4569,1.4384,1.415,1.3915,1.3721,1.3573,1.319,1.2861,1.2573,1.2175,1.1873,1.1528,1.1372,1.1124,1.0659,1.0186,0.9666,0.9148,0.8682,0.8259,0.7649,0.712,0.6691,0.6315,0.5939,0.5559,0.5122,0.4787,0.4398,0.4013,0.3516,0.3073,0.2741,0.2354,0.202,0.1738,0.1683,0.1515,0.1291,0.1009,0.0336,-0.028,-0.0897,-0.1515,-0.2242,-0.3083,-0.3687,-0.4171,-0.5688,-0.7157,-0.8531,-1.0064,-1.1212,-1.2463,-1.3579,-1.452,1.267,1.3584,1.4176,1.4647,1.4996,1.5459,1.5926,1.6363,1.6361,1.6602,1.7011,1.6931,1.7082,1.7364,1.7615,1.7339,1.6632,1.6798,1.6821,1.6705,1.7164,1.7365,1.7488,1.7747,1.7909,1.7942,1.8114,1.8147,1.8075,1.7995,1.8056,1.8223,1.8269,1.8518,1.8932,1.9089,1.925,1.9412,1.9486,1.9531,1.9501,1.9391,1.9295,1.9265,1.913,1.8957,1.8791,1.8514,1.8279,1.8049,1.7733,1.7365,1.6869,1.6454,1.6013,1.5552,1.5345,1.5034,1.4621,1.4378,1.4203,1.3962,1.3668,1.3472,1.342,1.305,1.2681,1.2377,1.1977,1.1473,1.107,1.0714,1.0399,1.0083,0.9618,0.9037,0.8418,0.7996,0.7461,0.6701,0.605,0.5614,0.5279,0.5003,0.4622,0.4187,0.3959,0.3681,0.3296,0.3019,0.2686,0.2354,0.1908,0.1459,0.1009,0.0729,0.0673,0.0449,0.028,-0.0336,-0.1009,-0.1628,-0.2188,-0.297,-0.3688,-0.4288,-0.5372,-0.6886,-0.8274,-0.9547,-1.0712,-1.181,-1.2938,-1.3915,-1.4841,1.2359,1.3046,1.3588,1.4061,1.4524,1.4932,1.5463,1.5874,1.6218,1.6564,1.6903,1.7269,1.7486,1.7624,1.7911,1.7911,1.7784,1.7743,1.7542,1.7202,1.756,1.7828,1.7963,1.8189,1.8312,1.8358,1.8507,1.8616,1.8623,1.8539,1.8439,1.8383,1.8483,1.8551,1.8552,1.8919,1.9086,1.9131,1.9276,1.9328,1.931,1.9347,1.9295,1.9153,1.9108,1.8995,1.8822,1.862,1.8393,1.8202,1.7875,1.7343,1.665,1.6318,1.5969,1.5558,1.5238,1.4932,1.4621,1.4249,1.3968,1.3773,1.3462,1.3271,1.317,1.2803,1.2431,1.2126,1.1673,1.1175,1.0718,1.0142,0.9669,0.9514,0.9044,0.8355,0.7777,0.7195,0.6552,0.5729,0.502,0.4468,0.4239,0.4013,0.3739,0.3466,0.3244,0.3019,0.2688,0.2521,0.2355,0.1851,0.1291,0.0785,0.0224,-0.028,-0.0393,-0.0505,-0.0672,-0.1065,-0.1738,-0.2413,-0.2798,-0.3522,-0.462,-0.5326,-0.6455,-0.7913,-0.896,-1.0167,-1.1266,-1.2355,-1.3369,-1.4335,-1.5164,1.1798,1.2239,1.2985,1.3459,1.3868,1.43,1.4779,1.5308,1.5831,1.6223,1.6601,1.7139,1.7599,1.7963,1.8254,1.8452,1.8505,1.8639,1.8539,1.8331,1.8441,1.8534,1.8618,1.8647,1.8777,1.9019,1.8997,1.9102,1.9184,1.9072,1.8921,1.887,1.8811,1.8812,1.884,1.8881,1.8885,1.8904,1.8946,1.8961,1.8994,1.9078,1.913,1.9108,1.9048,1.9017,1.8941,1.875,1.8485,1.8202,1.7969,1.7419,1.665,1.6318,1.5969,1.5564,1.5238,1.488,1.4523,1.4161,1.3921,1.3673,1.3362,1.3218,1.317,1.2749,1.2377,1.2081,1.1619,1.112,1.0565,0.988,0.9409,0.9208,0.8567,0.7827,0.7085,0.6216,0.5336,0.473,0.4182,0.3739,0.3405,0.3128,0.2905,0.2741,0.2574,0.2464,0.2244,0.1794,0.1402,0.1009,0.0505,-0.0,-0.0617,-0.1121,-0.1401,-0.1513,-0.1624,-0.1791,-0.2465,-0.308,-0.3519,-0.434,-0.5435,-0.6519,-0.7649,-0.8705,-0.9751,-1.0771,-1.1922,-1.2894,-1.3852,-1.4744,-1.5579,1.1048,1.1556,1.2178,1.2728,1.3151,1.37,1.4245,1.4734,1.5308,1.5763,1.6208,1.6684,1.7307,1.7897,1.8284,1.8643,1.8955,1.9353,1.9571,1.9547,1.9283,1.9347,1.9468,1.9441,1.9441,1.9574,1.953,1.9551,1.9696,1.958,1.9471,1.9332,1.9236,1.9133,1.9092,1.9032,1.8964,1.89,1.8836,1.8805,1.8802,1.8868,1.8917,1.8927,1.8927,1.8941,1.8865,1.8757,1.8556,1.8221,1.7922,1.7337,1.6644,1.6399,1.605,1.5558,1.5249,1.488,1.4471,1.4156,1.3873,1.3621,1.3367,1.3218,1.3122,1.2803,1.2377,1.2076,1.1623,1.1065,1.0518,0.9784,0.9152,0.8725,0.8037,0.7235,0.627,0.5171,0.4346,0.3849,0.3463,0.3072,0.2683,0.2181,0.1958,0.1792,0.168,0.1624,0.1403,0.0953,0.0505,0.0056,-0.0449,-0.0953,-0.1514,-0.1963,-0.2356,-0.2521,-0.263,-0.274,-0.3134,-0.3742,-0.4236,-0.5487,-0.6581,-0.7481,-0.8554,-0.9481,-1.0466,-1.1521,-1.2574,-1.3569,-1.4514,-1.5215,-1.5994,1.0288,1.0993,1.1365,1.1922,1.2544,1.3151,1.3756,1.4185,1.4789,1.5371,1.5816,1.6285,1.6915,1.7595,1.8024,1.8519,1.9214,1.9844,2.0412,2.0641,2.0414,2.0312,2.0588,2.0541,2.04,2.021,2.019,2.0142,2.0135,2.0127,2.0058,1.9894,1.9803,1.9624,1.9439,1.9344,1.9255,1.9073,1.893,1.888,1.8838,1.8755,1.871,1.871,1.874,1.8721,1.8666,1.8634,1.8496,1.824,1.7754,1.7218,1.6772,1.6528,1.6138,1.5564,1.5289,1.4926,1.4471,1.4192,1.3905,1.3663,1.3367,1.3218,1.3175,1.2803,1.2421,1.213,1.1669,1.112,1.0514,0.9784,0.8991,0.8137,0.7396,0.6426,0.506,0.4236,0.3629,0.3131,0.28,0.241,0.1903,0.1288,0.0897,0.0617,0.0505,0.0393,0.0168,-0.0112,-0.0393,-0.0785,-0.1234,-0.1626,-0.2074,-0.2464,-0.2913,-0.3411,-0.3519,-0.3741,-0.3959,-0.4565,-0.5273,-0.6524,-0.7602,-0.8501,-0.9384,-1.0305,-1.1216,-1.2218,-1.3241,-1.4231,-1.5022,-1.5718,-1.6343,0.9709,1.0034,1.0923,1.1611,1.205,1.2736,1.3277,1.3752,1.4478,1.5015,1.5468,1.6171,1.6853,1.7584,1.7975,1.8619,1.9402,1.9971,2.0673,2.1403,2.1769,2.1672,2.1646,2.1688,2.1506,2.1228,2.1245,2.1056,2.0644,2.0726,2.0654,2.0538,2.0387,2.025,2.0087,1.9941,1.9698,1.9399,1.93,1.9161,1.9001,1.8766,1.8643,1.8621,1.847,1.8412,1.839,1.8347,1.8228,1.7989,1.7631,1.7196,1.6742,1.6528,1.6182,1.5709,1.5396,1.5028,1.4616,1.4291,1.4041,1.3763,1.3415,1.3218,1.3213,1.2856,1.2524,1.2229,1.1823,1.1326,1.0663,0.9936,0.8939,0.7732,0.6707,0.5668,0.4565,0.3739,0.3076,0.2632,0.1961,0.1345,0.0784,0.0448,0.0168,-0.0168,-0.0336,-0.0448,-0.0729,-0.1009,-0.1234,-0.1458,-0.1851,-0.2186,-0.2577,-0.2967,-0.3467,-0.4075,-0.4405,-0.4677,-0.5058,-0.5603,-0.647,-0.7501,-0.8396,-0.9291,-1.0151,-1.1061,-1.2016,-1.2957,-1.3805,-1.4698,-1.5421,-1.6107,-1.6716,0.8938,0.946,1.0221,1.0919,1.1553,1.212,1.2736,1.3338,1.3997,1.4661,1.5191,1.5941,1.6673,1.7301,1.7909,1.8649,1.9494,2.0118,2.0871,2.1786,2.2665,2.2862,2.2641,2.2732,2.267,2.2327,2.245,2.2135,2.1656,2.1617,2.1424,2.1111,2.0958,2.0845,2.0681,2.0516,2.0286,1.9971,1.9741,1.9538,1.9372,1.9104,1.8765,1.8601,1.8398,1.8336,1.8177,1.8036,1.7963,1.7848,1.7569,1.7238,1.6846,1.6528,1.6182,1.5709,1.539,1.5028,1.4656,1.4326,1.4093,1.381,1.351,1.3362,1.317,1.29,1.2583,1.2278,1.1873,1.1377,1.0769,0.9829,0.862,0.741,0.6277,0.5177,0.4068,0.335,0.2741,0.213,0.1346,0.0561,-0.0112,-0.028,-0.0561,-0.0841,-0.1009,-0.1178,-0.1402,-0.1738,-0.1963,-0.2131,-0.2353,-0.2742,-0.3187,-0.3631,-0.4236,-0.4844,-0.5553,-0.5771,-0.6147,-0.674,-0.7489,-0.8346,-0.9239,-1.0119,-1.0973,-1.181,-1.2735,-1.3616,-1.4365,-1.5147,-1.5914,-1.6484,-1.7089,0.8107,0.9145,0.9396,1.0098,1.0996,1.1553,1.2239,1.2981,1.3584,1.4249,1.4961,1.5642,1.6384,1.7067,1.7892,1.8703,1.9482,2.0302,2.1279,2.2321,2.3333,2.3746,2.3638,2.3857,2.3711,2.3457,2.3578,2.3283,2.2842,2.2758,2.2371,2.1858,2.1622,2.1407,2.1267,2.1095,2.091,2.0692,2.0327,2.0125,1.9926,1.9633,1.9226,1.8819,1.8457,1.8275,1.7982,1.7767,1.7631,1.7808,1.7528,1.7225,1.6918,1.6577,1.6182,1.5792,1.5385,1.5023,1.4656,1.4419,1.414,1.3905,1.3716,1.3515,1.3228,1.2958,1.2676,1.2426,1.1882,1.1372,1.0663,0.951,0.8359,0.7354,0.627,0.5062,0.3901,0.3071,0.2462,0.1795,0.0841,0.0112,-0.0449,-0.0897,-0.129,-0.1345,-0.1514,-0.1625,-0.1848,-0.2127,-0.2409,-0.2634,-0.2911,-0.3296,-0.3795,-0.4349,-0.5007,-0.5719,-0.6637,-0.7071,-0.7334,-0.7868,-0.8448,-0.9187,-1.0016,-1.083,-1.1737,-1.2614,-1.3474,-1.422,-1.4977,-1.5738,-1.6497,-1.6957,-1.7468,0.7589,0.8096,0.9131,0.9846,1.0491,1.1115,1.1864,1.267,1.3277,1.3997,1.4775,1.5526,1.6265,1.7,1.7831,1.8643,1.965,2.059,2.1745,2.3275,2.3933,2.4536,2.4736,2.4944,2.4801,2.4596,2.4778,2.4538,2.4018,2.3597,2.3249,2.3038,2.247,2.2088,2.199,2.1832,2.1628,2.1398,2.1122,2.0889,2.0645,2.0199,1.9805,1.946,1.8643,1.8118,1.7955,1.7483,1.7175,1.7212,1.726,1.7183,1.6924,1.662,1.6269,1.5881,1.5564,1.5238,1.4869,1.4605,1.4378,1.4134,1.3805,1.3563,1.3367,1.3152,1.2876,1.2632,1.2234,1.1519,1.0506,0.9406,0.8461,0.756,0.648,0.5222,0.3895,0.3015,0.2297,0.1458,0.0561,-0.0336,-0.0953,-0.1122,-0.1458,-0.1793,-0.196,-0.2072,-0.2294,-0.2516,-0.2797,-0.3136,-0.3411,-0.3796,-0.4458,-0.5064,-0.588,-0.6532,-0.745,-0.82,-0.8464,-0.882,-0.9392,-1.0009,-1.0677,-1.1538,-1.2437,-1.3203,-1.4055,-1.4801,-1.5528,-1.6225,-1.6879,-1.7338,-1.7787,0.6999,0.7644,0.8493,0.9268,1.0104,1.0667,1.149,1.2301,1.2972,1.3692,1.4533,1.5391,1.6145,1.6965,1.7892,1.8863,1.9882,2.121,2.2445,2.3537,2.4248,2.4879,2.54,2.5709,2.5691,2.5547,2.5832,2.5644,2.5167,2.4851,2.466,2.4253,2.3538,2.3252,2.2992,2.266,2.2341,2.2104,2.1878,2.1672,2.142,2.1028,2.0454,2.0028,1.9076,1.84,1.8007,1.7667,1.7225,1.6927,1.697,1.7002,1.6803,1.654,1.6231,1.5963,1.5653,1.5373,1.5062,1.4794,1.4523,1.4321,1.4041,1.3747,1.351,1.3281,1.3055,1.2774,1.2328,1.1623,1.0561,0.9721,0.8823,0.7871,0.6802,0.5597,0.4333,0.3235,0.2239,0.1401,0.0561,-0.0449,-0.1066,-0.1346,-0.1626,-0.196,-0.2353,-0.2464,-0.2686,-0.2964,-0.3299,-0.3635,-0.391,-0.4351,-0.5067,-0.5832,-0.675,-0.7453,-0.815,-0.8893,-0.9413,-0.9817,-1.0269,-1.0834,-1.1392,-1.2223,-1.3064,-1.3878,-1.4669,-1.5445,-1.6157,-1.671,-1.7249,-1.7787,-1.8273,0.6346,0.7328,0.7784,0.8624,0.9646,1.0228,1.1052,1.1996,1.2679,1.3402,1.424,1.5153,1.5979,1.6904,1.7946,1.9004,2.032,2.1724,2.3009,2.3767,2.4469,2.5091,2.5642,2.6038,2.634,2.6426,2.6632,2.6495,2.6323,2.622,2.5802,2.5371,2.4637,2.4182,2.3999,2.3458,2.2929,2.2659,2.2492,2.2284,2.2096,2.1802,2.1301,2.0615,1.9787,1.9092,1.8555,1.813,1.7636,1.6743,1.6717,1.6695,1.6558,1.6411,1.615,1.6001,1.5697,1.543,1.5159,1.4932,1.4697,1.4471,1.4326,1.4087,1.3747,1.3462,1.3185,1.2856,1.2372,1.1623,1.082,0.9984,0.9082,0.8081,0.7179,0.6093,0.4889,0.3568,0.2516,0.1624,0.0673,-0.0393,-0.1122,-0.1626,-0.1905,-0.2183,-0.2576,-0.2912,-0.3134,-0.3409,-0.3799,-0.4187,-0.4517,-0.5222,-0.5937,-0.6581,-0.7503,-0.8299,-0.8945,-0.9621,-1.0297,-1.0791,-1.1187,-1.1497,-1.2098,-1.2919,-1.3726,-1.452,-1.5305,-1.6082,-1.6723,-1.7214,-1.7747,-1.8273,-1.8669,0.5681,0.6406,0.7384,0.8234,0.902,0.9792,1.0674,1.1615,1.2297,1.3216,1.4245,1.4947,1.5811,1.6848,1.7782,1.923,2.091,2.2221,2.3143,2.3979,2.4687,2.5331,2.5836,2.6304,2.664,2.6932,2.7085,2.7123,2.7143,2.6882,2.6716,2.6366,2.5595,2.4974,2.4601,2.3872,2.3536,2.3286,2.3091,2.292,2.2624,2.2334,2.2,2.1388,2.0611,2.0019,1.9581,1.8921,1.817,1.7372,1.7188,1.6771,1.6379,1.631,1.6138,1.5925,1.5754,1.5531,1.53,1.5108,1.4932,1.4708,1.4518,1.4326,1.4035,1.3747,1.3425,1.2939,1.2314,1.1523,1.0918,1.0135,0.9305,0.8306,0.7289,0.6206,0.5007,0.3906,0.2963,0.2072,0.0896,-0.0336,-0.1122,-0.1794,-0.2072,-0.2462,-0.291,-0.3301,-0.3633,-0.3964,-0.4405,-0.4792,-0.5179,-0.5989,-0.6853,-0.7492,-0.8243,-0.9026,-0.9714,-1.0375,-1.1044,-1.1746,-1.2201,-1.2486,-1.2871,-1.3589,-1.4387,-1.5119,-1.5826,-1.6546,-1.7131,-1.7707,-1.8187,-1.8662,-1.8997,0.5287,0.5943,0.6868,0.7717,0.8568,0.9402,1.0291,1.1178,1.1992,1.2846,1.3868,1.4692,1.569,1.6729,1.7776,1.938,2.1141,2.236,2.3238,2.4071,2.4799,2.5438,2.5946,2.6443,2.6883,2.7175,2.7355,2.7539,2.7815,2.7623,2.7522,2.754,2.7043,2.6599,2.6063,2.5644,2.4805,2.4314,2.396,2.3603,2.308,2.2782,2.2411,2.2005,2.1566,2.0978,2.026,1.9928,1.9078,1.8167,1.753,1.7002,1.6613,1.6182,1.6039,1.5922,1.5806,1.5665,1.5435,1.5295,1.5068,1.4829,1.4662,1.4529,1.4285,1.3999,1.3525,1.2944,1.2407,1.1678,1.1074,1.0233,0.9454,0.857,0.7503,0.6372,0.5281,0.4182,0.324,0.235,0.112,-0.0168,-0.1347,-0.1906,-0.2239,-0.274,-0.3244,-0.3688,-0.4133,-0.4515,-0.4952,-0.5614,-0.6052,-0.6851,-0.7709,-0.8339,-0.8971,-0.9707,-1.0474,-1.1133,-1.1733,-1.2433,-1.3016,-1.3442,-1.392,-1.4387,-1.4983,-1.5706,-1.6355,-1.6957,-1.7544,-1.8121,-1.8584,-1.9004,-1.9369,0.4892,0.5486,0.641,0.7265,0.8104,0.9005,0.9904,1.08,1.1619,1.2536,1.3567,1.4442,1.5449,1.6652,1.8021,1.9594,2.141,2.2406,2.3238,2.412,2.4799,2.5468,2.603,2.6496,2.6973,2.7373,2.7578,2.7786,2.8034,2.8102,2.8291,2.8288,2.852,2.8224,2.7339,2.6838,2.6217,2.5542,2.4905,2.4345,2.3531,2.307,2.2782,2.2543,2.2364,2.1756,2.0994,2.0733,2.0036,1.9095,1.8306,1.7681,1.718,1.6397,1.603,1.6111,1.5899,1.5656,1.5519,1.5345,1.5204,1.5011,1.4891,1.4719,1.4441,1.4057,1.3578,1.2861,1.2323,1.1778,1.112,1.0387,0.9555,0.8666,0.761,0.6534,0.533,0.4177,0.3128,0.2125,0.1064,-0.0168,-0.1515,-0.2129,-0.2516,-0.3074,-0.3633,-0.4296,-0.4739,-0.5062,-0.5607,-0.6433,-0.7087,-0.7768,-0.8504,-0.9127,-0.9755,-1.0431,-1.1179,-1.1877,-1.2472,-1.3112,-1.3726,-1.4324,-1.4829,-1.5293,-1.5794,-1.6275,-1.6915,-1.7509,-1.8055,-1.8528,-1.9049,-1.9413,-1.9739,0.4292,0.496,0.6009,0.6926,0.7649,0.8622,0.9588,1.0544,1.1299,1.2286,1.3446,1.4282,1.5216,1.6636,1.8447,2.001,2.1252,2.2221,2.3143,2.4128,2.4807,2.5476,2.6162,2.659,2.7029,2.7426,2.7689,2.7902,2.809,2.8291,2.8441,2.8543,2.8587,2.8352,2.7755,2.7545,2.6835,2.6086,2.5403,2.4545,2.3681,2.3333,2.3119,2.2885,2.2643,2.2331,2.1845,2.1603,2.1003,2.0084,1.9644,1.9082,1.8313,1.7267,1.6879,1.6572,1.6157,1.5558,1.5478,1.539,1.53,1.5153,1.5017,1.4891,1.4529,1.4004,1.3435,1.2973,1.2426,1.1773,1.1065,1.0289,0.951,0.8508,0.7393,0.6308,0.5162,0.4181,0.3073,0.1676,0.0504,-0.0616,-0.1852,-0.2351,-0.285,-0.3409,-0.4022,-0.4739,-0.5395,-0.5823,-0.6411,-0.7286,-0.8037,-0.8666,-0.9287,-0.9913,-1.0572,-1.125,-1.1936,-1.2667,-1.3288,-1.3956,-1.4589,-1.5192,-1.5688,-1.617,-1.6648,-1.7124,-1.7591,-1.8035,-1.8507,-1.9004,-1.953,-1.9818,-2.0093,0.3892,0.4761,0.5752,0.6544,0.7265,0.8304,0.9201,1.0031,1.0986,1.1981,1.3017,1.3919,1.5255,1.6962,1.8727,1.9984,2.1071,2.2042,2.3054,2.4029,2.4767,2.543,2.6038,2.6556,2.6997,2.7417,2.7698,2.7902,2.8118,2.8309,2.8484,2.8644,2.8709,2.8667,2.8226,2.8175,2.7664,2.6803,2.5723,2.4734,2.4135,2.3611,2.3226,2.3011,2.2833,2.2615,2.2398,2.2189,2.1771,2.0994,2.0436,1.9735,1.9093,1.8198,1.74,1.6757,1.6382,1.5925,1.5567,1.5404,1.5306,1.521,1.5062,1.4783,1.4425,1.3957,1.3334,1.2827,1.2332,1.1678,1.0913,1.0083,0.919,0.8187,0.7015,0.5925,0.4835,0.4015,0.2909,0.1453,-0.0056,-0.1342,-0.2461,-0.3012,-0.362,-0.4177,-0.484,-0.5498,-0.6202,-0.6843,-0.7483,-0.8287,-0.8922,-0.9547,-1.0167,-1.0736,-1.1475,-1.2089,-1.2677,-1.3399,-1.4143,-1.4795,-1.541,-1.5977,-1.6502,-1.698,-1.7449,-1.7747,-1.8082,-1.85,-1.8983,-1.9435,-1.9917,-2.0216,-2.0522,0.3625,0.4492,0.5425,0.622,0.6942,0.7912,0.8815,0.9582,1.0604,1.1611,1.2716,1.3914,1.5608,1.7202,1.8566,1.9728,2.0852,2.1853,2.2868,2.3787,2.4591,2.5299,2.5949,2.6487,2.6956,2.7457,2.7672,2.7893,2.8136,2.8336,2.8484,2.8694,2.8767,2.8806,2.8834,2.8664,2.8257,2.7293,2.5998,2.5105,2.4504,2.3723,2.3296,2.3036,2.291,2.2764,2.2542,2.2321,2.2076,2.1663,2.0982,2.0444,2.0085,1.9153,1.8342,1.7715,1.7274,1.6581,1.6022,1.5553,1.5351,1.5216,1.4977,1.4645,1.4321,1.3805,1.3281,1.2666,1.2126,1.1423,1.0553,0.9718,0.8712,0.7646,0.647,0.538,0.4229,0.3122,0.1953,0.0502,-0.1004,-0.2284,-0.3287,-0.3891,-0.4443,-0.4944,-0.5603,-0.631,-0.7109,-0.7957,-0.8639,-0.9381,-0.9907,-1.0514,-1.107,-1.1688,-1.233,-1.2957,-1.3589,-1.4247,-1.4977,-1.5594,-1.6151,-1.6714,-1.7271,-1.7834,-1.8362,-1.8429,-1.8567,-1.9079,-1.9588,-1.9894,-2.025,-2.0581,-2.0934,0.356,0.4093,0.5028,0.5888,0.6741,0.7657,0.8627,0.9454,1.0231,1.1362,1.2785,1.4392,1.5796,1.7045,1.819,1.9411,2.0802,2.1499,2.2596,2.3608,2.4453,2.5137,2.5832,2.6418,2.6932,2.7364,2.7621,2.7893,2.8136,2.8264,2.8458,2.8678,2.8743,2.8858,2.8858,2.8773,2.8367,2.751,2.645,2.5515,2.4744,2.3921,2.3281,2.307,2.2885,2.2738,2.2587,2.2324,2.2044,2.1807,2.144,2.1159,2.0765,2.0024,1.9306,1.8832,1.8231,1.7448,1.6592,1.5781,1.5277,1.5158,1.4891,1.4518,1.4181,1.3605,1.303,1.2398,1.171,1.0893,1.0016,0.9072,0.8069,0.6827,0.5584,0.4323,0.3112,0.178,0.0613,-0.0614,-0.2062,-0.3561,-0.4541,-0.5249,-0.5523,-0.6025,-0.694,-0.77,-0.8475,-0.9263,-0.9832,-1.0482,-1.1,-1.1547,-1.208,-1.2706,-1.3379,-1.393,-1.4544,-1.5141,-1.5826,-1.6429,-1.696,-1.7544,-1.8126,-1.8724,-1.9147,-1.9236,-1.9383,-1.979,-2.015,-2.0455,-2.0829,-2.1221,-2.1529,0.3358,0.4095,0.4753,0.5484,0.6282,0.7265,0.8231,0.9061,1.0031,1.1538,1.3147,1.4506,1.5618,1.6698,1.7967,1.9044,2.0124,2.1348,2.236,2.3297,2.4142,2.4934,2.5684,2.6252,2.6691,2.7166,2.7478,2.7786,2.8062,2.8182,2.8336,2.8501,2.8619,2.8678,2.8712,2.8662,2.8285,2.784,2.7028,2.615,2.512,2.4285,2.3526,2.2885,2.2703,2.2526,2.2345,2.2121,2.1849,2.1634,2.1479,2.1371,2.1246,2.0611,2.0126,1.9681,1.9041,1.8179,1.7,1.6185,1.5711,1.4987,1.4719,1.4384,1.3994,1.3314,1.2574,1.1886,1.1091,1.021,0.919,0.8234,0.7157,0.5849,0.4534,0.3161,0.1832,0.05,-0.0833,-0.2111,-0.3666,-0.5228,-0.6084,-0.6819,-0.6932,-0.7154,-0.8119,-0.9075,-0.9839,-1.0547,-1.1057,-1.1616,-1.2126,-1.2675,-1.3193,-1.38,-1.4416,-1.4954,-1.5487,-1.6102,-1.6763,-1.7251,-1.7827,-1.8408,-1.8938,-1.9405,-1.9758,-1.9962,-2.0151,-2.0361,-2.0663,-2.0975,-2.1376,-2.1815,-2.2084,0.3156,0.3896,0.4489,0.5219,0.5954,0.7003,0.7907,0.874,0.9706,1.1344,1.326,1.4268,1.5328,1.6353,1.7534,1.8774,1.9761,2.0881,2.1981,2.2935,2.3806,2.4664,2.5346,2.5949,2.6401,2.6915,2.7284,2.7569,2.7853,2.7996,2.8164,2.8273,2.8424,2.8458,2.8562,2.8432,2.8309,2.7986,2.728,2.6542,2.5535,2.4511,2.3733,2.294,2.2596,2.2279,2.2093,2.189,2.1667,2.1438,2.1276,2.1222,2.1095,2.0884,2.0489,2.0064,1.9555,1.887,1.7711,1.6433,1.5813,1.4989,1.4564,1.414,1.361,1.2919,1.2075,1.1183,1.0309,0.927,0.8243,0.7337,0.6013,0.4647,0.2981,0.1551,0.0221,-0.111,-0.2326,-0.3602,-0.515,-0.6522,-0.7776,-0.8547,-0.8961,-0.9075,-0.9555,-1.0446,-1.1103,-1.1756,-1.2253,-1.2812,-1.3349,-1.3858,-1.4376,-1.497,-1.5576,-1.612,-1.6646,-1.7107,-1.7666,-1.8185,-1.8629,-1.9155,-1.9636,-2.0066,-2.04,-2.0667,-2.0748,-2.0812,-2.115,-2.1521,-2.1924,-2.2326,-2.2517,0.3024,0.3564,0.4293,0.509,0.5958,0.6806,0.7654,0.8552,0.939,1.078,1.2658,1.3928,1.4991,1.5974,1.7101,1.8238,1.9405,2.0434,2.1506,2.2567,2.3399,2.4271,2.4997,2.5594,2.6077,2.6649,2.7029,2.7324,2.7608,2.7748,2.7922,2.8016,2.8109,2.8219,2.8449,2.8353,2.82,2.7899,2.7067,2.6539,2.5758,2.4569,2.3753,2.3046,2.2407,2.1957,2.1773,2.1601,2.1378,2.119,2.1063,2.095,2.0803,2.0736,2.0543,2.0479,2.0289,1.9748,1.8836,1.6679,1.5627,1.5042,1.4647,1.3931,1.3309,1.2467,1.1358,1.0305,0.9311,0.8146,0.7267,0.6308,0.4703,0.3096,0.1383,-0.0166,-0.1493,-0.2871,-0.4138,-0.5385,-0.6413,-0.755,-0.9113,-1.0312,-1.0927,-1.1245,-1.1353,-1.181,-1.2453,-1.2976,-1.3501,-1.3966,-1.452,-1.509,-1.5616,-1.6155,-1.6727,-1.7254,-1.774,-1.8131,-1.8545,-1.903,-1.9477,-1.9939,-2.0351,-2.0732,-2.1102,-2.1438,-2.1552,-2.1655,-2.1811,-2.2153,-2.2526,-2.2782,-2.291,0.3024,0.3565,0.4295,0.4959,0.5625,0.648,0.7396,0.8366,0.9713,1.1167,1.2474,1.3567,1.4579,1.5628,1.6708,1.7809,1.8786,2.0093,2.1119,2.2046,2.2912,2.3879,2.4615,2.5214,2.5705,2.6245,2.6674,2.6997,2.7253,2.7461,2.76,2.7707,2.7727,2.792,2.8053,2.8007,2.7789,2.7538,2.7139,2.6653,2.5675,2.4698,2.3754,2.2961,2.2134,2.162,2.1378,2.1238,2.1047,2.0811,2.0679,2.0571,2.0429,2.0281,2.027,2.02,2.0019,1.9509,1.8649,1.7292,1.6485,1.563,1.4673,1.3788,1.2803,1.1756,1.059,0.9245,0.7982,0.6645,0.5406,0.4083,0.2598,0.105,-0.0608,-0.204,-0.342,-0.4785,-0.6098,-0.7206,-0.8282,-0.9745,-1.1239,-1.212,-1.2734,-1.3122,-1.3218,-1.328,-1.3784,-1.4234,-1.475,-1.5223,-1.5728,-1.6256,-1.6806,-1.729,-1.774,-1.8243,-1.8653,-1.903,-1.9477,-1.9904,-2.0309,-2.0749,-2.1062,-2.1399,-2.1752,-2.2079,-2.2375,-2.2581,-2.2608,-2.2634,-2.2884,-2.3086,-2.3241,0.2892,0.3361,0.4093,0.4693,0.5294,0.628,0.7265,0.8436,0.9913,1.124,1.2166,1.3139,1.4163,1.5279,1.6363,1.7374,1.8219,1.9423,2.0553,2.1431,2.2353,2.3297,2.4067,2.4736,2.5237,2.5799,2.6218,2.6581,2.6849,2.7077,2.7253,2.7293,2.7301,2.7355,2.7491,2.7474,2.7413,2.717,2.685,2.6511,2.5665,2.4821,2.3943,2.2973,2.211,2.1376,2.1014,2.0738,2.053,2.0334,2.0197,2.0093,1.9909,1.9811,1.9747,1.9595,1.9342,1.894,1.843,1.7821,1.6957,1.6194,1.4984,1.3648,1.2258,1.0931,0.974,0.8386,0.6597,0.4835,0.3249,0.1932,0.0275,-0.1324,-0.3243,-0.473,-0.5576,-0.694,-0.8087,-0.9199,-1.0257,-1.1773,-1.3112,-1.3835,-1.451,-1.4835,-1.5112,-1.5123,-1.5078,-1.5431,-1.586,-1.6323,-1.6783,-1.7335,-1.7832,-1.8334,-1.8779,-1.9259,-1.9628,-1.9931,-2.0343,-2.0749,-2.1157,-2.1513,-2.1774,-2.2071,-2.2385,-2.2704,-2.2934,-2.3107,-2.3194,-2.3236,-2.3295,-2.3412,-2.3549,0.2623,0.309,0.3758,0.4361,0.4962,0.6214,0.7526,0.8829,0.9789,1.0741,1.1611,1.2773,1.3743,1.4756,1.5796,1.6821,1.7831,1.8898,1.9876,2.0825,2.1792,2.2651,2.3471,2.4199,2.4728,2.5214,2.5676,2.6049,2.6367,2.6581,2.6758,2.6849,2.6741,2.6699,2.6749,2.6798,2.6807,2.6615,2.6445,2.6135,2.5535,2.4826,2.3955,2.3051,2.2164,2.1294,2.0771,2.0293,2.0065,1.9831,1.9696,1.9551,1.9361,1.9207,1.9043,1.8803,1.8458,1.8278,1.8096,1.7486,1.7244,1.643,1.533,1.3735,1.1864,0.9972,0.8436,0.6732,0.4835,0.291,0.1102,-0.0549,-0.2245,-0.4272,-0.6421,-0.7443,-0.8041,-0.9082,-1.0156,-1.1221,-1.215,-1.3381,-1.4523,-1.5392,-1.5866,-1.6201,-1.6409,-1.6572,-1.6536,-1.6476,-1.6941,-1.7341,-1.7793,-1.832,-1.8828,-1.9316,-1.9735,-2.0165,-2.0511,-2.0846,-2.1228,-2.1527,-2.1824,-2.2119,-2.2421,-2.2695,-2.2966,-2.3185,-2.3445,-2.3567,-2.3646,-2.3658,-2.3655,-2.3732,-2.3867,0.2824,0.3226,0.3762,0.4295,0.4962,0.628,0.7528,0.8624,0.9335,1.0225,1.1424,1.2216,1.3187,1.4273,1.5221,1.626,1.7268,1.8244,1.9288,2.0257,2.1161,2.206,2.2898,2.3615,2.4207,2.4704,2.5137,2.5497,2.5766,2.603,2.6164,2.6227,2.6096,2.5936,2.5831,2.5806,2.5875,2.5944,2.5852,2.5639,2.5201,2.4509,2.376,2.3047,2.1958,2.1086,2.054,1.9897,1.956,1.9199,1.9125,1.893,1.8408,1.8224,1.7999,1.7321,1.7068,1.6948,1.6919,1.6933,1.6706,1.6026,1.4849,1.3092,1.1083,0.8802,0.6702,0.4577,0.2342,0.0109,-0.1904,-0.359,-0.5047,-0.6773,-0.8586,-0.95,-1.0136,-1.1083,-1.2203,-1.3136,-1.4071,-1.4879,-1.6034,-1.6519,-1.6941,-1.7361,-1.7686,-1.784,-1.788,-1.7807,-1.792,-1.8313,-1.8752,-1.9251,-1.9756,-2.0218,-2.066,-2.1086,-2.1366,-2.1639,-2.1923,-2.2214,-2.2449,-2.2712,-2.294,-2.3192,-2.3473,-2.3667,-2.3804,-2.3917,-2.3998,-2.4008,-2.4037,-2.4225,-2.4228,0.2821,0.3092,0.3561,0.4163,0.4962,0.6018,0.7071,0.8037,0.8821,0.9843,1.0923,1.1663,1.2573,1.3674,1.4638,1.558,1.6611,1.754,1.8549,1.9496,2.0477,2.1355,2.2214,2.2912,2.3486,2.3991,2.4405,2.4728,2.5051,2.5299,2.5443,2.5427,2.5313,2.5128,2.491,2.4776,2.4705,2.4847,2.495,2.4926,2.4563,2.405,2.3569,2.2823,2.1664,2.0896,2.0228,1.9511,1.8896,1.8433,1.8341,1.7933,1.7374,1.7011,1.6388,1.5737,1.5251,1.5006,1.4842,1.489,1.5057,1.4581,1.3082,1.073,0.8646,0.6335,0.3976,0.1678,-0.0757,-0.2982,-0.4931,-0.6731,-0.7875,-0.908,-1.0209,-1.1335,-1.2228,-1.3167,-1.4112,-1.5081,-1.5855,-1.656,-1.7197,-1.7632,-1.8007,-1.8302,-1.8636,-1.8932,-1.8932,-1.8849,-1.8948,-1.9207,-1.967,-2.0139,-2.0634,-2.1054,-2.145,-2.1816,-2.2102,-2.2368,-2.2608,-2.2815,-2.3007,-2.323,-2.345,-2.3674,-2.3849,-2.3939,-2.4077,-2.4201,-2.4404,-2.4569,-2.4744,-2.5004,-2.4926,0.2686,0.2754,0.3295,0.403,0.4831,0.5559,0.6414,0.7204,0.8304,0.9402,1.0291,1.1041,1.1965,1.2948,1.3914,1.4937,1.5916,1.6872,1.7748,1.865,1.9734,2.0633,2.1403,2.2121,2.2673,2.3091,2.3486,2.3884,2.4119,2.4325,2.4463,2.4446,2.43,2.4112,2.3888,2.3676,2.3548,2.3454,2.3719,2.3853,2.3956,2.3661,2.3182,2.2525,2.1562,2.0601,1.9719,1.8894,1.8069,1.7673,1.721,1.6822,1.596,1.5221,1.4512,1.3708,1.3019,1.2487,1.2349,1.243,1.2066,1.1382,1.0015,0.6833,0.4246,0.3487,0.139,-0.1796,-0.4358,-0.6416,-0.8367,-0.9552,-1.0627,-1.1531,-1.2488,-1.3388,-1.4165,-1.5025,-1.583,-1.665,-1.7144,-1.7807,-1.8085,-1.8472,-1.8779,-1.9095,-1.942,-1.978,-1.9934,-1.9856,-1.9974,-2.0097,-2.0469,-2.0903,-2.1342,-2.1757,-2.2183,-2.2537,-2.2773,-2.2966,-2.3135,-2.3327,-2.3553,-2.3723,-2.3862,-2.4011,-2.4154,-2.4284,-2.4384,-2.4461,-2.4718,-2.5111,-2.5434,-2.5775,-2.5932,0.2488,0.2753,0.3424,0.4093,0.4694,0.5354,0.6018,0.6616,0.7458,0.8554,0.9646,1.0465,1.1267,1.2243,1.3145,1.4155,1.5245,1.5946,1.7002,1.7887,1.8895,1.9541,2.0399,2.1029,2.1661,2.2314,2.2665,2.2819,2.3009,2.3206,2.3317,2.3201,2.3076,2.2856,2.2615,2.2455,2.231,2.2065,2.2051,2.2457,2.2772,2.2718,2.2407,2.1941,2.1209,2.0274,1.9371,1.8558,1.7584,1.6805,1.6268,1.5322,1.3989,1.301,1.2108,1.1251,1.0296,0.953,0.9087,0.9102,0.8722,0.6586,0.443,0.1399,-0.0347,-0.011,-0.1676,-0.5189,-0.7895,-0.9852,-1.1394,-1.2335,-1.3181,-1.4009,-1.4699,-1.5369,-1.604,-1.6741,-1.7497,-1.7947,-1.8387,-1.8664,-1.8938,-1.9244,-1.9551,-1.9831,-2.0097,-2.0405,-2.0723,-2.0805,-2.0879,-2.103,-2.1218,-2.1609,-2.2034,-2.2386,-2.2755,-2.3032,-2.3248,-2.3441,-2.3628,-2.3807,-2.3959,-2.4106,-2.4266,-2.4356,-2.4479,-2.4629,-2.472,-2.4742,-2.4945,-2.531,-2.61,-2.6574,-2.6864,0.2356,0.2622,0.3293,0.3826,0.436,0.4959,0.5552,0.6147,0.6804,0.7714,0.8683,0.9624,1.0586,1.1428,1.2177,1.3067,1.4155,1.4805,1.5613,1.6589,1.7566,1.8193,1.8933,1.9642,1.9979,2.0562,2.0944,2.1212,2.1459,2.1464,2.1398,2.151,2.147,2.1374,2.1151,2.1101,2.0935,2.071,2.0412,2.0611,2.1233,2.1315,2.1445,2.1151,2.0454,1.9541,1.8669,1.7739,1.6649,1.5414,1.4489,1.3158,1.1768,1.066,0.9572,0.841,0.7237,0.6053,0.5438,0.4834,0.4357,0.1649,-0.112,-0.4132,-0.691,-0.7072,-0.8198,-1.1251,-1.1784,-1.3559,-1.4222,-1.5126,-1.5556,-1.6167,-1.6584,-1.705,-1.7464,-1.7939,-1.8426,-1.8731,-1.9072,-1.9339,-1.9601,-1.9887,-2.0181,-2.0421,-2.0689,-2.0967,-2.1323,-2.1612,-2.1731,-2.189,-2.2017,-2.225,-2.2591,-2.2924,-2.3224,-2.3495,-2.3692,-2.3862,-2.4011,-2.4201,-2.4366,-2.4444,-2.4528,-2.461,-2.4751,-2.4864,-2.4932,-2.4935,-2.5154,-2.545,-2.6371,-2.734,-2.7814,0.222,0.2491,0.2958,0.3492,0.4028,0.4498,0.5025,0.5549,0.6248,0.6824,0.751,0.8631,0.9649,1.0478,1.1045,1.1816,1.2668,1.3631,1.4336,1.5112,1.5942,1.6717,1.7302,1.7805,1.8358,1.8748,1.9107,1.9225,1.9375,1.9441,1.9535,1.9619,1.9628,1.9613,1.9598,1.9477,1.9204,1.897,1.8752,1.8661,1.9147,1.9723,2.0092,1.9913,1.9321,1.837,1.7466,1.6497,1.5436,1.39,1.2421,1.0806,0.9362,0.8074,0.6665,0.5394,0.3704,0.2302,0.0905,-0.0682,-0.1977,-0.4081,-0.6786,-0.9758,-1.269,-1.4187,-1.5316,-1.5843,-1.639,-1.636,-1.7043,-1.7376,-1.7774,-1.7956,-1.8264,-1.8454,-1.8712,-1.8968,-1.9229,-1.9457,-1.969,-1.9909,-2.0189,-2.047,-2.073,-2.0966,-2.1253,-2.1532,-2.1832,-2.2088,-2.2311,-2.2502,-2.2712,-2.2924,-2.3122,-2.3359,-2.3628,-2.384,-2.401,-2.4211,-2.4381,-2.4519,-2.461,-2.4664,-2.4764,-2.4823,-2.4884,-2.4957,-2.5032,-2.5082,-2.526,-2.5643,-2.6904,-2.7852,-2.8722,0.1816,0.2423,0.2891,0.3357,0.3826,0.4231,0.4631,0.5008,0.5422,0.6006,0.6658,0.7277,0.8317,0.9832,1.0231,1.0888,1.1728,1.2558,1.3312,1.4111,1.4656,1.5311,1.5864,1.6293,1.7025,1.7369,1.7569,1.7787,1.7526,1.7556,1.7658,1.763,1.7569,1.7464,1.7211,1.7202,1.7299,1.7062,1.7119,1.7065,1.728,1.7881,1.8644,1.8584,1.8271,1.7202,1.6254,1.5397,1.4157,1.253,1.0481,0.8514,0.681,0.5251,0.3733,0.199,0.0269,-0.1598,-0.3234,-0.5326,-0.6944,-0.9748,-1.2878,-1.6926,-1.9017,-2.0037,-2.07,-2.0679,-2.0632,-1.9333,-1.9489,-1.9334,-1.9499,-1.9338,-1.9448,-1.9369,-1.9479,-1.9595,-1.9762,-1.9947,-2.0115,-2.0315,-2.052,-2.0786,-2.1071,-2.1332,-2.1623,-2.1899,-2.2181,-2.2492,-2.2824,-2.3049,-2.3271,-2.3364,-2.3455,-2.3705,-2.3959,-2.4154,-2.4338,-2.4476,-2.4623,-2.4759,-2.4856,-2.4879,-2.4925,-2.4977,-2.5041,-2.5089,-2.5147,-2.5201,-2.5293,-2.5813,-2.7123,-2.8135,-2.88]},{"header":{"parameterUnit":"m.s-1","parameterCategory":1,"la1":31.0,"la2":29.5877,"lo1":-88.7671,"lo2":-86.6584,"dy":0.0162,"dx":0.0185,"nx":115,"ny":88,"refTime":"2024-07-24T06:00:00:Z","depth":0,"parameterNumber":3,"parameterNumberName":"V-component_of_WINDS"},"data":[0.0,0.0,0.0,0.0,0.0,0.0,0.0,0.0,0.0,0.0,0.0,0.0,0.0,0.0,0.0,0.0,0.0,0.0,0.0,0.0,0.0,0.0,0.0,0.0,0.0,0.0,0.0,0.0,0.0,0.0,0.0,0.0,0.0,0.0,0.0,0.0,0.0,0.0,0.0,0.0,0.0,0.0,0.0,0.0,0.0,0.0,0.0,0.0,0.0,0.0,0.0,0.0,0.0,0.0,0.0,0.0,0.0,0.0,0.0,0.0,0.0,0.0,0.0,0.0,0.0,0.0,0.0,0.0,0.0,0.0,0.0,0.0,0.0,0.0,0.0,0.0,0.0,0.0,0.0,0.0,0.0,0.0,0.0,0.0,0.0,0.0,0.0,0.0,0.0,0.0,0.0,0.0,0.0,0.0,0.0,0.0,0.0,0.0,0.0,0.0,0.0,0.0,0.0,0.0,0.0,0.0,0.0,0.0,0.0,0.0,0.0,0.0,0.0,0.0,0.0,0.0,0.0,0.0,0.0,0.0,0.0,0.0,0.0,0.0,0.0,0.0,0.0,0.0,0.0,0.0,0.0,0.0,0.0,0.0,0.0,0.0,0.0,0.0,0.0,0.0,0.0,0.0,0.0,0.0,0.0,0.0,0.0,0.0,0.0,0.0,0.0,0.0,0.0,0.0,0.0,0.0,0.0,0.0,0.0,0.0,0.0,0.0,0.0,0.0,0.0,0.0,0.0,0.0,0.0,0.0,0.0,0.0,0.0,0.0,0.0,0.0,0.0,0.0,0.0,0.0,0.0,0.0,0.0,0.0,0.0,0.0,0.0,0.0,0.0,0.0,0.0,0.0,0.0,0.0,0.0,0.0,0.0,0.0,0.0,0.0,0.0,0.0,0.0,0.0,0.0,0.0,0.0,0.0,0.0,0.0,0.0,0.0,0.0,0.0,0.0,0.0,0.0,0.0,0.0,0.0,0.0,0.0,0.0,0.0,0.0,0.0,0.0,0.0,0.0,0.0,0.0,0.0,0.0,0.0,0.0,0.0,0.0,0.0,0.0,0.0,0.0,0.0,0.0,0.0,0.0,0.0,0.0,0.0,0.0,0.0,0.0,0.0,0.0,0.0,0.0,0.0,0.0,0.0,0.0,0.0,0.0,0.0,0.0,0.0,0.0,0.0,0.0,0.0,0.0,0.0,0.0,0.0,0.0,0.0,0.0,0.0,0.0,0.0,0.0,0.0,0.0,0.0,0.0,0.0,0.0,0.0,0.0,0.0,0.0,0.0,0.0,0.0,0.0,0.0,0.0,0.0,0.0,0.0,0.0,0.0,0.0,0.0,0.0,0.0,0.0,0.0,0.0,0.0,0.0,0.0,0.0,0.0,0.0,0.0,0.0,0.0,0.0,0.0,0.0,0.0,0.0,0.0,0.0,0.0,0.0,0.0,0.0,0.0,0.0,0.0,0.0,0.0,0.0,0.0,0.0,0.0,0.0,0.0,0.0,0.0,0.0,0.0,0.0,0.0,0.0,0.0,0.0,0.0,0.0,0.0,0.0,0.0,0.0,0.0,0.0,0.0,0.0,0.0,0.0,0.0,0.0,0.0,0.0,0.0,0.0,0.0,0.0,0.0,0.0,0.0,0.0,0.0,0.0,0.0,0.0,0.0,0.0,0.0,0.0,0.0,0.0,0.0,0.0,0.0,0.0,0.0,0.0,0.0,0.0,0.0,0.0,0.0,0.0,0.0,0.0,0.0,0.0,0.0,0.0,0.0,0.0,0.0,0.0,0.0,0.0,0.0,0.0,0.0,0.0,0.0,0.0,0.0,0.0,0.0,0.0,0.0,0.0,0.0,0.0,0.0,0.0,0.0,0.0,0.0,0.0,0.0,0.0,0.0,0.0,0.0,0.0,0.0,0.0,0.0,0.0,0.0,0.0,0.0,0.0,0.0,0.0,0.0,0.0,0.0,0.0,0.0,0.0,0.0,0.0,0.0,0.0,0.0,0.0,0.0,0.0,0.0,0.0,0.0,0.0,0.0,0.0,0.0,0.0,0.0,0.0,0.0,0.0,0.0,0.0,0.0,0.0,0.0,0.0,0.0,0.0,0.0,0.0,0.0,0.0,0.0,0.0,0.0,0.0,0.0,0.0,0.0,0.0,0.0,0.0,0.0,0.0,0.0,0.0,0.0,0.0,0.0,0.0,0.0,0.0,0.0,0.0,0.0,0.0,0.0,0.0,0.0,0.0,0.0,0.0,0.0,0.0,0.0,0.0,0.0,0.0,0.0,0.0,0.0,0.0,0.0,0.0,0.0,0.0,0.0,0.0,0.0,0.0,0.0,0.0,0.0,0.0,0.0,0.0,0.0,0.0,0.0,0.0,0.0,0.0,0.0,0.0,0.0,0.0,0.0,0.0,0.0,0.0,0.0,0.0,0.0,0.0,0.0,0.0,0.0,0.0,0.0,0.0,0.0,0.0,0.0,0.0,0.0,0.0,0.0,0.0,0.0,0.0,0.0,0.0,0.0,0.0,0.0,0.0,0.0,0.0,0.0,0.0,0.0,0.0,0.0,0.0,0.0,0.0,0.0,0.0,0.0,0.0,0.0,0.0,0.0,0.0,0.0,0.0,0.0,0.0,0.0,0.0,0.0,0.0,0.0,0.0,0.0,0.0,0.0,0.0,0.0,0.0,0.0,0.0,0.0,0.0,0.0,0.0,0.0,0.0,0.0,0.0,0.0,0.0,0.0,0.0,0.0,0.0,0.0,0.0,0.0,0.0,0.0,0.0,0.0,0.0,0.0,0.0,0.0,0.0,0.0,0.0,0.0,0.0,0.0,0.0,0.0,0.0,0.0,0.0,0.0,0.0,0.0,0.0,0.0,0.0,0.0,0.0,0.0,0.0,0.0,0.0,0.0,0.0,0.0,0.0,0.0,0.0,0.0,0.0,0.0,0.0,0.0,0.0,0.0,0.0,0.0,0.0,0.0,0.0,0.0,0.0,0.0,0.0,0.0,0.0,0.0,0.0,0.0,0.0,0.0,0.0,0.0,0.0,0.0,0.0,0.0,0.0,0.0,0.0,0.0,0.0,0.0,0.0,0.0,0.0,0.0,0.0,0.0,0.0,0.0,0.0,0.0,0.0,0.0,0.0,0.0,0.0,0.0,0.0,0.0,0.0,0.0,0.0,0.0,0.0,0.0,0.0,0.0,0.0,0.0,0.0,0.0,0.0,0.0,0.0,0.0,0.0,0.0,0.0,0.0,0.0,0.0,0.0,0.0,0.0,0.0,0.0,0.0,0.0,0.0,0.0,0.0,0.0,0.0,0.0,0.0,0.0,0.0,0.0,0.0,0.0,0.0,0.0,0.0,0.0,0.0,0.0,0.0,0.0,0.0,0.0,0.0,0.0,0.0,0.0,0.0,0.0,0.0,0.0,0.0,0.0,0.0,0.0,0.0,0.0,0.0,0.0,0.0,0.0,0.0,0.0,0.0,0.0,0.0,0.0,0.0,0.0,0.0,0.0,0.0,0.0,0.0,0.0,0.0,0.0,0.0,0.0,0.0,0.0,0.0,0.0,0.0,0.0,0.0,0.0,0.0,0.0,0.0,0.0,0.0,0.0,0.0,0.0,0.0,0.0,0.0,0.0,0.0,0.0,0.0,0.0,0.0,0.0,0.0,0.0,0.0,0.0,0.0,0.0,0.0,0.0,0.0,0.0,0.0,0.0,0.0,0.0,0.0,0.0,0.0,0.0,0.0,0.0,0.0,0.0,0.0,0.0,0.0,0.0,0.0,0.0,0.0,0.0,0.0,0.0,0.0,0.0,0.0,0.0,0.0,0.0,0.0,0.0,0.0,0.0,0.0,0.0,0.0,0.0,0.0,0.0,0.0,0.0,0.0,0.0,0.0,0.0,0.0,0.0,0.0,0.0,0.0,0.0,0.0,0.0,0.0,0.0,0.0,0.0,0.0,0.0,0.0,0.0,0.0,0.0,0.0,0.0,0.0,0.0,0.0,0.0,0.0,0.0,0.0,0.0,0.0,0.0,0.0,0.0,0.0,0.0,0.0,0.0,0.0,0.0,0.0,0.0,0.0,0.0,0.0,0.0,0.0,0.0,0.0,0.0,0.0,0.0,0.0,0.0,0.0,0.0,0.0,0.0,0.0,0.0,0.0,0.0,0.0,0.0,0.0,0.0,0.0,0.0,0.0,0.0,0.0,0.0,0.0,0.0,0.0,0.0,0.0,0.0,0.0,0.0,0.0,0.0,0.0,0.0,0.0,-0.8889,0.0,0.0,0.0,0.0,0.0,0.0,0.0,0.0,0.0,0.0,0.0,0.0,0.0,0.0,0.0,0.0,0.0,0.0,0.0,0.0,0.0,0.0,0.0,0.0,0.0,0.0,0.0,0.0,0.0,0.0,0.0,0.0,0.0,0.0,0.0,0.0,0.0,0.0,0.0,0.0,0.0,0.0,0.0,0.0,0.0,0.0,0.0,0.0,0.0,0.0,0.0,0.0,0.0,0.0,0.0,0.0,0.0,0.0,0.0,0.0,0.0,0.0,0.0,0.0,0.0,0.0,0.0,0.0,0.0,0.0,0.0,0.0,0.0,0.0,0.0,0.0,0.0,0.0,0.0,0.0,0.0,0.0,0.0,0.0,0.0,0.0,0.0,0.0,0.0,0.0,0.0,0.0,0.0,0.0,0.0,0.0,0.0,0.0,0.0,0.0,0.0,0.0,0.0,0.0,0.0,0.0,0.0,0.0,0.0,0.0,-0.7704,-0.8062,-0.8728,-0.9142,-0.9226,0.0,0.0,0.0,0.0,0.0,0.0,0.0,0.0,0.0,0.0,0.0,0.0,0.0,0.0,0.0,0.0,0.0,0.0,0.0,0.0,0.0,0.0,0.0,0.0,0.0,0.0,0.0,0.0,0.0,0.0,0.0,0.0,0.0,0.0,0.0,0.0,0.0,0.0,0.0,0.0,0.0,0.0,0.0,0.0,0.0,0.0,0.0,0.0,0.0,0.0,0.0,0.0,0.0,0.0,0.0,0.0,0.0,0.0,0.0,0.0,0.0,0.0,0.0,0.0,0.0,0.0,0.0,0.0,0.0,0.0,0.0,0.0,0.0,0.0,0.0,0.0,0.0,0.0,0.0,0.0,0.0,0.0,0.0,0.0,0.0,0.0,0.0,0.0,0.0,0.0,0.0,0.0,0.0,0.0,0.0,0.0,0.0,0.0,0.0,0.0,0.0,0.0,0.0,0.0,0.0,0.0,0.0,0.0,0.0,0.0,0.0,0.0,-0.8971,-0.9374,-0.9492,0.0,0.0,0.0,0.0,0.0,0.0,0.0,0.0,0.0,0.0,0.0,0.0,0.0,0.0,0.0,0.0,0.0,0.0,0.0,0.0,0.0,0.0,0.0,0.0,0.0,0.0,0.0,0.0,0.0,0.0,0.0,0.0,0.0,0.0,0.0,0.0,0.0,0.0,0.0,0.0,0.0,0.0,0.0,0.0,0.0,0.0,0.0,0.0,0.0,0.0,0.0,0.0,0.0,0.0,0.0,0.0,0.0,0.0,0.0,0.0,0.0,0.0,0.0,0.0,0.0,0.0,0.0,0.0,0.0,0.0,0.0,0.0,0.0,0.0,0.0,0.0,0.0,0.0,0.0,0.0,0.0,0.0,0.0,0.0,0.0,0.0,0.0,0.0,0.0,0.0,0.0,0.0,0.0,0.0,0.0,0.0,0.0,0.0,0.0,0.0,0.0,0.0,0.0,0.0,0.0,0.0,0.0,0.0,0.0,0.0,-0.8263,-0.8476,-0.9288,0.0,-0.9796,0.0,0.0,0.0,0.0,0.0,0.0,0.0,0.0,0.0,0.0,0.0,0.0,0.0,0.0,0.0,0.0,0.0,0.0,0.0,0.0,0.0,0.0,0.0,0.0,0.0,0.0,0.0,0.0,0.0,0.0,0.0,0.0,0.0,0.0,0.0,0.0,0.0,0.0,0.0,0.0,0.0,0.0,0.0,0.0,0.0,0.0,0.0,0.0,0.0,0.0,0.0,0.0,0.0,0.0,0.0,0.0,0.0,0.0,0.0,0.0,0.0,0.0,0.0,0.0,0.0,0.0,0.0,0.0,0.0,0.0,0.0,0.0,0.0,0.0,0.0,0.0,0.0,0.0,0.0,0.0,0.0,0.0,0.0,0.0,0.0,0.0,0.0,0.0,0.0,0.0,0.0,0.0,0.0,0.0,0.0,0.0,0.0,0.0,0.0,0.0,0.0,0.0,0.0,0.0,0.0,0.0,0.0,0.0,0.0,0.0,0.0,-0.889,-0.9917,-1.0307,0.0,0.0,0.0,0.0,0.0,0.0,0.0,0.0,0.0,0.0,0.0,0.0,0.0,0.0,0.0,0.0,0.0,0.0,0.0,0.0,0.0,0.0,0.0,0.0,0.0,0.0,0.0,0.0,0.0,0.0,0.0,0.0,0.0,0.0,0.0,0.0,0.0,0.0,0.0,0.0,0.0,0.0,0.0,0.0,0.0,0.0,0.0,0.0,0.0,0.0,0.0,0.0,0.0,0.0,0.0,0.0,0.0,0.0,0.0,0.0,0.0,0.0,0.0,0.0,0.0,0.0,0.0,0.0,0.0,0.0,0.0,0.0,0.0,0.0,0.0,0.0,0.0,0.0,0.0,0.0,0.0,0.0,0.0,0.0,0.0,0.0,0.0,0.0,0.0,0.0,0.0,0.0,0.0,0.0,0.0,0.0,0.0,0.0,0.0,0.0,0.0,0.0,0.0,0.0,0.0,0.0,0.0,0.0,0.0,0.0,-0.848,0.0,-0.9602,-1.0495,-1.0781,-1.0327,0.0,0.0,0.0,0.0,0.0,0.0,0.0,0.0,0.0,0.0,0.0,0.0,0.0,0.0,0.0,0.0,0.0,0.0,0.0,0.0,0.0,0.0,0.0,0.0,0.0,0.0,0.0,0.0,0.0,0.0,0.0,0.0,0.0,0.0,0.0,0.0,0.0,0.0,0.0,0.0,0.0,0.0,0.0,0.0,0.0,0.0,0.0,0.0,0.0,0.0,0.0,0.0,0.0,0.0,0.0,0.0,0.0,0.0,0.0,0.0,0.0,0.0,0.0,0.0,0.0,0.0,0.0,0.0,0.0,0.0,0.0,0.0,0.0,0.0,0.0,0.0,0.0,0.0,0.0,0.0,0.0,0.0,0.0,0.0,0.0,0.0,0.0,0.0,0.0,0.0,0.0,0.0,0.0,0.0,0.0,0.0,0.0,0.0,0.0,0.0,0.0,0.0,0.0,0.0,0.0,0.0,0.0,0.0,0.0,-0.8895,-0.9642,-1.0567,-1.0986,-1.1006,0.0,0.0,0.0,0.0,0.0,0.0,0.0,0.0,0.0,0.0,0.0,0.0,0.0,0.0,0.0,0.0,0.0,0.0,0.0,0.0,0.0,0.0,0.0,0.0,0.0,0.0,0.0,0.0,0.0,0.0,0.0,0.0,0.0,0.0,0.0,0.0,0.0,0.0,0.0,0.0,0.0,0.0,0.0,0.0,0.0,0.0,0.0,0.0,0.0,0.0,0.0,0.0,0.0,0.0,0.0,0.0,0.0,0.0,0.0,0.0,0.0,0.0,0.0,0.0,0.0,0.0,0.0,0.0,0.0,0.0,0.0,0.0,0.0,0.0,0.0,0.0,0.0,0.0,0.0,0.0,0.0,0.0,0.0,0.0,0.0,0.0,0.0,0.0,0.0,0.0,0.0,0.0,0.0,0.0,0.0,0.0,0.0,0.0,0.0,0.0,0.0,0.0,0.0,0.0,0.0,0.0,0.0,0.0,0.0,-0.8748,-0.9527,-1.023,-1.0862,-1.0919,-1.0915,0.0,0.0,0.0,0.0,0.0,0.0,0.0,0.0,0.0,0.0,0.0,0.0,0.0,0.0,0.0,0.0,0.0,0.0,0.0,0.0,0.0,0.0,0.0,0.0,0.0,0.0,0.0,0.0,0.0,0.0,0.0,0.0,0.0,0.0,0.0,0.0,0.0,0.0,0.0,0.0,0.0,0.0,0.0,0.0,0.0,0.0,0.0,0.0,0.0,0.0,0.0,0.0,0.0,0.0,0.0,0.0,0.0,0.0,0.0,0.0,0.0,0.0,0.0,0.0,0.0,0.0,0.0,0.0,0.0,0.0,0.0,0.0,0.0,0.0,0.0,0.0,0.0,0.0,0.0,0.0,0.0,0.0,0.0,0.0,0.0,0.0,0.0,0.0,0.0,0.0,0.0,0.0,0.0,0.0,0.0,0.0,0.0,0.0,0.0,0.0,0.0,0.0,0.0,0.0,0.0,0.0,0.0,0.0,0.0,-0.9355,0.0,-1.0649,0.0,-1.1151,-1.1114,0.0,0.0,0.0,0.0,0.0,0.0,0.0,0.0,0.0,0.0,0.0,0.0,0.0,0.0,0.0,0.0,0.0,0.0,0.0,0.0,0.0,0.0,0.0,0.0,0.0,0.0,0.0,0.0,0.0,0.0,0.0,0.0,0.0,0.0,0.0,0.0,0.0,0.0,0.0,0.0,0.0,0.0,0.0,0.0,0.0,0.0,0.0,0.0,0.0,0.0,0.0,0.0,0.0,0.0,0.0,0.0,0.0,0.0,0.0,0.0,0.0,0.0,0.0,0.0,0.0,0.0,0.0,0.0,0.0,0.0,0.0,0.0,0.0,0.0,0.0,0.0,0.0,0.0,0.0,0.0,0.0,0.0,0.0,0.0,0.0,0.0,0.0,0.0,0.0,0.0,0.0,0.0,0.0,0.0,0.0,0.0,0.0,0.0,0.0,0.0,0.0,0.0,0.0,0.0,0.0,0.0,0.0,0.0,-0.8998,-1.0064,-1.049,-1.0986,-1.1479,-1.1729,-1.1688,0.0,0.0,0.0,0.0,0.0,0.0,0.0,0.0,0.0,0.0,0.0,0.0,0.0,0.0,0.0,0.0,0.0,0.0,0.0,0.0,0.0,0.0,0.0,0.0,0.0,0.0,0.0,0.0,0.0,0.0,0.0,0.0,0.0,0.0,0.0,0.0,0.0,0.0,0.0,0.0,0.0,0.0,0.0,0.0,0.0,0.0,0.0,0.0,0.0,0.0,0.0,0.0,0.0,0.0,0.0,0.0,0.0,0.0,0.0,0.0,0.0,0.0,0.0,0.0,0.0,0.0,0.0,0.0,0.0,0.0,0.0,0.0,0.0,0.0,0.0,0.0,0.0,0.0,0.0,0.0,0.0,0.0,0.0,0.0,0.0,0.0,0.0,0.0,0.0,0.0,0.0,0.0,0.0,0.0,0.0,0.0,0.0,0.0,0.0,0.0,0.0,0.0,0.0,0.0,0.0,0.0,0.0,0.0,0.0,-1.048,-1.0905,-1.1314,-1.1689,-1.1692,-1.1569,0.0,0.0,0.0,0.0,0.0,0.0,0.0,0.0,0.0,0.0,0.0,0.0,0.0,0.0,0.0,0.0,0.0,0.0,0.0,0.0,0.0,0.0,0.0,0.0,0.0,0.0,0.0,0.0,0.0,0.0,0.0,0.0,0.0,0.0,0.0,0.0,0.0,0.0,0.0,0.0,0.0,0.0,0.0,0.0,0.0,0.0,0.0,0.0,0.0,0.0,0.0,0.0,0.0,0.0,0.0,0.0,0.0,0.0,0.0,0.0,0.0,0.0,0.0,0.0,0.0,0.0,0.0,0.0,0.0,0.0,0.0,0.0,0.0,0.0,0.0,0.0,0.0,0.0,0.0,0.0,0.0,0.0,0.0,0.0,0.0,0.0,0.0,0.0,0.0,0.0,0.0,0.0,0.0,0.0,0.0,0.0,0.0,0.0,0.0,0.0,0.0,0.0,0.0,0.0,0.0,0.0,0.0,0.0,0.0,-1.0997,-1.1255,-1.1547,-1.1884,-1.1902,-1.1739,-1.1349,0.0,0.0,0.0,0.0,0.0,0.0,0.0,0.0,0.0,0.0,0.0,0.0,0.0,0.0,0.0,0.0,0.0,0.0,0.0,0.0,0.0,0.0,0.0,0.0,0.0,0.0,0.0,0.0,0.0,0.0,0.0,0.0,0.0,0.0,0.0,0.0,0.0,0.0,0.0,0.0,0.0,0.0,0.0,0.0,0.0,0.0,0.0,0.0,0.0,0.0,0.0,0.0,0.0,0.0,0.0,0.0,0.0,0.0,0.0,0.0,0.0,0.0,0.0,0.0,0.0,0.0,0.0,0.0,0.0,0.0,0.0,0.0,0.0,0.0,0.0,0.0,0.0,0.0,0.0,0.0,0.0,0.0,0.0,0.0,0.0,0.0,0.0,0.0,0.0,0.0,0.0,0.0,0.0,0.0,0.0,0.0,0.0,0.0,0.0,0.0,0.0,0.0,0.0,0.0,0.0,0.0,0.0,0.0,-1.1522,-1.1495,-1.1695,-1.2077,-1.2354,-1.2138,0.0,0.0,0.0,0.0,0.0,0.0,0.0,0.0,0.0,0.0,0.0,0.0,0.0,0.0,0.0,0.0,0.0,0.0,0.0,0.0,0.0,0.0,0.0,0.0,0.0,0.0,0.0,0.0,0.0,0.0,0.0,0.0,0.0,0.0,0.0,0.0,0.0,0.0,0.0,0.0,0.0,0.0,0.0,0.0,0.0,0.0,0.0,0.0,0.0,0.0,0.0,0.0,0.0,0.0,0.0,0.0,0.0,0.0,0.0,0.0,0.0,0.0,0.0,0.0,0.0,0.0,0.0,0.0,0.0,0.0,0.0,0.0,0.0,0.0,0.0,0.0,0.0,0.0,0.0,0.0,0.0,0.0,0.0,0.0,0.0,0.0,0.0,0.0,0.0,0.0,0.0,0.0,0.0,0.0,0.0,0.0,0.0,0.0,0.0,0.0,0.0,0.0,0.0,0.0,0.0,0.0,0.0,0.0,0.0,-1.1651,-1.1708,-1.1864,-1.218,-1.2478,-1.2233,0.0,0.0,0.0,0.0,0.0,0.0,0.0,0.0,0.0,0.0,0.0,0.0,0.0,0.0,0.0,0.0,0.0,0.0,0.0,0.0,0.0,0.0,0.0,0.0,0.0,0.0,0.0,0.0,0.0,0.0,0.0,0.0,0.0,0.0,0.0,0.0,0.0,0.0,0.0,0.0,0.0,0.0,0.0,0.0,0.0,0.0,0.0,0.0,0.0,0.0,0.0,0.0,0.0,0.0,0.0,0.0,0.0,0.0,0.0,0.0,0.0,0.0,0.0,0.0,0.0,0.0,0.0,0.0,0.0,0.0,0.0,0.0,0.0,0.0,0.0,0.0,0.0,0.0,0.0,0.0,0.0,0.0,0.0,0.0,0.0,0.0,0.0,0.0,0.0,0.0,0.0,0.0,0.0,0.0,0.0,0.0,0.0,0.0,0.0,0.0,0.0,0.0,0.0,0.0,0.0,0.0,0.0,0.0,-1.1608,-1.1762,-1.1824,-1.1949,-1.2138,-1.2431,-1.2197,0.0,0.0,0.0,0.0,0.0,0.0,0.0,0.0,0.0,0.0,0.0,0.0,0.0,0.0,0.0,0.0,0.0,0.0,0.0,0.0,0.0,0.0,0.0,0.0,0.0,0.0,0.0,0.0,0.0,0.0,0.0,0.0,0.0,0.0,0.0,0.0,0.0,0.0,0.0,0.0,0.0,0.0,0.0,0.0,0.0,0.0,0.0,0.0,0.0,0.0,0.0,0.0,0.0,0.0,0.0,0.0,0.0,0.0,0.0,0.0,0.0,0.0,0.0,0.0,0.0,0.0,0.0,0.0,0.0,0.0,0.0,0.0,0.0,0.0,0.0,0.0,0.0,0.0,0.0,0.0,0.0,0.0,0.0,0.0,0.0,0.0,0.0,0.0,0.0,0.0,0.0,0.0,0.0,0.0,0.0,0.0,0.0,0.0,0.0,0.0,0.0,0.0,0.0,0.0,0.0,0.0,0.0,0.0,-1.1719,-1.1782,-1.185,-1.1949,-1.2071,-1.2324,-1.2123,0.0,0.0,0.0,0.0,0.0,0.0,0.0,0.0,0.0,0.0,0.0,0.0,0.0,0.0,0.0,0.0,0.0,0.0,0.0,0.0,0.0,0.0,0.0,0.0,0.0,0.0,0.0,0.0,0.0,0.0,0.0,0.0,0.0,0.0,0.0,0.0,0.0,0.0,0.0,0.0,0.0,0.0,0.0,0.0,0.0,0.0,0.0,0.0,0.0,0.0,0.0,0.0,0.0,0.0,0.0,0.0,0.0,0.0,0.0,0.0,0.0,0.0,0.0,0.0,0.0,0.0,0.0,0.0,0.0,0.0,0.0,0.0,0.0,0.0,0.0,0.0,0.0,0.0,0.0,0.0,0.0,0.0,0.0,0.0,0.0,0.0,0.0,0.0,0.0,0.0,0.0,0.0,0.0,0.0,0.0,0.0,0.0,0.0,0.0,0.0,0.0,0.0,0.0,0.0,0.0,0.0,0.0,0.0,-1.173,-1.1719,-1.173,-1.1782,-1.1842,-1.2222,-1.2015,0.0,0.0,0.0,0.0,0.0,0.0,0.0,0.0,0.0,0.0,0.0,0.0,0.0,0.0,0.0,0.0,0.0,0.0,0.0,0.0,0.0,0.0,0.0,0.0,0.0,0.0,0.0,0.0,0.0,0.0,0.0,0.0,0.0,0.0,0.0,0.0,0.0,0.0,0.0,0.0,0.0,0.0,0.0,0.0,0.0,0.0,0.0,0.0,-2.235,0.0,0.0,0.0,0.0,0.0,0.0,0.0,0.0,0.0,0.0,0.0,0.0,0.0,0.0,0.0,0.0,0.0,0.0,0.0,0.0,0.0,0.0,0.0,0.0,0.0,0.0,0.0,0.0,0.0,0.0,0.0,0.0,0.0,0.0,0.0,0.0,0.0,0.0,0.0,0.0,0.0,0.0,0.0,0.0,0.0,0.0,0.0,0.0,0.0,0.0,0.0,0.0,0.0,0.0,0.0,0.0,0.0,0.0,0.0,-1.1762,-1.1688,-1.1688,-1.1719,-1.1771,-1.1895,-1.1664,0.0,0.0,0.0,0.0,0.0,0.0,0.0,0.0,0.0,0.0,0.0,0.0,0.0,0.0,0.0,0.0,0.0,0.0,0.0,0.0,0.0,0.0,0.0,0.0,0.0,0.0,0.0,0.0,0.0,0.0,0.0,0.0,0.0,0.0,0.0,0.0,0.0,0.0,0.0,0.0,0.0,0.0,0.0,0.0,0.0,0.0,0.0,0.0,0.0,0.0,0.0,0.0,0.0,0.0,0.0,0.0,0.0,0.0,0.0,0.0,0.0,0.0,0.0,0.0,0.0,0.0,0.0,0.0,0.0,0.0,0.0,0.0,0.0,0.0,0.0,0.0,0.0,0.0,0.0,0.0,0.0,0.0,0.0,0.0,0.0,0.0,0.0,0.0,0.0,0.0,0.0,0.0,0.0,0.0,0.0,0.0,0.0,0.0,0.0,0.0,0.0,0.0,0.0,0.0,0.0,0.0,0.0,-0.8714,-1.1087,-1.1639,-1.1651,-1.1608,-1.1608,-1.1501,-1.1244,-1.0772,0.0,0.0,0.0,0.0,0.0,0.0,0.0,0.0,0.0,0.0,0.0,0.0,0.0,0.0,0.0,0.0,0.0,0.0,0.0,0.0,0.0,0.0,0.0,0.0,0.0,0.0,0.0,0.0,0.0,0.0,0.0,0.0,0.0,0.0,0.0,0.0,0.0,0.0,-1.9149,-2.02,0.0,0.0,0.0,0.0,0.0,0.0,0.0,0.0,-2.4846,0.0,0.0,0.0,0.0,0.0,0.0,0.0,0.0,0.0,0.0,0.0,0.0,0.0,0.0,0.0,0.0,0.0,0.0,0.0,0.0,0.0,0.0,0.0,0.0,0.0,0.0,0.0,0.0,0.0,0.0,0.0,0.0,0.0,0.0,0.0,0.0,0.0,0.0,0.0,0.0,0.0,0.0,0.0,0.0,0.0,0.0,0.0,0.0,0.0,0.0,0.0,0.0,0.0,0.0,0.0,0.0,-0.47,-0.544,-0.7669,-1.1404,-1.1373,-1.126,-1.1207,-1.1228,-1.0877,-1.0141,0.0,0.0,0.0,0.0,0.0,0.0,0.0,0.0,0.0,0.0,0.0,0.0,0.0,0.0,0.0,0.0,0.0,0.0,0.0,0.0,0.0,0.0,0.0,0.0,0.0,0.0,0.0,0.0,0.0,0.0,0.0,0.0,0.0,0.0,0.0,0.0,0.0,0.0,0.0,-2.0939,-2.1864,0.0,0.0,0.0,0.0,0.0,0.0,0.0,0.0,-2.4964,0.0,0.0,0.0,0.0,0.0,0.0,0.0,0.0,0.0,0.0,0.0,0.0,0.0,0.0,0.0,0.0,0.0,0.0,0.0,0.0,0.0,0.0,0.0,0.0,0.0,0.0,0.0,0.0,0.0,0.0,0.0,0.0,0.0,0.0,0.0,0.0,0.0,0.0,0.0,0.0,0.0,0.0,0.0,0.0,0.0,0.0,0.0,0.0,0.0,0.0,0.0,0.0,0.0,0.0,0.0,-0.0853,-0.3253,-0.6704,-1.1089,-1.1045,-1.0926,-1.0873,-1.0591,-1.018,0.0,0.0,0.0,0.0,0.0,0.0,0.0,0.0,0.0,0.0,0.0,0.0,0.0,0.0,0.0,0.0,0.0,0.0,0.0,0.0,0.0,0.0,0.0,0.0,0.0,0.0,0.0,0.0,0.0,0.0,0.0,0.0,0.0,0.0,0.0,0.0,0.0,0.0,0.0,0.0,-2.143,-2.2151,-2.2738,0.0,0.0,0.0,0.0,0.0,0.0,-2.4752,-2.5046,0.0,0.0,0.0,0.0,0.0,0.0,0.0,0.0,0.0,0.0,0.0,0.0,0.0,0.0,0.0,0.0,0.0,0.0,0.0,0.0,0.0,0.0,0.0,0.0,0.0,0.0,0.0,0.0,0.0,0.0,0.0,0.0,0.0,0.0,0.0,0.0,0.0,0.0,0.0,0.0,0.0,0.0,0.0,0.0,0.0,0.0,0.0,0.0,0.0,0.0,0.0,0.0,0.0,0.0,0.0,0.2719,-0.0958,-0.5535,-1.0694,-1.0764,-1.0611,-1.0557,-0.997,-0.9505,0.0,0.0,0.0,0.0,0.0,0.0,0.0,0.0,0.0,0.0,0.0,0.0,0.0,0.0,0.0,0.0,0.0,0.0,0.0,0.0,0.0,0.0,0.0,0.0,0.0,0.0,0.0,0.0,0.0,0.0,0.0,0.0,0.0,0.0,0.0,0.0,0.0,0.0,0.0,0.0,0.0,-2.2217,-2.2445,-2.2668,0.0,0.0,0.0,0.0,-2.4308,-2.467,0.0,0.0,0.0,0.0,0.0,0.0,0.0,0.0,0.0,0.0,0.0,0.0,0.0,0.0,0.0,0.0,0.0,0.0,0.0,0.0,0.0,0.0,0.0,0.0,0.0,0.0,0.0,0.0,0.0,0.0,0.0,0.0,0.0,0.0,0.0,0.0,0.0,0.0,0.0,0.0,0.0,0.0,0.0,0.0,0.0,0.0,0.0,0.0,0.0,0.0,0.0,0.0,0.0,0.0,0.0,0.0,0.3164,0.2442,-0.198,-1.0225,-1.0472,-1.0317,-1.0152,-0.9704,-0.9245,0.0,0.0,0.0,0.0,0.0,0.0,0.0,0.0,0.0,0.0,0.0,0.0,0.0,0.0,0.0,0.0,0.0,0.0,0.0,0.0,0.0,0.0,0.0,0.0,0.0,0.0,0.0,0.0,0.0,0.0,0.0,0.0,0.0,0.0,0.0,0.0,0.0,0.0,0.0,0.0,0.0,-2.189,-2.2056,-2.2354,-2.2659,0.0,0.0,-2.3771,-2.4174,-2.4601,0.0,0.0,0.0,0.0,0.0,0.0,0.0,0.0,0.0,0.0,0.0,0.0,0.0,0.0,0.0,0.0,0.0,0.0,0.0,0.0,0.0,0.0,0.0,0.0,0.0,0.0,0.0,0.0,0.0,0.0,0.0,0.0,0.0,0.0,0.0,0.0,0.0,0.0,0.0,0.0,0.0,0.0,0.0,0.0,0.0,0.0,0.0,0.0,0.0,0.0,0.0,0.0,0.0,0.0,0.0,1.2492,0.3481,0.3244,-0.1154,-1.0055,-1.0103,-0.9869,-0.9751,-0.9032,-0.8548,0.0,0.0,0.0,0.0,0.0,0.0,0.0,0.0,0.0,0.0,0.0,0.0,0.0,0.0,0.0,0.0,0.0,0.0,0.0,0.0,0.0,0.0,0.0,0.0,0.0,0.0,0.0,0.0,0.0,0.0,0.0,0.0,0.0,0.0,0.0,0.0,0.0,0.0,0.0,0.0,0.0,0.0,-2.1562,-2.189,0.0,0.0,0.0,-2.3604,-2.407,0.0,0.0,0.0,0.0,0.0,0.0,0.0,0.0,0.0,0.0,0.0,0.0,0.0,0.0,0.0,0.0,0.0,0.0,0.0,0.0,0.0,0.0,0.0,0.0,0.0,0.0,0.0,0.0,0.0,0.0,0.0,0.0,0.0,0.0,0.0,0.0,0.0,0.0,0.0,0.0,0.0,0.0,0.0,0.0,0.0,0.0,0.0,0.0,0.0,0.0,0.0,0.0,0.0,0.0,0.0,0.0,0.0,0.3608,0.3535,-0.0851,-0.9756,-0.9721,-0.9424,-0.9286,-0.8407,0.0,0.0,0.0,0.0,0.0,0.0,0.0,0.0,0.0,0.0,0.0,0.0,0.0,0.0,0.0,0.0,0.0,0.0,0.0,0.0,0.0,0.0,0.0,0.0,0.0,0.0,0.0,-1.3544,0.0,0.0,0.0,0.0,0.0,0.0,0.0,0.0,0.0,0.0,0.0,0.0,0.0,0.0,-2.0704,-2.1047,-2.1394,-2.1822,0.0,0.0,-2.3763,-2.4549,-2.5073,-2.552,0.0,0.0,0.0,0.0,0.0,0.0,0.0,0.0,0.0,0.0,0.0,0.0,0.0,0.0,0.0,0.0,0.0,0.0,0.0,0.0,0.0,0.0,0.0,0.0,0.0,0.0,0.0,0.0,0.0,0.0,0.0,0.0,0.0,0.0,0.0,0.0,0.0,0.0,0.0,0.0,0.0,0.0,0.0,0.0,0.0,0.0,0.0,0.0,0.0,0.0,0.0,0.0,0.0,0.0,0.0,0.3967,0.3828,-0.051,-0.9405,-0.9417,-0.9081,-0.8758,-0.8063,-0.7662,0.0,0.0,0.0,0.0,0.0,0.0,0.0,0.0,0.0,0.0,0.0,0.0,0.0,0.0,0.0,0.0,0.0,0.0,0.0,0.0,0.0,0.0,0.0,0.0,0.0,0.0,0.0,0.0,0.0,0.0,0.0,0.0,0.0,0.0,0.0,0.0,0.0,0.0,0.0,0.0,0.0,-2.0124,-2.0494,-2.0861,-2.151,0.0,0.0,-2.4532,-2.5934,-2.6637,-2.7196,-2.7644,0.0,0.0,0.0,0.0,0.0,0.0,0.0,0.0,0.0,0.0,0.0,0.0,0.0,0.0,0.0,0.0,0.0,0.0,0.0,0.0,0.0,0.0,0.0,0.0,0.0,0.0,0.0,0.0,0.0,0.0,0.0,0.0,0.0,0.0,0.0,0.0,0.0,0.0,0.0,0.0,0.0,0.0,0.0,0.0,0.0,0.0,0.0,0.0,0.0,0.0,0.0,0.0,0.0,1.3191,0.4081,0.4081,-0.0271,-0.9024,-0.9092,-0.8774,-0.8596,-0.785,-0.7438,0.0,0.0,0.0,0.0,0.0,0.0,0.0,0.0,0.0,0.0,0.0,0.0,0.0,0.0,0.0,0.0,0.0,0.0,0.0,0.0,0.0,0.0,0.0,0.0,0.0,0.0,0.0,0.0,-1.4805,-1.4986,-1.4866,0.0,0.0,0.0,0.0,0.0,0.0,0.0,0.0,0.0,0.0,-1.9536,-2.0015,-2.0447,0.0,0.0,-2.3571,-2.4546,-2.6072,-2.6795,-2.7343,-2.7768,-2.8024,0.0,0.0,0.0,0.0,0.0,0.0,0.0,0.0,0.0,0.0,0.0,0.0,0.0,0.0,0.0,0.0,0.0,0.0,0.0,0.0,0.0,0.0,0.0,0.0,0.0,0.0,0.0,0.0,0.0,0.0,0.0,0.0,0.0,0.0,0.0,0.0,0.0,0.0,0.0,0.0,0.0,0.0,0.0,0.0,0.0,0.0,0.0,0.0,0.0,0.0,0.0,0.0,1.2076,0.4326,0.3037,-0.1363,-0.904,-0.8805,-0.8504,-0.8271,-0.7601,-0.7281,0.0,0.0,0.0,0.0,0.0,0.0,0.0,0.0,0.0,0.0,0.0,0.0,0.0,0.0,0.0,0.0,0.0,0.0,0.0,0.0,0.0,0.0,0.0,0.0,0.0,0.0,0.0,0.0,-1.4676,-1.4742,-1.4553,0.0,0.0,0.0,0.0,0.0,0.0,0.0,0.0,0.0,0.0,-1.9087,-1.9609,-2.0166,-2.1147,-2.2912,-2.3859,-2.497,-2.6745,-2.7522,-2.806,-2.8499,0.0,0.0,0.0,0.0,0.0,0.0,0.0,0.0,0.0,0.0,0.0,0.0,0.0,0.0,0.0,0.0,0.0,0.0,0.0,0.0,0.0,0.0,0.0,0.0,0.0,0.0,0.0,-0.872,0.0,0.0,-0.9535,0.0,0.0,0.0,0.0,0.0,0.0,0.0,0.0,0.0,0.0,0.0,0.0,0.0,0.0,0.0,0.0,0.0,0.0,0.0,0.0,0.0,0.0,0.9201,0.4553,0.0307,-0.415,-0.8744,-0.8582,-0.821,-0.783,-0.7433,-0.713,-0.7024,0.0,0.0,0.0,0.0,0.0,0.0,0.0,0.0,0.0,0.0,0.0,0.0,0.0,0.0,0.0,0.0,0.0,0.0,0.0,0.0,0.0,0.0,0.0,0.0,0.0,0.0,-1.4814,-1.4292,-1.4082,0.0,0.0,0.0,0.0,0.0,0.0,0.0,0.0,0.0,0.0,-1.8293,-1.8743,-1.9339,-1.9942,-2.1166,-2.3514,-2.4589,-2.5968,-2.8217,-2.9116,-2.9735,0.0,0.0,0.0,0.0,0.0,0.0,0.0,0.0,0.0,0.0,0.0,0.0,0.0,0.0,0.0,0.0,0.0,0.0,0.0,0.0,0.0,0.0,0.0,0.0,0.0,0.0,0.0,-0.9214,-0.9384,0.0,0.0,0.0,0.0,0.0,0.0,0.0,0.0,0.0,0.0,0.0,-0.5263,-0.2097,0.0,0.0,0.0,0.0,0.0,0.0,0.0,0.0,0.0,0.0,0.0,0.0,0.7804,0.0609,-0.123,-0.4178,-0.8476,-0.8492,-0.8321,-0.8074,-0.7522,-0.7188,-0.6996,0.0,0.0,0.0,0.0,0.0,0.0,0.0,0.0,0.0,0.0,0.0,0.0,0.0,0.0,0.0,0.0,0.0,0.0,0.0,0.0,0.0,0.0,0.0,0.0,0.0,-1.4647,0.0,0.0,0.0,0.0,0.0,0.0,0.0,0.0,0.0,0.0,0.0,-1.7137,-1.7427,-1.8002,-1.8609,-1.9259,-2.0031,-2.127,0.0,0.0,0.0,0.0,0.0,0.0,0.0,0.0,0.0,0.0,0.0,0.0,0.0,0.0,-2.9024,-2.8753,-2.8368,-2.7821,-2.6934,0.0,0.0,0.0,0.0,0.0,0.0,0.0,0.0,0.0,0.0,0.0,0.0,0.0,0.0,-0.9487,0.0,-0.9858,0.0,0.0,0.0,0.0,0.0,0.0,0.0,0.0,-0.2743,-0.0385,0.0194,0.3099,0.4649,0.0,0.6464,0.5504,0.0,0.0,0.0,0.0,0.0,0.0,0.0,0.0,0.4036,-0.1607,-0.3429,-0.5636,-0.8317,-0.841,-0.8336,-0.8283,-0.7769,-0.7454,-0.7363,-0.768,-0.8036,0.0,0.0,0.0,0.0,0.0,0.0,0.0,0.0,0.0,0.0,0.0,0.0,0.0,0.0,0.0,0.0,0.0,0.0,0.0,0.0,0.0,0.0,0.0,-1.4587,0.0,0.0,0.0,0.0,0.0,0.0,0.0,0.0,0.0,-1.6014,-1.6374,-1.6808,-1.7179,-1.7908,-1.863,-1.9361,0.0,0.0,0.0,0.0,0.0,0.0,0.0,-2.9591,-2.9921,-3.0375,-3.0734,-3.0791,-3.0738,-3.0647,-3.0463,0.0,0.0,-2.9616,-2.9193,-2.8629,-2.7696,-2.7106,-2.6606,-2.6036,-2.5614,-2.531,0.0,0.0,0.0,0.0,0.0,0.0,0.0,0.0,-0.8823,-0.9097,0.0,-0.9693,0.0,0.0,0.0,0.0,0.0,-0.5074,0.0,0.0,0.2588,0.516,0.5883,0.5682,0.5813,0.6689,1.053,1.2258,1.2105,1.1994,0.0,0.0,0.0,0.0,0.0,0.0,-0.1827,-0.2141,-0.6213,-0.8431,-0.8414,-0.8418,-0.8406,-0.8419,-0.8085,-0.7985,-0.8105,-0.8129,-0.8347,-0.8783,-0.9203,0.0,0.0,0.0,0.0,0.0,0.0,0.0,0.0,0.0,0.0,0.0,0.0,0.0,0.0,0.0,0.0,0.0,0.0,0.0,0.0,-1.4697,0.0,0.0,0.0,0.0,0.0,0.0,0.0,0.0,0.0,0.0,-1.5591,-1.612,-1.6716,-1.7236,0.0,0.0,0.0,0.0,-2.1675,-2.3264,-2.4204,-2.5216,-2.6562,-2.7847,-2.8791,-2.911,0.0,0.0,-3.0738,-3.0721,-3.0672,-3.0528,-3.0346,-3.0066,-2.9698,-2.9242,-2.8773,-2.8352,-2.7803,-2.7329,-2.6782,-2.6165,-2.5753,1.4016,0.0,0.0,0.0,0.0,0.2655,0.0257,-0.3593,-0.3856,-0.6335,-1.0248,-1.0474,0.0,0.0,0.0,0.0,0.0,0.0,0.0176,0.4532,0.9159,1.1502,1.1932,1.509,1.6703,1.6981,1.8044,1.8558,1.8528,1.849,1.6257,1.2031,0.0,0.0,0.0,0.0,-0.3403,-0.6455,-0.8054,-0.8737,-0.8647,-0.8704,-0.8745,-0.8678,-0.8699,-0.8602,-0.8415,-0.8659,-0.888,-0.9087,-0.9461,0.0,0.0,0.0,0.0,0.0,0.0,0.0,0.0,0.0,0.0,0.0,0.0,0.0,0.0,0.0,0.0,0.0,0.0,0.0,-1.4894,-1.4805,-1.4684,0.0,0.0,0.0,0.0,0.0,0.0,0.0,0.0,0.0,-1.5812,-1.6337,-1.6837,0.0,0.0,-1.9295,-2.0096,-2.107,-2.2054,-2.3115,-2.4347,0.0,-2.6162,-2.7292,-2.8122,-2.831,-2.9211,-2.9912,-2.987,-3.0378,-3.075,-3.0647,-3.0433,-3.0184,-2.9871,-2.9408,-2.8865,-2.8394,-2.7934,-2.7252,-2.6177,-2.5665,-2.5071,2.0111,1.3999,1.1747,0.9424,0.7256,0.7173,0.5146,0.1875,0.165,-0.0418,-0.371,-0.385,-0.3817,-0.3681,-0.3782,0.0,0.0,0.0,0.6359,1.0108,1.4735,1.7136,1.7693,2.0097,2.1466,2.1745,2.1409,2.1236,2.1151,1.8913,1.4999,0.9688,0.0,0.0,-0.1898,-0.3993,-0.6205,-0.8695,-0.8998,-0.901,-0.8781,-0.8939,-0.9147,-0.9311,-0.931,-0.934,-0.9403,-0.9557,-0.9664,-0.9754,-1.0071,-1.036,0.0,0.0,0.0,0.0,0.0,0.0,0.0,0.0,0.0,0.0,0.0,-1.5243,0.0,0.0,0.0,0.0,-1.5455,-1.5248,-1.5106,-1.5059,0.0,0.0,0.0,0.0,0.0,0.0,0.0,-1.5147,-1.5424,-1.5848,-1.6554,-1.6996,-1.7401,-1.7814,-1.8765,-1.9735,-2.0644,0.0,-2.2435,-2.3245,-2.4248,-2.5093,-2.5584,-2.6606,-2.7489,-2.8006,-2.8635,-2.9058,-2.9052,-2.9464,-2.9735,-2.9661,-2.9494,-2.9262,-2.9036,-2.862,-2.8245,-2.796,-2.7317,-2.649,-2.5483,-2.4958,-2.4389,2.3861,2.3332,1.8251,1.3033,0.8207,0.8309,0.8047,0.7471,0.741,0.709,0.6607,0.6665,0.6626,0.6517,0.6629,0.0,0.7811,1.2031,1.4258,1.5093,1.9408,2.1771,2.2455,2.1788,2.1871,2.2569,2.183,2.1442,2.112,1.5671,1.0415,0.5811,0.5443,0.2402,-0.3298,-0.753,-0.9558,-0.9381,-0.9494,-0.9351,-0.9048,-0.9266,-0.9593,-1.0113,-1.0004,-1.02,-1.0782,-1.0702,-1.0624,-1.0695,-1.0909,-1.1004,-1.0961,0.0,0.0,0.0,0.0,0.0,0.0,0.0,0.0,0.0,0.0,0.0,0.0,0.0,0.0,0.0,-1.5462,0.0,-1.5698,-1.5482,0.0,0.0,0.0,-1.5675,-1.5828,-1.5674,-1.5614,-1.5677,0.0,0.0,-1.7505,-1.7956,-1.8256,-1.8521,-1.9244,-2.0176,-2.1215,-2.2051,-2.279,-2.3534,-2.4034,-2.4519,-2.5047,-2.5917,-2.6812,-2.7687,-2.8111,-2.8189,-2.8213,-2.8299,-2.8206,-2.8226,-2.8014,-2.7885,-2.7663,-2.7386,-2.7056,-2.72,-2.6383,-2.541,-2.483,-2.4287,-2.3777,2.3801,2.3526,2.2002,2.056,1.9308,1.9254,1.6684,1.2634,1.2392,0.9901,0.5831,0.5686,0.5704,0.5831,0.6222,0.8749,1.2902,1.4022,1.6946,2.1233,2.2491,2.3124,2.3303,2.318,2.3198,2.3303,2.3097,2.2932,2.2592,1.697,1.1342,0.5963,0.1549,-0.316,-0.7996,-0.9422,-1.0106,-1.0156,-1.0321,-1.0301,-1.0201,-1.0007,-1.0108,-1.0567,-1.0769,-1.0965,-1.12,-1.1317,-1.1461,-1.1597,-1.177,-1.2023,-1.2319,-1.2576,0.0,0.0,0.0,0.0,0.0,0.0,0.0,0.0,0.0,-1.5963,-1.6052,0.0,-1.5827,0.0,-1.6024,-1.6097,-1.5944,-1.6487,0.0,0.0,-1.6756,-1.6654,-1.6367,-1.6293,-1.63,-1.6436,-1.674,-1.7236,-1.7902,-1.8532,-1.9163,-1.9846,-2.027,-2.0871,-2.1728,-2.2522,-2.3243,-2.3876,-2.4338,-2.4733,-2.5091,-2.5528,-2.5979,-2.625,-2.6866,-2.7305,-2.7303,-2.7858,-2.8254,-2.8183,-2.8065,-2.7909,-2.7664,-2.6961,-2.6293,-2.607,-2.5878,-2.5462,-2.4371,-2.3743,-2.3143,2.3738,2.3539,2.3298,2.3144,2.3052,2.291,2.1009,1.8059,1.7922,1.6071,1.3133,1.3109,1.3175,1.3317,1.3572,1.5426,1.8367,1.8453,2.0225,2.3348,2.3442,2.3474,2.3526,2.3485,2.3476,2.3462,2.3369,2.1939,1.9157,1.3482,0.7654,0.1869,-0.3913,-0.8165,-1.0806,-1.0872,-1.0936,-1.099,-1.1078,-1.119,-1.13,-1.1035,-1.1037,-1.1445,-1.1582,-1.1735,-1.1996,-1.2257,-1.2432,-1.2551,-1.2683,-1.2809,-1.2934,-1.3197,-1.3551,0.0,0.0,0.0,0.0,0.0,0.0,0.0,0.0,0.0,0.0,0.0,-1.6063,-1.6307,-1.6525,-1.6745,-1.7033,-1.7462,-1.7669,-1.7615,-1.7584,-1.7449,-1.7137,-1.706,-1.7124,-1.7305,-1.7585,-1.802,-1.8674,-1.9295,-2.0001,-2.0717,-2.1248,-2.1757,-2.2272,-2.2979,-2.3617,-2.4137,-2.4551,-2.4917,-2.5274,-2.5482,-2.5636,-2.5723,-2.6101,-2.6428,-2.6432,-2.6806,-2.7137,-2.7098,-2.7002,-2.6876,-2.6689,-2.6154,-2.5579,-2.5295,-2.5118,-2.468,-2.3786,-2.3191,-2.2538,2.3664,2.3471,2.3256,2.3052,2.2859,2.2703,2.2659,2.2659,2.2623,2.2579,2.2596,2.2712,2.2816,2.2868,2.2868,2.2944,2.3052,2.3077,2.3135,2.3265,2.3283,2.3298,2.3336,2.3226,2.3184,2.3241,2.3119,2.0418,1.5321,0.8788,0.2952,-0.2291,-0.8776,-1.213,-1.2372,-1.207,-1.1886,-1.1902,-1.192,-1.2059,-1.2353,-1.212,-1.2189,-1.2569,-1.2465,-1.2597,-1.3062,-1.327,-1.3424,-1.3454,-1.3583,-1.3557,-1.338,-1.361,-1.4092,0.0,-1.503,0.0,0.0,0.0,0.0,0.0,0.0,0.0,0.0,-1.62,-1.6487,-1.7015,-1.7121,-1.7532,-1.8404,-1.8392,-1.8412,-1.8653,-1.8433,-1.8198,-1.7981,-1.7894,-1.8014,-1.8256,-1.8489,-1.8902,-1.9571,-2.0189,-2.0766,-2.1356,-2.2023,-2.26,-2.2939,-2.3405,-2.3923,-2.4368,-2.4742,-2.5118,-2.5403,-2.5551,-2.5625,-2.5678,-2.5736,-2.5699,-2.575,-2.5761,-2.5741,-2.5752,-2.5767,-2.5632,-2.5451,-2.5293,-2.5053,-2.4836,-2.4447,-2.3971,-2.3374,-2.279,-2.2192,2.3567,2.3313,2.3119,2.2902,2.272,2.2533,2.2487,2.2533,2.2515,2.2515,2.2533,2.2623,2.2632,2.2659,2.2712,2.2799,2.2927,2.2943,2.3026,2.3135,2.3081,2.3047,2.3061,2.2986,2.2936,2.2893,2.2825,2.221,2.0921,1.0223,0.443,0.305,-0.7422,-1.2774,-1.2856,0.0,0.0,0.0,-1.296,-1.3002,-1.3225,-1.3046,-1.3165,-1.3684,-1.3462,0.0,-1.4156,-1.393,-1.394,-1.4244,-1.4401,0.0,0.0,0.0,0.0,0.0,0.0,0.0,0.0,0.0,0.0,0.0,-1.6876,-1.6977,-1.6343,-1.6756,-1.7315,-1.7891,-1.8394,-1.8733,-1.8876,-1.9256,-1.9446,-1.9354,-1.9207,-1.9036,-1.8826,-1.8841,-1.9006,-1.9214,-1.9615,-1.9962,-2.0366,-2.0959,-2.1549,-2.2037,-2.2582,-2.3076,-2.3619,-2.3851,-2.4174,-2.4582,-2.5012,-2.533,-2.5463,-2.5571,-2.5621,-2.568,-2.5693,-2.5694,-2.5699,-2.5693,-2.5692,-2.5699,-2.5639,-2.5585,-2.5496,-2.5358,-2.5171,-2.4906,-2.4538,-2.4052,-2.3414,-2.2806,-2.2239,2.3517,2.3241,2.3036,2.2808,0.0,2.2405,2.2285,2.2212,2.2296,2.2369,2.2422,2.2441,2.2468,2.246,2.2542,2.2614,2.2703,2.2738,2.279,2.2833,2.2773,2.2755,2.2756,2.258,2.2553,2.2587,2.2453,2.094,1.7837,0.8965,0.3102,0.0203,-0.8818,-1.3301,-1.3392,-1.371,-1.3842,-1.3789,-1.3903,-1.4092,-1.4367,-1.4181,-1.4228,-1.4669,-1.4508,0.0,0.0,0.0,0.0,0.0,0.0,0.0,0.0,0.0,0.0,-1.5842,-1.5962,-1.6176,-1.6619,-1.6784,-1.7016,-1.7337,-1.7774,-1.7843,-1.7434,-1.7685,-1.8144,-1.878,-1.9198,-1.9476,-1.9741,-2.0039,-2.017,-1.998,-1.9929,-1.9879,-1.97,-1.9758,-1.9942,-2.0143,-2.0457,-2.0781,-2.1118,-2.163,-2.2147,-2.2546,-2.3005,-2.3468,-2.386,-2.4089,-2.4371,-2.4851,-2.5143,-2.5389,-2.5528,-2.5615,-2.5656,-2.5697,-2.5701,-2.5699,-2.5694,-2.5697,-2.5693,-2.5697,-2.5681,-2.5629,-2.5523,-2.5414,-2.5264,-2.4997,-2.4663,-2.4219,-2.3647,-2.3012,-2.2395,2.3592,2.3126,2.2961,2.2712,2.2451,2.2293,2.2098,2.1869,0.0,0.0,0.0,2.2217,2.2217,2.2209,2.2285,2.2369,2.2415,2.247,2.2497,2.2516,2.2415,2.2388,2.2369,2.215,2.2121,2.2229,2.2036,1.9574,1.4862,0.8735,0.2737,-0.3057,-0.9107,-1.2777,-1.3878,-1.4436,-1.4569,-1.4449,-1.4697,-1.4966,-1.535,-1.5188,-1.5284,-1.5614,-1.5496,-1.5552,-1.5914,-1.6186,-1.6186,-1.5935,-1.6125,-1.6095,-1.5714,-1.5853,-1.6025,-1.618,-1.6289,-1.6626,-1.7242,-1.7547,-1.7938,-1.8617,-1.8748,-1.8801,-1.8725,-1.8655,-1.8936,-1.9679,-1.9846,-2.0122,-2.0558,-2.0736,-2.0736,-2.0553,-2.0597,-2.0607,-2.0524,-2.0624,-2.0804,-2.1039,-2.1236,-2.145,-2.1803,-2.225,-2.2634,-2.2975,-2.3373,-2.3789,-2.4051,-2.4318,-2.4607,-2.5089,-2.5284,-2.5376,-2.5544,-2.5624,-2.5685,-2.5697,-2.5698,-2.5695,-2.5697,-2.5697,-2.5698,-2.5702,-2.5699,-2.5649,-2.5541,-2.5456,-2.5302,-2.5061,-2.4771,-2.4379,-2.3864,-2.3236,-2.2582,2.3954,2.302,2.2808,2.2623,2.2405,2.2138,2.1869,2.1672,2.1806,2.1857,2.1894,2.1848,2.1878,2.1886,2.1928,2.2015,2.2064,2.2076,2.2104,2.2161,2.2056,2.1949,2.1907,2.1848,2.1773,2.1645,2.1708,2.128,1.9814,1.4323,0.8418,0.2379,-0.3498,-0.9254,-1.4169,-1.4783,-1.5011,-1.5289,-1.5255,-1.5345,-1.5534,-1.574,-1.6071,-1.65,-1.6243,-1.6323,-1.6712,-1.6529,-1.6485,-1.6726,-1.6766,-1.6898,-1.7159,-1.7202,-1.7386,-1.7666,-1.769,-1.7822,-1.8022,-1.8253,-1.8701,-1.9507,-1.9625,-1.961,-1.9609,-1.9304,-1.9555,-2.0575,-2.0735,-2.0871,-2.1015,-2.1119,-2.1167,-2.1103,-2.1159,-2.1198,-2.1229,-2.1385,-2.1521,-2.1777,-2.2079,-2.225,-2.2456,-2.2816,-2.314,-2.3396,-2.3683,-2.403,-2.4467,-2.4731,-2.4932,-2.521,-2.5341,-2.5441,-2.5564,-2.5609,-2.5648,-2.5694,-2.57,-2.5696,-2.5695,-2.5697,-2.5694,-2.5693,-2.5697,-2.5664,-2.5595,-2.5486,-2.5317,-2.5118,-2.4818,-2.4413,-2.3905,-2.3273,-2.2635,2.4845,2.4182,2.3488,2.3076,2.284,2.2006,2.157,2.1442,2.1419,2.152,2.1686,2.1595,2.1548,2.157,2.1623,2.1691,2.1781,2.1735,2.1764,2.1819,2.1691,2.157,2.1472,2.1433,2.1363,2.1237,2.123,2.1222,2.0663,1.5188,0.9203,0.3032,-0.5845,-1.1974,-1.4716,-1.5062,-1.53,-1.5647,-1.5608,-1.5703,-1.5913,-1.6132,-1.6479,-1.6833,-1.6868,-1.7041,-1.7411,-1.7452,-1.7416,-1.7332,-1.747,-1.7535,-1.7526,-1.7541,-1.7665,-1.7938,-1.797,-1.8193,-1.8665,-1.9333,-1.9893,-2.0369,-2.0448,-2.0528,-2.0567,-2.0281,-2.036,-2.095,-2.1111,-2.1166,-2.1214,-2.1419,-2.1526,-2.1534,-2.1653,-2.1756,-2.1845,-2.2019,-2.2198,-2.239,-2.2581,-2.2781,-2.296,-2.3236,-2.3491,-2.3683,-2.399,-2.4381,-2.4755,-2.4934,-2.5063,-2.5251,-2.5388,-2.5488,-2.5589,-2.5609,-2.5634,-2.5688,-2.5701,-2.5697,-2.5701,-2.5693,-2.5701,-2.5702,-2.5701,-2.5676,-2.5615,-2.5533,-2.5381,-2.5134,-2.4841,-2.4409,-2.3888,-2.3082,-2.2241,2.5667,2.5176,2.4248,2.3689,2.336,2.2199,2.1615,2.1496,2.1239,2.1223,2.1419,2.1294,2.1285,2.1332,2.1332,2.1402,2.1489,2.1417,2.1417,2.1458,2.1301,2.1151,2.1038,2.0998,2.0917,2.0853,2.0778,2.0763,2.026,1.6118,1.0128,0.2647,-0.7691,-1.3696,-1.5244,-1.5345,-1.557,-1.5893,-1.5913,-1.6063,-1.6275,-1.6436,-1.6699,-1.7038,-1.726,-1.759,-1.7909,-1.8175,-1.8173,-1.7987,-1.8179,-1.8179,-1.7949,-1.8018,-1.8145,-1.8351,-1.8425,-1.8735,-1.9398,-2.0198,-2.0744,-2.0901,-2.1006,-2.1095,-2.1207,-2.1071,-2.1039,-2.1143,-2.1349,-2.1458,-2.1503,-2.1694,-2.1835,-2.1936,-2.2084,-2.2217,-2.2347,-2.258,-2.2773,-2.2877,-2.3036,-2.3214,-2.3408,-2.3571,-2.3777,-2.4019,-2.4338,-2.4654,-2.4884,-2.5035,-2.5174,-2.5302,-2.5424,-2.5515,-2.5589,-2.5609,-2.5629,-2.5687,-2.5697,-2.5694,-2.5696,-2.5698,-2.5697,-2.5702,-2.5701,-2.5673,-2.5622,-2.5529,-2.5382,-2.5143,-2.4841,-2.4385,-2.3675,-2.2771,-2.1849,2.6116,2.5216,2.4789,2.4343,2.3817,2.2955,2.2443,2.2133,2.1431,2.1046,2.1014,2.1071,2.1103,2.1135,2.1143,2.1167,2.1207,2.1039,2.1039,2.1095,2.0884,2.0711,2.0561,2.0553,2.0486,2.0399,2.046,2.0467,2.041,1.9668,1.386,0.3292,-0.395,-1.0235,-1.5072,-1.5754,-1.5887,-1.615,-1.6275,-1.6399,-1.6472,-1.6633,-1.6833,-1.7157,-1.7393,-1.7632,-1.7955,-1.8135,-1.8351,-1.8667,-1.8826,-1.9007,-1.9192,-1.9345,-1.9518,-1.9758,-1.98,-1.9993,-2.0325,-2.0563,-2.0769,-2.0869,-2.0942,-2.1047,-2.1254,-2.1332,-2.1363,-2.1433,-2.1713,-2.1864,-2.1878,-2.2032,-2.2192,-2.2313,-2.2462,-2.2614,-2.2747,-2.2977,-2.3193,-2.3313,-2.349,-2.3669,-2.3732,-2.3878,-2.4067,-2.4319,-2.4566,-2.4808,-2.4983,-2.512,-2.5233,-2.5351,-2.5458,-2.5522,-2.5589,-2.5609,-2.5629,-2.5677,-2.5701,-2.5697,-2.5693,-2.5693,-2.5693,-2.5693,-2.5683,-2.5652,-2.5595,-2.5493,-2.5347,-2.5099,-2.4738,-2.4246,-2.3252,-2.2413,-2.1756,2.7183,2.6563,2.5756,2.4858,2.3976,2.3457,2.3093,2.28,2.2015,2.1536,2.1321,2.1008,2.0859,2.0867,2.0843,2.0884,2.0884,2.0703,2.0669,2.0728,2.046,2.0289,2.02,2.0127,2.003,1.994,2.001,2.001,1.9411,1.6652,1.0612,0.2575,-0.3691,-0.9727,-1.5331,-1.5792,-1.5925,-1.6194,-1.6231,-1.6368,-1.6626,-1.6754,-1.6924,-1.7199,-1.7393,-1.7611,-1.7821,-1.8076,-1.8347,-1.862,-1.8879,-1.9093,-1.9376,-1.9567,-1.9777,-2.0005,-2.0146,-2.0373,-2.0669,-2.0761,-2.0901,-2.1055,-2.1143,-2.1253,-2.1371,-2.1518,-2.1653,-2.1721,-2.1873,-2.1991,-2.1978,-2.2195,-2.2424,-2.256,-2.2764,-2.2961,-2.3144,-2.3351,-2.3526,-2.3629,-2.378,-2.3905,-2.4048,-2.4229,-2.4426,-2.4607,-2.4775,-2.4925,-2.5094,-2.52,-2.5313,-2.5441,-2.5488,-2.5525,-2.5587,-2.561,-2.5628,-2.5677,-2.5691,-2.5694,-2.5696,-2.5699,-2.57,-2.57,-2.5664,-2.5634,-2.5615,-2.5451,-2.5274,-2.4981,-2.4346,-2.3684,-2.288,-2.222,-2.165,2.7902,2.7491,2.6573,2.5576,2.463,2.4189,2.3876,2.3563,2.2753,2.2277,2.1969,2.1497,2.114,2.0876,2.067,2.0592,2.0585,2.0339,2.0262,2.0323,2.0045,1.9861,1.9805,1.9675,1.9595,1.953,1.9537,1.953,1.9119,1.5643,1.0311,0.435,-0.1561,-0.75,-1.307,-1.492,-1.61,-1.6275,-1.6275,-1.6454,-1.6718,-1.6803,-1.696,-1.7199,-1.7399,-1.757,-1.7767,-1.8003,-1.8235,-1.8478,-1.8781,-1.9093,-1.9347,-1.9574,-1.979,-2.0061,-2.0346,-2.0577,-2.0802,-2.0925,-2.1047,-2.1207,-2.1388,-2.1487,-2.1548,-2.1751,-2.1928,-2.2052,-2.2158,-2.2226,-2.2186,-2.2426,-2.2641,-2.2816,-2.3061,-2.3271,-2.3458,-2.366,-2.3804,-2.3864,-2.4002,-2.4154,-2.4338,-2.4528,-2.4723,-2.4832,-2.4911,-2.5009,-2.5189,-2.5293,-2.5378,-2.548,-2.5515,-2.5533,-2.5585,-2.562,-2.5656,-2.5677,-2.5694,-2.5694,-2.5693,-2.5698,-2.5693,-2.5685,-2.564,-2.556,-2.5509,-2.5365,-2.5088,-2.4719,-2.4091,-2.3337,-2.2721,-2.2096,-2.1491,2.7931,2.7642,2.7094,2.659,2.6216,2.5378,2.4796,2.4429,2.373,2.3197,2.2869,2.2746,2.2239,2.1372,2.0752,2.0362,2.0346,2.0018,1.9919,1.9998,1.964,1.9442,1.9413,1.9221,1.9131,1.9139,1.9131,1.9161,1.9192,1.8958,1.6086,0.9876,0.402,-0.1828,-0.8112,-1.3404,-1.6386,-1.6411,-1.6479,-1.6614,-1.6833,-1.6761,-1.6882,-1.7157,-1.7406,-1.7611,-1.7835,-1.7975,-1.8168,-1.8478,-1.869,-1.8936,-1.9295,-1.9574,-1.9869,-2.0262,-2.0517,-2.0718,-2.0843,-2.1038,-2.1199,-2.1325,-2.1489,-2.1642,-2.173,-2.1949,-2.215,-2.2358,-2.257,-2.265,-2.2605,-2.2703,-2.2919,-2.3126,-2.3365,-2.3531,-2.3671,-2.3926,-2.4013,-2.4054,-2.4245,-2.4448,-2.4642,-2.4798,-2.4922,-2.4993,-2.5053,-2.5139,-2.5254,-2.534,-2.5414,-2.5489,-2.5545,-2.5596,-2.561,-2.5638,-2.5674,-2.5697,-2.57,-2.5693,-2.57,-2.5692,-2.5699,-2.5678,-2.5619,-2.5535,-2.5418,-2.5178,-2.485,-2.4431,-2.389,-2.3221,-2.2547,-2.1956,-2.136,2.8016,2.7608,2.7207,2.6866,2.6624,2.6125,2.5764,2.5414,2.462,2.4035,2.3612,2.3122,2.2601,2.2094,2.1663,2.1006,2.0239,1.9861,1.9769,1.9762,1.9398,1.9228,1.9191,1.8965,1.8858,1.8812,1.8676,1.8655,1.8769,1.8884,1.5949,1.0858,0.8067,0.219,-0.6342,-0.9787,-1.269,-1.623,-1.6626,-1.6669,-1.6797,-1.684,-1.6924,-1.7009,-1.7295,-1.7508,-1.7659,-1.7882,-1.8121,-1.8351,-1.8637,-1.8936,-1.9295,-1.9661,-2.0061,-2.0399,-2.0626,-2.0818,-2.1038,-2.1199,-2.1325,-2.1481,-2.1634,-2.1746,-2.1827,-2.2061,-2.2276,-2.2451,-2.2659,-2.2808,-2.2995,-2.3061,-2.3193,-2.3389,-2.3567,-2.3774,-2.3989,-2.4182,-2.433,-2.4446,-2.4626,-2.4756,-2.4865,-2.4977,-2.5075,-2.5177,-2.5214,-2.5265,-2.5338,-2.5422,-2.5489,-2.5547,-2.5615,-2.5663,-2.5654,-2.5677,-2.5697,-2.57,-2.5693,-2.5701,-2.5702,-2.5697,-2.5697,-2.5625,-2.5567,-2.5427,-2.5263,-2.4885,-2.4554,-2.4091,-2.3566,-2.2988,-2.2368,-2.1731,-2.1126,2.8127,2.7698,2.7378,2.7117,2.6915,2.6641,2.6375,2.606,2.5436,2.4964,2.4521,2.3957,2.3404,2.2938,2.2648,2.1896,2.0723,2.0197,1.9782,1.956,1.9146,1.895,1.8836,1.862,1.8464,1.8418,1.8194,1.8147,1.8233,1.8312,1.6258,1.276,1.0815,0.5928,-0.1532,-0.5836,-1.0182,-1.353,-1.5709,-1.6754,-1.6803,-1.6931,-1.6996,-1.7044,-1.7225,-1.7371,-1.7523,-1.7801,-1.8042,-1.8286,-1.8606,-1.895,-1.9406,-1.9784,-2.0131,-2.0452,-2.0644,-2.0884,-2.1175,-2.1317,-2.1458,-2.1603,-2.1768,-2.1878,-2.1899,-2.2155,-2.2413,-2.256,-2.2764,-2.3011,-2.3208,-2.3374,-2.3495,-2.3611,-2.3804,-2.401,-2.4275,-2.4428,-2.4596,-2.4794,-2.4961,-2.5063,-2.5105,-2.5152,-2.5244,-2.536,-2.5357,-2.5389,-2.5461,-2.5506,-2.5553,-2.5615,-2.5671,-2.5691,-2.5683,-2.5693,-2.5694,-2.5699,-2.5682,-2.5691,-2.5683,-2.5691,-2.5649,-2.557,-2.5437,-2.5283,-2.5006,-2.4622,-2.4201,-2.378,-2.3236,-2.2686,-2.2074,-2.1529,-2.0902,2.8255,2.7977,2.7707,2.7448,2.7172,2.6939,2.6649,2.6418,2.6208,2.5875,2.5538,2.5363,2.4629,2.3927,2.3554,2.2925,2.1864,2.0959,2.018,1.9529,1.8996,1.8705,1.8602,1.8189,1.7995,1.7962,1.7794,1.7666,1.7673,1.7747,1.7498,1.6625,1.2292,0.9452,0.8899,-0.1447,-0.7422,-0.9538,-1.3623,-1.6435,-1.7009,-1.6967,-1.6996,-1.717,-1.7205,-1.733,-1.7475,-1.7747,-1.7996,-1.8202,-1.851,-1.901,-1.9581,-1.9884,-2.0166,-2.046,-2.0687,-2.0933,-2.1175,-2.1427,-2.1612,-2.1724,-2.1861,-2.1978,-2.2027,-2.2287,-2.2542,-2.2685,-2.291,-2.3168,-2.3383,-2.3607,-2.3783,-2.3846,-2.4028,-2.4266,-2.4478,-2.4686,-2.4884,-2.5066,-2.5238,-2.5341,-2.5331,-2.5338,-2.54,-2.5468,-2.5498,-2.5506,-2.5572,-2.5599,-2.5624,-2.5666,-2.57,-2.5701,-2.5692,-2.5702,-2.57,-2.5698,-2.5675,-2.5671,-2.5664,-2.5648,-2.555,-2.5461,-2.5235,-2.5055,-2.4738,-2.4352,-2.3966,-2.3522,-2.2972,-2.2405,-2.1816,-2.1252,-2.0681,2.8483,2.8318,2.8005,2.7748,2.7513,2.7324,2.7079,2.6784,2.6478,2.6216,2.5933,2.565,2.5134,2.4611,2.4334,2.3617,2.2549,2.2017,2.1421,2.0538,1.9603,1.9109,1.8863,1.8086,1.7509,1.7275,1.7256,1.7124,1.7047,1.7173,1.7338,1.6916,1.5715,1.2748,0.9291,0.5148,0.0247,-0.8024,-1.0233,-1.3032,-1.6805,-1.7253,-1.7225,-1.7205,-1.7302,-1.735,-1.7432,-1.7638,-1.7929,-1.8202,-1.8446,-1.8927,-1.9581,-1.9884,-2.0166,-2.0467,-2.0687,-2.0958,-2.123,-2.1497,-2.1642,-2.1776,-2.1911,-2.1998,-2.2027,-2.2307,-2.256,-2.272,-2.2927,-2.3184,-2.3453,-2.3707,-2.3887,-2.3987,-2.4192,-2.4452,-2.4707,-2.493,-2.5103,-2.5214,-2.5331,-2.54,-2.5437,-2.5473,-2.5499,-2.5547,-2.5564,-2.5585,-2.5644,-2.566,-2.5675,-2.5693,-2.5698,-2.5693,-2.5686,-2.5679,-2.5665,-2.5649,-2.5632,-2.5611,-2.5604,-2.5547,-2.5441,-2.5255,-2.5032,-2.4762,-2.4446,-2.408,-2.3687,-2.323,-2.266,-2.211,-2.1535,-2.0959,-2.0395,2.8782,2.8603,2.8344,2.8091,2.7884,2.763,2.7364,2.7137,2.6784,2.6496,2.6191,2.5937,2.5538,2.5091,2.4823,2.4186,2.3303,2.2962,2.2414,2.152,2.0232,1.9516,1.9215,1.8129,1.72,1.6718,1.668,1.6625,1.6454,1.6576,1.6704,1.6879,1.7018,1.5493,1.1757,0.9541,0.4378,-0.1986,-0.6486,-1.0531,-1.3976,-1.6401,-1.7487,-1.7419,-1.7419,-1.7432,-1.7515,-1.7645,-1.7842,-1.8142,-1.8478,-1.9003,-1.9574,-1.9805,-2.0088,-2.046,-2.0703,-2.0958,-2.1254,-2.1489,-2.1672,-2.1797,-2.192,-2.1998,-2.2056,-2.2287,-2.256,-2.2712,-2.2936,-2.3199,-2.3485,-2.3768,-2.3998,-2.4135,-2.4373,-2.4623,-2.4916,-2.5138,-2.5293,-2.5374,-2.5449,-2.5479,-2.5523,-2.5571,-2.5589,-2.5631,-2.5638,-2.5642,-2.5694,-2.5695,-2.5698,-2.5693,-2.5699,-2.5685,-2.5668,-2.5657,-2.5644,-2.5599,-2.5558,-2.5537,-2.5521,-2.5419,-2.5312,-2.501,-2.4776,-2.4468,-2.4155,-2.3764,-2.3369,-2.2856,-2.2339,-2.1715,-2.1118,-2.0656,-2.0108,2.9052,2.8825,2.8669,2.8431,2.8174,2.7884,2.7591,2.7395,2.7096,2.6759,2.6453,2.6189,2.5799,2.5363,2.5037,2.4575,2.4048,2.3441,2.287,2.2038,2.0864,1.9874,1.9032,1.8093,1.7194,1.6366,1.6204,1.6093,1.5944,1.5938,1.6026,1.6182,1.6324,1.6539,1.5187,1.1338,0.8826,0.5786,-0.2324,-0.7059,-0.8635,-1.3941,-1.6772,-1.6772,-1.7247,-1.7611,-1.7713,-1.776,-1.7862,-1.8082,-1.8627,-1.9123,-1.9464,-1.9697,-2.0018,-2.0467,-2.0662,-2.0925,-2.1254,-2.1442,-2.1617,-2.1759,-2.192,-2.1998,-2.2036,-2.2287,-2.2525,-2.2694,-2.2902,-2.3184,-2.3476,-2.3768,-2.4048,-2.4319,-2.4575,-2.4847,-2.515,-2.5312,-2.5416,-2.5502,-2.557,-2.5609,-2.5603,-2.5651,-2.5687,-2.5696,-2.5698,-2.57,-2.5693,-2.5693,-2.57,-2.5691,-2.5693,-2.5661,-2.5639,-2.5594,-2.5567,-2.5476,-2.5441,-2.541,-2.5357,-2.5245,-2.5077,-2.478,-2.4482,-2.4174,-2.3824,-2.3419,-2.2996,-2.2502,-2.1928,-2.1298,-2.0772,-2.03,-1.9826,2.923,2.9141,2.883,2.856,2.8388,2.8109,2.7836,2.7582,2.723,2.6949,2.6657,2.626,2.5828,2.5347,2.5084,2.4597,2.3959,2.3487,2.2859,2.2067,2.1206,1.9772,1.8488,1.7799,1.7107,1.6289,1.6009,1.5724,1.5345,1.5267,1.5283,1.5406,1.5573,1.575,1.5483,1.4422,1.1661,0.8284,0.5534,0.0837,-0.3479,-0.8651,-1.1481,-1.192,-1.5636,-1.7625,-1.7915,-1.8029,-1.8149,-1.8386,-1.8743,-1.9182,-1.9516,-1.9697,-1.9983,-2.0381,-2.0618,-2.0876,-2.1167,-2.1388,-2.1518,-2.1708,-2.189,-2.1998,-2.199,-2.2268,-2.2479,-2.2641,-2.2833,-2.3095,-2.3398,-2.3694,-2.4067,-2.4523,-2.4813,-2.505,-2.5245,-2.54,-2.5509,-2.5578,-2.5638,-2.5668,-2.5672,-2.568,-2.5693,-2.5693,-2.5701,-2.5689,-2.5693,-2.5683,-2.5683,-2.5671,-2.5666,-2.563,-2.5593,-2.5541,-2.5478,-2.5368,-2.5303,-2.5234,-2.5141,-2.5015,-2.4795,-2.4533,-2.4211,-2.3892,-2.3486,-2.3061,-2.26,-2.2108,-2.1565,-2.0991,-2.0465,-1.998,-1.9486,2.9465,2.9332,2.9066,2.8821,2.8594,2.838,2.8109,2.7806,2.747,2.7143,2.685,2.64,2.5921,2.553,2.5107,2.4525,2.3859,2.3348,2.2678,2.1786,2.0769,1.944,1.8253,1.7681,1.7006,1.6221,1.5866,1.5499,1.5093,1.4857,1.4793,1.4713,1.4812,1.4937,1.5164,1.532,1.4138,1.0843,0.8841,0.5556,0.225,-0.3111,-0.7439,-0.9376,-1.3306,-1.5385,-1.763,-1.8354,-1.8439,-1.8563,-1.8841,-1.9145,-1.9465,-1.9697,-1.9983,-2.0381,-2.061,-2.0876,-2.1127,-2.134,-2.1495,-2.1678,-2.1832,-2.1911,-2.2027,-2.2231,-2.2468,-2.2614,-2.2808,-2.307,-2.336,-2.3728,-2.4173,-2.4622,-2.4945,-2.5166,-2.533,-2.5444,-2.5547,-2.5634,-2.5678,-2.5697,-2.5693,-2.5702,-2.5697,-2.5699,-2.5693,-2.5686,-2.5675,-2.5664,-2.5657,-2.5644,-2.5605,-2.5556,-2.5495,-2.5435,-2.5312,-2.5213,-2.5046,-2.4997,-2.4887,-2.4723,-2.4496,-2.4238,-2.3912,-2.3553,-2.3135,-2.2686,-2.2169,-2.1685,-2.1197,-2.0657,-2.0097,-1.9645,-1.9147,2.9735,2.9453,2.9353,2.9119,2.8834,2.8594,2.8318,2.7996,2.7698,2.7373,2.699,2.6556,2.6093,2.5663,2.5083,2.4484,2.3844,2.315,2.2228,2.1182,2.0016,1.8888,1.8138,1.7653,1.6991,1.6197,1.5829,1.5338,1.4834,1.4568,1.4321,1.4127,1.4041,1.4102,1.4277,1.4566,1.4846,1.3696,1.0525,0.8647,0.6861,0.2367,-0.2318,-0.5979,-0.9865,-1.2737,-1.6121,-1.8001,-1.8743,-1.8602,-1.8879,-1.913,-1.9376,-1.9669,-1.9983,-2.0304,-2.0603,-2.0868,-2.1127,-2.1277,-2.1464,-2.1617,-2.1738,-2.184,-2.2015,-2.222,-2.2405,-2.2533,-2.2825,-2.3061,-2.3398,-2.3837,-2.4275,-2.4629,-2.4916,-2.516,-2.5346,-2.547,-2.5565,-2.567,-2.5699,-2.5693,-2.5699,-2.5697,-2.569,-2.5668,-2.5668,-2.5652,-2.5627,-2.5595,-2.56,-2.5597,-2.5548,-2.5461,-2.5392,-2.5313,-2.5171,-2.5019,-2.4771,-2.466,-2.4563,-2.4397,-2.4192,-2.3932,-2.3597,-2.3224,-2.279,-2.2294,-2.1774,-2.1282,-2.0804,-2.0235,-1.966,-1.9251,-1.8815,2.9881,2.9697,2.9406,2.9215,2.9021,2.8767,2.8466,2.8127,2.7836,2.747,2.707,2.6624,2.6156,2.5684,2.5114,2.4517,2.3731,2.2868,2.1745,2.0144,1.9294,1.8489,1.789,1.7547,1.6966,1.6203,1.5558,1.5037,1.4503,1.3969,1.3559,1.3436,1.317,1.3011,1.3213,1.351,1.3779,1.383,1.2817,1.2428,1.1502,0.7602,0.385,0.1275,-0.5789,-1.0513,-1.2631,-1.659,-1.8991,-1.9116,-1.9085,-1.9168,-1.9384,-1.9632,-1.9912,-2.0235,-2.0467,-2.0687,-2.0942,-2.1151,-2.1317,-2.1456,-2.167,-2.1811,-2.192,-2.2106,-2.2302,-2.2441,-2.2649,-2.2977,-2.3458,-2.3878,-2.4229,-2.4536,-2.4832,-2.5107,-2.5307,-2.5476,-2.561,-2.5671,-2.5697,-2.5701,-2.5695,-2.5698,-2.5681,-2.564,-2.5618,-2.561,-2.5581,-2.554,-2.5541,-2.5541,-2.5476,-2.5401,-2.5284,-2.5169,-2.4971,-2.4809,-2.4559,-2.4329,-2.4238,-2.407,-2.3842,-2.3579,-2.3294,-2.2891,-2.2438,-2.1973,-2.1438,-2.0942,-2.0421,-1.9859,-1.9332,-1.8921,-1.85,3.0015,2.9827,2.9617,2.9394,2.9138,2.8915,2.8619,2.8291,2.7979,2.7612,2.719,2.6657,2.6218,2.5754,2.5083,2.4362,2.3486,2.2253,2.1022,1.9837,1.8945,1.8159,1.7457,1.7016,1.6525,1.6041,1.5522,1.488,1.4239,1.3704,1.332,1.2963,1.2581,1.2494,1.2483,1.2561,1.2769,1.3021,1.3341,1.3674,1.3191,1.1536,0.816,0.5507,-0.2258,-0.7763,-1.0873,-1.3374,-1.6634,-1.8636,-1.9266,-1.9302,-1.9501,-1.9712,-1.9955,-2.0158,-2.0399,-2.0587,-2.0827,-2.103,-2.123,-2.1332,-2.1518,-2.1683,-2.1832,-2.1995,-2.2163,-2.2349,-2.2587,-2.2936,-2.3444,-2.3762,-2.4079,-2.4407,-2.4736,-2.4986,-2.5216,-2.543,-2.5596,-2.5655,-2.5697,-2.5699,-2.5701,-2.5687,-2.5661,-2.5618,-2.5605,-2.5585,-2.5553,-2.5522,-2.549,-2.5464,-2.5404,-2.5322,-2.5189,-2.5013,-2.476,-2.4568,-2.4356,-2.4105,-2.3896,-2.3701,-2.3477,-2.3233,-2.2975,-2.2511,-2.2068,-2.1576,-2.1047,-2.0496,-1.9952,-1.9479,-1.899,-1.85,-1.8035,3.018,2.9946,2.9831,2.9589,2.9251,2.9084,2.8791,2.8432,2.8145,2.7786,2.7355,2.6782,2.6332,2.5783,2.5044,2.4214,2.3069,2.1724,2.0446,1.9592,1.8691,1.7897,1.7134,1.6508,1.5984,1.5879,1.5298,1.4686,1.4144,1.365,1.3076,1.265,1.2217,1.1991,1.1965,1.1888,1.1872,1.2112,1.2339,1.2672,1.3016,1.2842,1.0853,0.7605,0.1949,-0.2938,-0.6253,-0.8941,-1.2235,-1.7876,-1.8404,-1.887,-1.9646,-1.982,-2.0033,-2.0115,-2.0365,-2.0569,-2.0769,-2.0933,-2.1087,-2.1254,-2.134,-2.1487,-2.1683,-2.1861,-2.2052,-2.2268,-2.2552,-2.2936,-2.3336,-2.3664,-2.3972,-2.4328,-2.4629,-2.49,-2.5154,-2.5385,-2.554,-2.5642,-2.5684,-2.57,-2.5688,-2.5671,-2.5632,-2.56,-2.5583,-2.5557,-2.5521,-2.5466,-2.5421,-2.536,-2.5293,-2.5107,-2.4968,-2.4776,-2.4543,-2.4275,-2.4086,-2.3813,-2.354,-2.3274,-2.3065,-2.2934,-2.2634,-2.2153,-2.165,-2.1126,-2.0589,-2.0038,-1.9493,-1.9035,-1.8539,-1.8035,-1.7639,3.0282,3.0137,2.9893,2.969,2.9502,2.9265,2.8934,2.8569,2.8282,2.7864,2.7364,2.6965,2.6444,2.582,2.5161,2.396,2.2522,2.1272,2.0295,1.9331,1.8435,1.7573,1.6858,1.6119,1.5536,1.5005,1.4706,1.4346,1.3756,1.3184,1.2743,1.2295,1.1799,1.1513,1.1341,1.1195,1.1289,1.1357,1.1576,1.1868,1.2157,1.2444,1.2638,1.0898,0.6301,0.326,0.1498,-0.2156,-0.6839,-1.2051,-1.2661,-1.5435,-1.8432,-1.9523,-2.0018,-2.02,-2.0346,-2.0517,-2.0677,-2.0794,-2.0933,-2.1103,-2.1222,-2.134,-2.1509,-2.1683,-2.1907,-2.2186,-2.2561,-2.2986,-2.328,-2.3589,-2.3928,-2.4293,-2.4607,-2.4892,-2.5171,-2.5375,-2.5512,-2.561,-2.5658,-2.5691,-2.5688,-2.566,-2.561,-2.5565,-2.5538,-2.55,-2.5445,-2.5386,-2.5303,-2.5242,-2.5176,-2.4945,-2.4712,-2.4505,-2.4284,-2.3983,-2.3744,-2.3441,-2.3155,-2.2807,-2.2589,-2.2411,-2.2181,-2.1748,-2.1229,-2.0714,-2.0166,-1.9631,-1.9109,-1.8577,-1.8108,-1.7632,-1.7256,3.0373,3.0222,3.0045,2.9839,2.9636,2.9372,2.9062,2.8743,2.8423,2.8026,2.7513,2.706,2.6505,2.5885,2.5153,2.3826,2.2278,2.1126,2.0201,1.9233,1.8267,1.7401,1.6689,1.5889,1.5132,1.4602,1.424,1.3881,1.3342,1.2881,1.247,1.2118,1.1619,1.1291,1.113,1.1017,1.0914,1.0889,1.0983,1.1195,1.1444,1.1859,1.2486,1.1948,1.0518,0.8053,0.5005,0.3335,-0.1418,-0.6389,-0.9968,-1.2812,-1.5491,-1.8372,-1.9984,-2.0016,-2.0231,-2.0415,-2.0577,-2.0669,-2.0835,-2.0982,-2.1135,-2.1238,-2.1379,-2.1556,-2.1857,-2.2195,-2.2499,-2.2919,-2.3217,-2.3535,-2.3849,-2.4201,-2.4543,-2.4861,-2.5115,-2.5331,-2.5469,-2.5576,-2.5649,-2.5693,-2.5697,-2.5652,-2.5596,-2.5537,-2.5498,-2.5437,-2.5378,-2.5284,-2.5182,-2.5063,-2.497,-2.4702,-2.4448,-2.422,-2.3993,-2.3726,-2.3387,-2.308,-2.2781,-2.2429,-2.2096,-2.1828,-2.1538,-2.1229,-2.0812,-2.0285,-1.9752,-1.9251,-1.8731,-1.8201,-1.7713,-1.7262,-1.6837,3.0459,3.0338,3.0156,2.9972,2.9726,2.9455,2.9175,2.8887,2.8578,2.8156,2.7663,2.7161,2.6624,2.5888,2.4918,2.3664,2.2074,2.1077,2.0201,1.9186,1.8267,1.734,1.6503,1.5763,1.4951,1.4249,1.3825,1.3402,1.2924,1.2585,1.2301,1.1935,1.145,1.1189,1.1115,1.0843,1.0659,1.058,1.0508,1.0649,1.091,1.1377,1.1923,1.2368,1.2589,1.0552,0.759,0.7038,0.394,-0.0792,-0.4991,-0.8434,-1.0579,-1.5493,-1.844,-1.8615,-1.9546,-2.0311,-2.0501,-2.0644,-2.0736,-2.0852,-2.0974,-2.1119,-2.131,-2.1542,-2.1835,-2.2276,-2.2579,-2.2868,-2.3184,-2.3468,-2.3798,-2.4136,-2.451,-2.4818,-2.5075,-2.5302,-2.5473,-2.5576,-2.5661,-2.5693,-2.5688,-2.5625,-2.555,-2.5499,-2.5445,-2.5332,-2.5262,-2.516,-2.5034,-2.4875,-2.4717,-2.445,-2.4183,-2.3934,-2.3696,-2.3427,-2.3047,-2.2695,-2.2385,-2.2039,-2.165,-2.1236,-2.0886,-2.0573,-2.0216,-1.9831,-1.9288,-1.8777,-1.8293,-1.7814,-1.7227,-1.6801,-1.6417,3.054,3.0458,3.0209,3.0002,2.9846,2.958,2.9291,2.8971,2.8685,2.8255,2.7722,2.7289,2.6757,2.5864,2.4592,2.3325,2.22,2.1272,2.0295,1.9192,1.8273,1.7346,1.6348,1.5584,1.4829,1.4125,1.358,1.3159,1.2801,1.2375,1.1999,1.1677,1.1333,1.1025,1.0863,1.0781,1.0638,1.0539,1.0328,1.0356,1.0605,1.0942,1.1276,1.1723,1.2039,1.2062,1.1011,1.0948,0.9078,0.4822,0.3597,0.0625,-0.3976,-0.9719,-1.2207,-1.4279,-1.6952,-2.046,-2.0447,-2.061,-2.0677,-2.0761,-2.086,-2.0974,-2.1238,-2.1565,-2.1924,-2.2245,-2.2533,-2.2859,-2.3199,-2.3522,-2.3837,-2.4192,-2.4566,-2.4836,-2.509,-2.5321,-2.5489,-2.557,-2.5659,-2.5666,-2.5675,-2.5586,-2.5505,-2.5466,-2.5396,-2.5262,-2.5111,-2.4975,-2.479,-2.4598,-2.4373,-2.4136,-2.3883,-2.364,-2.3332,-2.3067,-2.2686,-2.2275,-2.1899,-2.1491,-2.1031,-2.0624,-2.0261,-1.9879,-1.9493,-1.9102,-1.87,-1.8273,-1.7794,-1.7262,-1.668,-1.6337,-1.5982,3.0593,3.049,3.0299,3.0138,2.9972,2.9691,2.9405,2.9132,2.8806,2.8396,2.7915,2.7465,2.669,2.5627,2.4405,2.3399,2.2399,2.1472,2.0396,1.9285,1.8327,1.7396,1.6508,1.5642,1.4888,1.4121,1.3584,1.3159,1.274,1.2309,1.1872,1.1428,1.1237,1.1076,1.0835,1.0886,1.0827,1.0693,1.0524,1.0562,1.0809,1.0947,1.1078,1.1473,1.1823,1.2215,1.2608,1.2876,1.2506,0.9292,0.7692,0.4511,0.1042,-0.362,-0.7975,-1.2175,-1.393,-1.6929,-1.9836,-2.0442,-2.0685,-2.0744,-2.0827,-2.1015,-2.1285,-2.1595,-2.1974,-2.233,-2.2596,-2.2919,-2.3271,-2.3611,-2.3941,-2.4292,-2.4666,-2.492,-2.5165,-2.5348,-2.5528,-2.5584,-2.5625,-2.56,-2.5556,-2.5447,-2.5358,-2.5302,-2.5194,-2.5058,-2.4873,-2.4674,-2.4477,-2.4238,-2.4022,-2.378,-2.3522,-2.3289,-2.289,-2.2616,-2.2292,-2.1866,-2.1368,-2.0934,-2.0449,-1.9997,-1.9579,-1.9192,-1.8793,-1.8539,-1.824,-1.7787,-1.7242,-1.6746,-1.6201,-1.5794,-1.5394,3.0626,3.0511,3.0379,3.0236,3.0068,2.9787,2.9523,2.9272,2.8938,2.856,2.8064,2.7457,2.6497,2.5503,2.4527,2.3615,2.2656,2.1664,2.059,1.9521,1.853,1.7551,1.6611,1.5758,1.4942,1.4065,1.3571,1.3155,1.2674,1.2247,1.1872,1.1303,1.1115,1.0986,1.0996,1.1003,1.0918,1.0889,1.0703,1.0786,1.1038,1.0937,1.1112,1.1423,1.1673,1.1977,1.2431,1.2822,1.3069,1.2381,1.0177,0.8053,0.6818,0.2352,-0.1968,-0.5713,-0.7827,-1.2102,-1.6376,-1.9122,-2.0371,-2.0752,-2.0901,-2.1111,-2.1332,-2.167,-2.1995,-2.2388,-2.2685,-2.3036,-2.3426,-2.3753,-2.4099,-2.4437,-2.4795,-2.5044,-2.5274,-2.5424,-2.5531,-2.5571,-2.5566,-2.5464,-2.5394,-2.5278,-2.5197,-2.5143,-2.5015,-2.4846,-2.4589,-2.4307,-2.4062,-2.3815,-2.377,-2.3476,-2.3078,-2.2815,-2.2475,-2.2108,-2.1748,-2.1323,-2.0804,-2.0322,-1.9856,-1.9398,-1.893,-1.8387,-1.7888,-1.7875,-1.7774,-1.7179,-1.6582,-1.6182,-1.575,-1.5299,-1.4795,3.0653,3.0577,3.0457,3.0292,3.0094,2.9874,2.9598,2.9314,2.9093,2.866,2.8054,2.721,2.6419,2.5631,2.4808,2.3864,2.2701,2.207,2.0888,1.9722,1.8679,1.7765,1.6775,1.5874,1.5005,1.4245,1.3696,1.3155,1.2674,1.2436,1.1934,1.1369,1.1178,1.0933,1.0933,1.1045,1.1174,1.1185,1.1091,1.1094,1.1146,1.1091,1.1167,1.1377,1.1723,1.2026,1.2328,1.2759,1.318,1.3494,1.2629,1.2278,1.1099,0.7787,0.4192,0.1441,-0.1595,-0.6567,-1.2333,-1.7222,-2.0182,-2.0673,-2.0974,-2.1222,-2.1425,-2.1773,-2.2121,-2.2482,-2.2859,-2.3227,-2.3597,-2.3945,-2.4291,-2.4618,-2.4929,-2.5159,-2.5347,-2.5455,-2.5549,-2.5569,-2.5483,-2.5337,-2.511,-2.4962,-2.4913,-2.4856,-2.4606,-2.442,-2.41,-2.3819,-2.359,-2.3405,-2.3457,-2.316,-2.2599,-2.2231,-2.1832,-2.145,-2.1062,-2.0649,-2.0166,-1.9666,-1.917,-1.865,-1.8126,-1.7537,-1.7089,-1.6944,-1.6776,-1.6386,-1.5957,-1.5484,-1.4926,-1.4381,-1.3915,3.0666,3.0586,3.0442,3.0328,3.0203,2.9972,2.9681,2.9407,2.9132,2.8558,2.7876,2.7138,2.6514,2.5835,2.4957,2.4158,2.3253,2.2203,2.1126,2.0074,1.9032,1.8033,1.7,1.6166,1.541,1.4597,1.4001,1.3402,1.2862,1.2621,1.2247,1.1806,1.149,1.1369,1.131,1.1435,1.1716,1.1817,1.1752,1.1711,1.1915,1.1714,1.1666,1.1787,1.2071,1.2358,1.2642,1.303,1.3389,1.3716,1.4082,1.428,1.4466,1.184,0.9546,0.697,0.3787,-0.1511,-0.9375,-1.4069,-1.6701,-2.0628,-2.1119,-2.1325,-2.1548,-2.194,-2.2339,-2.2712,-2.3122,-2.3482,-2.3941,-2.4256,-2.4554,-2.4838,-2.5072,-2.5291,-2.5403,-2.5483,-2.5436,-2.541,-2.5282,-2.5136,-2.4862,-2.4589,-2.4578,-2.4545,-2.4264,-2.3954,-2.3608,-2.3279,-2.3052,-2.2797,-2.2807,-2.2518,-2.1956,-2.1557,-2.1173,-2.0773,-2.0366,-1.9884,-1.9369,-1.8909,-1.838,-1.7854,-1.7277,-1.6721,-1.6287,-1.6021,-1.5814,-1.5623,-1.522,-1.4755,-1.4149,-1.35,-1.3074,3.0668,3.0622,3.0492,3.0375,3.0279,3.0034,2.9769,2.9504,2.9221,2.8615,2.78,2.7264,2.6682,2.6043,2.5275,2.4356,2.355,2.2589,2.1506,2.0471,1.9451,1.8417,1.7501,1.6611,1.5864,1.4996,1.4355,1.3821,1.3285,1.2981,1.2613,1.2367,1.2065,1.1934,1.1685,1.1996,1.2309,1.2533,1.2504,1.2518,1.2801,1.2489,1.2421,1.2455,1.2654,1.2798,1.3079,1.3415,1.3737,1.4055,1.4351,1.4518,1.4702,1.4286,1.2617,1.0333,0.7752,0.3796,-0.3805,-1.2609,-1.5882,-2.0349,-2.1191,-2.1464,-2.1781,-2.2153,-2.2591,-2.3056,-2.3428,-2.3837,-2.4284,-2.4572,-2.4809,-2.5071,-2.5185,-2.5363,-2.538,-2.5425,-2.5313,-2.5232,-2.5032,-2.4771,-2.4293,-2.3971,-2.3809,-2.3797,-2.365,-2.3324,-2.3019,-2.2703,-2.245,-2.2192,-2.1999,-2.1648,-2.1213,-2.0605,-2.0027,-1.9818,-1.9405,-1.8999,-1.8535,-1.8027,-1.7524,-1.6947,-1.6403,-1.589,-1.5443,-1.5084,-1.5005,-1.4983,-1.4468,-1.3909,-1.3304,-1.2696,-1.2353,3.0701,3.0682,3.0549,3.0417,3.0299,3.0079,2.9865,2.958,2.9334,2.8832,2.8101,2.7483,2.6906,2.6324,2.5594,2.476,2.3856,2.2995,2.1981,2.0861,1.9984,1.8963,1.7995,1.7101,1.6374,1.5463,1.4829,1.43,1.3765,1.3459,1.3094,1.2915,1.2736,1.249,1.193,1.2182,1.2556,1.2935,1.2983,1.3304,1.348,1.3201,1.3167,1.3306,1.3199,1.3324,1.3605,1.3894,1.4217,1.4496,1.468,1.4875,1.5045,1.5204,1.4721,1.4339,1.4539,1.1575,0.5624,-1.0422,-1.7204,-1.9514,-1.9885,-2.1554,-2.1932,-2.2376,-2.2905,-2.3419,-2.379,-2.4172,-2.4532,-2.4836,-2.507,-2.5211,-2.5324,-2.5312,-2.5317,-2.5198,-2.5061,-2.4803,-2.4577,-2.4314,-2.3741,-2.3298,-2.3038,-2.2928,-2.2896,-2.2686,-2.2351,-2.2029,-2.1711,-2.1403,-2.1126,-2.0674,-2.0169,-1.9424,-1.8907,-1.8747,-1.8451,-1.8052,-1.7599,-1.7059,-1.6562,-1.6003,-1.5475,-1.4994,-1.4503,-1.4055,-1.3862,-1.3663,-1.3432,-1.2919,-1.2358,-1.1923,-1.1673,3.0701,3.0692,3.0559,3.0448,3.0352,3.0161,2.994,2.9663,2.924,2.8716,2.8183,2.7663,2.7132,2.653,2.5852,2.5082,2.4372,2.3319,2.2353,2.1383,2.054,1.9423,1.8465,1.7655,1.6933,1.6083,1.54,1.4888,1.4414,1.3992,1.3761,1.3588,1.3524,1.3168,1.2858,1.2911,1.3329,1.373,1.3828,1.4023,1.4452,1.4116,1.3992,1.4209,1.3966,1.3973,1.4217,1.446,1.4737,1.5051,1.5232,1.5361,1.5534,1.5774,1.5836,1.5925,1.5996,1.3408,0.7252,-0.3049,-0.9954,-1.4136,-1.8613,-2.0831,-2.2175,-2.2703,-2.3238,-2.3773,-2.4206,-2.4586,-2.4898,-2.507,-2.5247,-2.531,-2.5344,-2.522,-2.513,-2.4906,-2.4688,-2.4326,-2.4053,-2.3382,-2.279,-2.2322,-2.2057,-2.1839,-2.1782,-2.1778,-2.1532,-2.1202,-2.0871,-2.0479,-2.0131,-1.972,-1.9163,-1.846,-1.7974,-1.7772,-1.747,-1.7059,-1.6562,-1.6046,-1.5514,-1.4937,-1.4544,-1.4097,-1.3527,-1.3006,-1.253,-1.2197,-1.2084,-1.2035,-1.166,-1.1322,-1.1023,3.0733,3.0686,3.0577,3.049,3.0412,3.0194,2.9972,2.9664,2.9203,2.8718,2.8317,2.7858,2.7352,2.6733,2.606,2.5397,2.4847,2.3879,2.2927,2.2,2.1119,2.0074,1.9143,1.8304,1.7589,1.6754,1.6145,1.558,1.5113,1.4701,1.4414,1.4359,1.4364,1.424,1.3932,1.3923,1.4043,1.4446,1.473,1.5076,1.5345,1.5285,1.5107,1.5062,1.4914,1.4829,1.492,1.5136,1.54,1.5674,1.585,1.5982,1.6194,1.6331,1.6423,1.6588,1.6374,1.4731,1.0695,0.5236,-0.1782,-0.7854,-1.4596,-1.9401,-2.1777,-2.3047,-2.366,-2.4183,-2.462,-2.4876,-2.5103,-2.5258,-2.5213,-2.5268,-2.5055,-2.4916,-2.4641,-2.4403,-2.3996,-2.3655,-2.3173,-2.2496,-2.1823,-2.1406,-2.1014,-2.0798,-2.061,-2.0626,-2.0659,-2.0385,-2.0028,-1.9626,-1.9222,-1.8752,-1.8225,-1.7551,-1.7132,-1.6815,-1.6397,-1.5996,-1.5469,-1.4937,-1.4405,-1.3904,-1.3474,-1.3001,-1.2472,-1.1945,-1.1497,-1.1145,-1.0939,-1.0897,-1.0863,-1.0608,-1.03,3.0757,3.0685,3.061,3.055,3.0468,3.0207,2.9907,2.9569,2.9255,2.8919,2.856,2.8027,2.7565,2.7036,2.6419,2.5779,2.5114,2.4297,2.3478,2.2627,2.1697,2.0756,1.987,1.8992,1.8298,1.7655,1.6995,1.6436,1.5921,1.558,1.5294,1.5113,1.5284,1.5337,1.5211,1.5085,1.5089,1.5444,1.5733,1.6094,1.6425,1.651,1.6387,1.6216,1.603,1.5829,1.5794,1.5854,1.6032,1.6275,1.6454,1.6625,1.6831,1.6993,1.7146,1.7381,1.7747,1.727,1.6081,1.0715,0.5645,-0.1077,-0.8194,-1.4859,-2.0653,-2.335,-2.3989,-2.4482,-2.4876,-2.5056,-2.524,-2.514,-2.5036,-2.486,-2.4606,-2.4346,-2.4032,-2.3659,-2.3218,-2.2755,-2.2261,-2.1624,-2.0934,-2.0426,-2.0035,-1.974,-1.9555,-1.9404,-1.9447,-1.9549,-1.9148,-1.876,-1.8345,-1.7847,-1.7253,-1.657,-1.6053,-1.5684,-1.5246,-1.4801,-1.4318,-1.3847,-1.3374,-1.2899,-1.2428,-1.194,-1.1388,-1.0935,-1.0438,-1.0186,-0.9976,-0.9921,-0.998,-0.9769,-0.9462,3.073,3.069,3.0639,3.0559,3.0468,3.0194,2.9917,2.9589,2.9383,2.9075,2.8635,2.8264,2.7803,2.7272,2.6766,2.6148,2.5481,2.4768,2.3926,2.3098,2.23,2.1397,2.0527,1.9728,1.8998,1.8363,1.7765,1.7279,1.6893,1.6503,1.627,1.6151,1.6306,1.6523,1.6615,1.6599,1.6564,1.6528,1.6708,1.7051,1.7401,1.7402,1.7422,1.7367,1.6926,1.6773,1.6781,1.6548,1.6705,1.6986,1.707,1.7271,1.7854,1.7987,1.8157,1.8738,1.8956,1.8906,1.8709,1.7082,1.2589,0.5285,-0.1823,-1.1788,-1.8814,-2.3232,-2.3963,-2.4697,-2.489,-2.498,-2.4888,-2.4761,-2.4535,-2.4217,-2.3915,-2.3515,-2.3173,-2.2724,-2.2243,-2.1648,-2.1158,-2.0574,-1.9889,-1.9513,-1.9148,-1.8781,-1.8475,-1.8313,-1.8274,-1.8359,-1.8235,-1.784,-1.7335,-1.6809,-1.6213,-1.5584,-1.501,-1.4492,-1.4075,-1.3653,-1.3173,-1.2696,-1.2316,-1.1823,-1.1375,-1.0876,-1.0328,-0.9925,-0.9618,-0.9361,-0.9152,-0.9096,-0.9047,-0.8877,-0.8699,3.0701,3.0704,3.0663,3.0587,3.0468,3.0257,3.0028,2.9734,2.9541,2.9206,2.883,2.8507,2.8075,2.7577,2.71,2.6581,2.5949,2.5283,2.4504,2.3756,2.2943,2.2114,2.1265,2.054,1.9882,1.9254,1.8727,1.8298,1.7869,1.7551,1.7324,1.7313,1.7479,1.7677,1.7933,1.8084,1.8197,1.8053,1.7961,1.8027,1.8176,1.8371,1.8497,1.84,1.7859,1.7847,1.7739,1.7414,1.7467,1.7801,1.7867,1.8249,1.8795,1.9059,1.9445,1.9963,2.0239,2.0373,2.0335,2.0215,1.5936,0.9974,0.2454,-0.7002,-1.5361,-2.105,-2.3137,-2.4777,-2.4764,-2.4733,-2.4509,-2.427,-2.3882,-2.3502,-2.3066,-2.2611,-2.2174,-2.1698,-2.112,-2.0475,-1.9932,-1.9389,-1.8932,-1.8581,-1.8245,-1.7907,-1.7531,-1.7197,-1.7197,-1.7272,-1.7136,-1.6844,-1.6287,-1.5734,-1.5129,-1.4538,-1.393,-1.3369,-1.289,-1.2463,-1.2021,-1.1625,-1.1283,-1.0771,-1.0257,-0.9806,-0.9454,-0.9249,-0.8942,-0.8629,-0.8284,-0.8161,-0.8159,-0.8245,-0.7979,3.0703,3.0707,3.0703,3.0615,3.0499,3.0364,3.0175,3.0007,2.9691,2.9372,2.9062,2.8764,2.836,2.7926,2.7457,2.6947,2.6358,2.5734,2.5113,2.4415,2.3623,2.2815,2.2067,2.1362,2.0776,2.0339,1.9882,1.934,1.9014,1.875,1.8602,1.8673,1.8815,1.9008,1.9258,1.9517,1.9672,1.9768,1.9465,1.9316,1.9313,1.9505,1.9712,1.9323,1.9076,1.896,1.8631,1.8406,1.8307,1.8623,1.8946,1.9266,1.9885,2.0383,2.0822,2.121,2.156,2.1737,2.1827,2.1747,1.8759,1.2313,0.4123,-0.2691,-0.9708,-1.9773,-2.3563,-2.4172,-2.4101,-2.3738,-2.3465,-2.3061,-2.2661,-2.227,-2.1849,-2.1425,-2.1001,-2.0492,-1.9901,-1.9324,-1.8874,-1.8359,-1.8085,-1.776,-1.7435,-1.7118,-1.6733,-1.6306,-1.6071,-1.6151,-1.5959,-1.5772,-1.5285,-1.4704,-1.4059,-1.3464,-1.2808,-1.2236,-1.1792,-1.1388,-1.0973,-1.0631,-1.0241,-0.9766,-0.934,-0.8977,-0.8672,-0.8421,-0.8159,-0.783,-0.7498,-0.72,-0.7173,-0.733,-0.7314,3.0749,3.0697,3.0649,3.0577,3.05,3.0362,3.0257,3.0152,2.9914,2.9589,2.9251,2.8948,2.8603,2.8157,2.7714,2.7191,2.6538,2.5894,2.5566,2.4846,2.4076,2.3288,2.2855,2.1967,2.1566,2.1175,2.0769,2.0278,1.9913,1.982,1.9915,2.008,2.0149,2.031,2.0723,2.0939,2.1079,2.1308,2.1294,2.0851,2.0594,2.0726,2.0804,2.073,2.0661,2.0274,1.9971,1.9641,1.9529,1.959,1.9735,2.0332,2.1236,2.1759,2.2184,2.2566,2.2856,2.3007,2.307,2.2959,2.1058,1.7158,1.0437,0.3897,-0.4812,-1.6845,-2.324,-2.3166,-2.3092,-2.2658,-2.2242,-2.1801,-2.1404,-2.0965,-2.0607,-2.0211,-1.9808,-1.9258,-1.8681,-1.8263,-1.7834,-1.7558,-1.7277,-1.6951,-1.6625,-1.6275,-1.5914,-1.5517,-1.5056,-1.4909,-1.4755,-1.4521,-1.4245,-1.37,-1.3044,-1.2409,-1.1783,-1.1233,-1.0779,-1.0375,-0.9969,-0.9558,-0.9197,-0.8834,-0.8415,-0.815,-0.7836,-0.7589,-0.7322,-0.7036,-0.6742,-0.6428,-0.6326,-0.6441,-0.6449,3.0789,3.0738,3.0683,3.0611,3.054,3.0448,3.0326,3.0211,3.007,2.9829,2.9551,2.9186,2.8695,2.8107,2.7674,2.694,2.6207,2.5642,2.4986,2.4479,2.4066,2.3286,2.2765,2.2299,2.1708,2.1292,2.0944,2.0574,2.0543,2.0368,2.0395,2.0954,2.119,2.1467,2.1999,2.2236,2.2352,2.2601,2.287,2.2691,2.2083,2.2072,2.2014,2.1999,2.1839,2.1513,2.1101,2.077,2.0559,2.0642,2.0886,2.1578,2.2367,2.2861,2.3253,2.3585,2.3858,2.4055,2.4031,2.3761,2.3228,1.9334,1.2803,0.4754,0.0681,-1.0484,-1.8521,-1.9101,-2.0722,-2.0584,-2.0311,-1.9892,-1.9733,-1.9439,-1.9162,-1.8853,-1.8565,-1.8175,-1.7794,-1.7544,-1.7173,-1.6811,-1.652,-1.6176,-1.5838,-1.5528,-1.517,-1.4749,-1.4247,-1.3768,-1.3579,-1.3283,-1.3034,-1.2652,-1.2075,-1.1429,-1.083,-1.0277,-0.9814,-0.934,-0.8977,-0.8511,-0.8153,-0.7883,-0.7616,-0.7348,-0.7039,-0.6779,-0.6564,-0.6275,-0.6039,-0.5759,-0.5665,-0.5562,-0.5533,3.0789,3.0788,3.0717,3.0651,3.0595,3.055,3.0437,3.0307,3.0041,2.9855,2.9569,2.9139,2.8426,2.7839,2.7167,2.6231,2.5547,2.5236,2.4582,2.4067,2.3525,2.3222,2.2753,2.2086,2.1782,2.1473,2.1128,2.0981,2.0869,2.0848,2.1133,2.1599,2.1894,2.2169,2.2946,2.3418,2.3504,2.3743,2.4002,2.432,2.3964,2.3505,2.3216,2.3009,2.2924,2.2584,2.2156,2.1892,2.1641,2.1713,2.2066,2.2782,2.3318,2.3784,2.4034,2.4331,2.4418,2.4462,2.4378,2.4023,2.3178,2.0058,1.2306,0.6801,0.2901,-0.3275,-1.1333,-1.5366,-1.6972,-1.841,-1.8117,-1.8151,-1.8008,-1.8034,-1.7792,-1.7666,-1.745,-1.7229,-1.7012,-1.684,-1.6522,-1.6194,-1.5844,-1.5496,-1.513,-1.4817,-1.4403,-1.3983,-1.351,-1.3011,-1.2623,-1.2218,-1.176,-1.1429,-1.1091,-1.0584,-0.9969,-0.9451,-0.9037,-0.8455,-0.7981,-0.7613,-0.7348,-0.713,-0.681,-0.6593,-0.632,-0.6107,-0.5837,-0.5618,-0.5254,-0.4985,-0.5047,-0.4911,-0.4742,3.0796,3.0793,3.0724,3.0656,3.0611,3.0588,3.053,3.0332,2.9615,2.9193,2.8841,2.8137,2.7633,2.7764,2.6826,2.5964,2.5294,2.4914,2.4775,2.4441,2.3684,2.3464,2.3082,2.2323,2.2288,2.1934,2.1599,2.1673,2.1356,2.1584,2.1903,2.2164,2.2286,2.2555,2.2944,2.3461,2.403,2.4367,2.4909,2.53,2.526,2.4839,2.4407,2.4329,2.4468,2.3895,2.343,2.3373,2.2878,2.2721,2.2998,2.3713,2.4146,2.4442,2.4611,2.4597,2.4696,2.4381,2.4159,2.3536,2.2538,2.0668,1.4054,0.9921,0.5633,0.07,-0.5789,-0.9974,-1.2153,-1.5037,-1.5502,-1.608,-1.6217,-1.6589,-1.661,-1.6763,-1.671,-1.6588,-1.6436,-1.6225,-1.6001,-1.573,-1.5463,-1.5102,-1.4686,-1.4321,-1.3842,-1.342,-1.2871,-1.2339,-1.1755,-1.1242,-1.0728,-1.0525,-1.032,-0.9758,-0.9197,-0.8732,-0.8203,-0.7717,-0.7235,-0.6866,-0.6544,-0.6376,-0.6157,-0.5939,-0.5666,-0.5447,-0.5173,-0.4956,-0.4517,-0.4262,-0.4357,-0.4268,-0.4112]}]]